[[{"header":{"parameterUnit":"m.s-1","parameterCategory":1,"la1":31.0,"la2":29.5877,"lo1":-88.7671,"lo2":-86.6584,"dy":0.0162,"dx":0.0185,"nx":115,"ny":88,"refTime":"2023-06-23T00:00:00:Z","depth":0,"parameterNumber":2,"parameterNumberName":"U-component_of_WINDS"},"data":[0.0,0.0,0.0,0.0,0.0,0.0,0.0,0.0,0.0,0.0,0.0,0.0,0.0,0.0,0.0,0.0,0.0,0.0,0.0,0.0,0.0,0.0,0.0,0.0,0.0,0.0,0.0,0.0,0.0,0.0,0.0,0.0,0.0,0.0,0.0,0.0,0.0,0.0,0.0,0.0,0.0,0.0,0.0,0.0,0.0,0.0,0.0,0.0,0.0,0.0,0.0,0.0,0.0,0.0,0.0,0.0,0.0,0.0,0.0,0.0,0.0,0.0,0.0,0.0,0.0,0.0,0.0,0.0,0.0,0.0,0.0,0.0,0.0,0.0,0.0,0.0,0.0,0.0,0.0,0.0,0.0,0.0,0.0,0.0,0.0,0.0,0.0,0.0,0.0,0.0,0.0,0.0,0.0,0.0,0.0,0.0,0.0,0.0,0.0,0.0,0.0,0.0,0.0,0.0,0.0,0.0,0.0,0.0,0.0,0.0,0.0,0.0,0.0,0.0,0.0,0.0,0.0,0.0,0.0,0.0,0.0,0.0,0.0,0.0,0.0,0.0,0.0,0.0,0.0,0.0,0.0,0.0,0.0,0.0,0.0,0.0,0.0,0.0,0.0,0.0,0.0,0.0,0.0,0.0,0.0,0.0,0.0,0.0,0.0,0.0,0.0,0.0,0.0,0.0,0.0,0.0,0.0,0.0,0.0,0.0,0.0,0.0,0.0,0.0,0.0,0.0,0.0,0.0,0.0,0.0,0.0,0.0,0.0,0.0,0.0,0.0,0.0,0.0,0.0,0.0,0.0,0.0,0.0,0.0,0.0,0.0,0.0,0.0,0.0,0.0,0.0,0.0,0.0,0.0,0.0,0.0,0.0,0.0,0.0,0.0,0.0,0.0,0.0,0.0,0.0,0.0,0.0,0.0,0.0,0.0,0.0,0.0,0.0,0.0,0.0,0.0,0.0,0.0,0.0,0.0,0.0,0.0,0.0,0.0,0.0,0.0,0.0,0.0,0.0,0.0,0.0,0.0,0.0,0.0,0.0,0.0,0.0,0.0,0.0,0.0,0.0,0.0,0.0,0.0,0.0,0.0,0.0,0.0,0.0,0.0,0.0,0.0,0.0,0.0,0.0,0.0,0.0,0.0,0.0,0.0,0.0,0.0,0.0,0.0,0.0,0.0,0.0,0.0,0.0,0.0,0.0,0.0,0.0,0.0,0.0,0.0,0.0,0.0,0.0,0.0,0.0,0.0,0.0,0.0,0.0,0.0,0.0,0.0,0.0,0.0,0.0,0.0,0.0,0.0,0.0,0.0,0.0,0.0,0.0,0.0,0.0,0.0,0.0,0.0,0.0,0.0,0.0,0.0,0.0,0.0,0.0,0.0,0.0,0.0,0.0,0.0,0.0,0.0,0.0,0.0,0.0,0.0,0.0,0.0,0.0,0.0,0.0,0.0,0.0,0.0,0.0,0.0,0.0,0.0,0.0,0.0,0.0,0.0,0.0,0.0,0.0,0.0,0.0,0.0,0.0,0.0,0.0,0.0,0.0,0.0,0.0,0.0,0.0,0.0,0.0,0.0,0.0,0.0,0.0,0.0,0.0,0.0,0.0,0.0,0.0,0.0,0.0,0.0,0.0,0.0,0.0,0.0,0.0,0.0,0.0,0.0,0.0,0.0,0.0,0.0,0.0,0.0,0.0,0.0,0.0,0.0,0.0,0.0,0.0,0.0,0.0,0.0,0.0,0.0,0.0,0.0,0.0,0.0,0.0,0.0,0.0,0.0,0.0,0.0,0.0,0.0,0.0,0.0,0.0,0.0,0.0,0.0,0.0,0.0,0.0,0.0,0.0,0.0,0.0,0.0,0.0,0.0,0.0,0.0,0.0,0.0,0.0,0.0,0.0,0.0,0.0,0.0,0.0,0.0,0.0,0.0,0.0,0.0,0.0,0.0,0.0,0.0,0.0,0.0,0.0,0.0,0.0,0.0,0.0,0.0,0.0,0.0,0.0,0.0,0.0,0.0,0.0,0.0,0.0,0.0,0.0,0.0,0.0,0.0,0.0,0.0,0.0,0.0,0.0,0.0,0.0,0.0,0.0,0.0,0.0,0.0,0.0,0.0,0.0,0.0,0.0,0.0,0.0,0.0,0.0,0.0,0.0,0.0,0.0,0.0,0.0,0.0,0.0,0.0,0.0,0.0,0.0,0.0,0.0,0.0,0.0,0.0,0.0,0.0,0.0,0.0,0.0,0.0,0.0,0.0,0.0,0.0,0.0,0.0,0.0,0.0,0.0,0.0,0.0,0.0,0.0,0.0,0.0,0.0,0.0,0.0,0.0,0.0,0.0,0.0,0.0,0.0,0.0,0.0,0.0,0.0,0.0,0.0,0.0,0.0,0.0,0.0,0.0,0.0,0.0,0.0,0.0,0.0,0.0,0.0,0.0,0.0,0.0,0.0,0.0,0.0,0.0,0.0,0.0,0.0,0.0,0.0,0.0,0.0,0.0,0.0,0.0,0.0,0.0,0.0,0.0,0.0,0.0,0.0,0.0,0.0,0.0,0.0,0.0,0.0,0.0,0.0,0.0,0.0,0.0,0.0,0.0,0.0,0.0,0.0,0.0,0.0,0.0,0.0,0.0,0.0,0.0,0.0,0.0,0.0,0.0,0.0,0.0,0.0,0.0,0.0,0.0,0.0,0.0,0.0,0.0,0.0,0.0,0.0,0.0,0.0,0.0,0.0,0.0,0.0,0.0,0.0,0.0,0.0,0.0,0.0,0.0,0.0,0.0,0.0,0.0,0.0,0.0,0.0,0.0,0.0,0.0,0.0,0.0,0.0,0.0,0.0,0.0,0.0,0.0,0.0,0.0,0.0,0.0,0.0,0.0,0.0,0.0,0.0,0.0,0.0,0.0,0.0,0.0,0.0,0.0,0.0,0.0,0.0,0.0,0.0,0.0,0.0,0.0,0.0,0.0,0.0,0.0,0.0,0.0,0.0,0.0,0.0,0.0,0.0,0.0,0.0,0.0,0.0,0.0,0.0,0.0,0.0,0.0,0.0,0.0,0.0,0.0,0.0,0.0,0.0,0.0,0.0,0.0,0.0,0.0,0.0,0.0,0.0,0.0,0.0,0.0,0.0,0.0,0.0,0.0,0.0,0.0,0.0,0.0,0.0,0.0,0.0,0.0,0.0,0.0,0.0,0.0,0.0,0.0,0.0,0.0,0.0,0.0,0.0,0.0,0.0,0.0,0.0,0.0,0.0,0.0,0.0,0.0,0.0,0.0,0.0,0.0,0.0,0.0,0.0,0.0,0.0,0.0,0.0,0.0,0.0,0.0,0.0,0.0,0.0,0.0,0.0,0.0,0.0,0.0,0.0,0.0,0.0,0.0,0.0,0.0,0.0,0.0,0.0,0.0,0.0,0.0,0.0,0.0,0.0,0.0,0.0,0.0,0.0,0.0,0.0,0.0,0.0,0.0,0.0,0.0,0.0,0.0,0.0,0.0,0.0,0.0,0.0,0.0,0.0,0.0,0.0,0.0,0.0,0.0,0.0,0.0,0.0,0.0,0.0,0.0,0.0,0.0,0.0,0.0,0.0,0.0,0.0,0.0,0.0,0.0,0.0,0.0,0.0,0.0,0.0,0.0,0.0,0.0,0.0,0.0,0.0,0.0,0.0,0.0,0.0,0.0,0.0,0.0,0.0,0.0,0.0,0.0,0.0,0.0,0.0,0.0,0.0,0.0,0.0,0.0,0.0,0.0,0.0,0.0,0.0,0.0,0.0,0.0,0.0,0.0,0.0,0.0,0.0,0.0,0.0,0.0,0.0,0.0,0.0,0.0,0.0,0.0,0.0,0.0,0.0,0.0,0.0,0.0,0.0,0.0,0.0,0.0,0.0,0.0,0.0,0.0,0.0,0.0,0.0,0.0,0.0,0.0,0.0,0.0,0.0,0.0,0.0,0.0,0.0,0.0,0.0,0.0,0.0,0.0,0.0,0.0,0.0,0.0,0.0,0.0,0.0,0.0,0.0,0.0,0.0,0.0,0.0,0.0,0.0,0.0,0.0,0.0,0.0,0.0,0.0,0.0,0.0,0.0,0.0,0.0,0.0,0.0,0.0,0.0,0.0,0.0,0.0,0.0,0.0,0.0,0.0,0.0,0.0,0.0,0.0,0.0,0.0,0.0,0.0,0.0,0.0,0.0,0.0,0.0,0.0,0.0,0.0,0.0,0.0,0.0,0.0,0.0,0.0,0.0,0.0,0.0,0.0,0.0,0.0,-0.1418,0.0,0.0,0.0,0.0,0.0,0.0,0.0,0.0,0.0,0.0,0.0,0.0,0.0,0.0,0.0,0.0,0.0,0.0,0.0,0.0,0.0,0.0,0.0,0.0,0.0,0.0,0.0,0.0,0.0,0.0,0.0,0.0,0.0,0.0,0.0,0.0,0.0,0.0,0.0,0.0,0.0,0.0,0.0,0.0,0.0,0.0,0.0,0.0,0.0,0.0,0.0,0.0,0.0,0.0,0.0,0.0,0.0,0.0,0.0,0.0,0.0,0.0,0.0,0.0,0.0,0.0,0.0,0.0,0.0,0.0,0.0,0.0,0.0,0.0,0.0,0.0,0.0,0.0,0.0,0.0,0.0,0.0,0.0,0.0,0.0,0.0,0.0,0.0,0.0,0.0,0.0,0.0,0.0,0.0,0.0,0.0,0.0,0.0,0.0,0.0,0.0,0.0,0.0,0.0,0.0,0.0,0.0,0.0,0.0,0.0,-0.0618,-0.064,-0.0361,-0.0398,-0.0811,0.0,0.0,0.0,0.0,0.0,0.0,0.0,0.0,0.0,0.0,0.0,0.0,0.0,0.0,0.0,0.0,0.0,0.0,0.0,0.0,0.0,0.0,0.0,0.0,0.0,0.0,0.0,0.0,0.0,0.0,0.0,0.0,0.0,0.0,0.0,0.0,0.0,0.0,0.0,0.0,0.0,0.0,0.0,0.0,0.0,0.0,0.0,0.0,0.0,0.0,0.0,0.0,0.0,0.0,0.0,0.0,0.0,0.0,0.0,0.0,0.0,0.0,0.0,0.0,0.0,0.0,0.0,0.0,0.0,0.0,0.0,0.0,0.0,0.0,0.0,0.0,0.0,0.0,0.0,0.0,0.0,0.0,0.0,0.0,0.0,0.0,0.0,0.0,0.0,0.0,0.0,0.0,0.0,0.0,0.0,0.0,0.0,0.0,0.0,0.0,0.0,0.0,0.0,0.0,0.0,0.0,0.0,0.0,0.0,0.0,0.0,0.0,-0.063,-0.0361,-0.0823,0.0,0.0,0.0,0.0,0.0,0.0,0.0,0.0,0.0,0.0,0.0,0.0,0.0,0.0,0.0,0.0,0.0,0.0,0.0,0.0,0.0,0.0,0.0,0.0,0.0,0.0,0.0,0.0,0.0,0.0,0.0,0.0,0.0,0.0,0.0,0.0,0.0,0.0,0.0,0.0,0.0,0.0,0.0,0.0,0.0,0.0,0.0,0.0,0.0,0.0,0.0,0.0,0.0,0.0,0.0,0.0,0.0,0.0,0.0,0.0,0.0,0.0,0.0,0.0,0.0,0.0,0.0,0.0,0.0,0.0,0.0,0.0,0.0,0.0,0.0,0.0,0.0,0.0,0.0,0.0,0.0,0.0,0.0,0.0,0.0,0.0,0.0,0.0,0.0,0.0,0.0,0.0,0.0,0.0,0.0,0.0,0.0,0.0,0.0,0.0,0.0,0.0,0.0,0.0,0.0,0.0,0.0,0.0,0.0,0.0,-0.1022,0.3226,0.048,0.0,-0.1036,0.0,0.0,0.0,0.0,0.0,0.0,0.0,0.0,0.0,0.0,0.0,0.0,0.0,0.0,0.0,0.0,0.0,0.0,0.0,0.0,0.0,0.0,0.0,0.0,0.0,0.0,0.0,0.0,0.0,0.0,0.0,0.0,0.0,0.0,0.0,0.0,0.0,0.0,0.0,0.0,0.0,0.0,0.0,0.0,0.0,0.0,0.0,0.0,0.0,0.0,0.0,0.0,0.0,0.0,0.0,0.0,0.0,0.0,0.0,0.0,0.0,0.0,0.0,0.0,0.0,0.0,0.0,0.0,0.0,0.0,0.0,0.0,0.0,0.0,0.0,0.0,0.0,0.0,0.0,0.0,0.0,0.0,0.0,0.0,0.0,0.0,0.0,0.0,0.0,0.0,0.0,0.0,0.0,0.0,0.0,0.0,0.0,0.0,0.0,0.0,0.0,0.0,0.0,0.0,0.0,0.0,0.0,0.0,0.0,0.0,0.0558,0.1545,-0.0815,-0.1115,0.0,0.0,0.0,0.0,0.0,0.0,0.0,0.0,0.0,0.0,0.0,0.0,0.0,0.0,0.0,0.0,0.0,0.0,0.0,0.0,0.0,0.0,0.0,0.0,0.0,0.0,0.0,0.0,0.0,0.0,0.0,0.0,0.0,0.0,0.0,0.0,0.0,0.0,0.0,0.0,0.0,0.0,0.0,0.0,0.0,0.0,0.0,0.0,0.0,0.0,0.0,0.0,0.0,0.0,0.0,0.0,0.0,0.0,0.0,0.0,0.0,0.0,0.0,0.0,0.0,0.0,0.0,0.0,0.0,0.0,0.0,0.0,0.0,0.0,0.0,0.0,0.0,0.0,0.0,0.0,0.0,0.0,0.0,0.0,0.0,0.0,0.0,0.0,0.0,0.0,0.0,0.0,0.0,0.0,0.0,0.0,0.0,0.0,0.0,0.0,0.0,0.0,0.0,0.0,0.0,0.0,0.0,0.0,0.0,0.0,0.265,0.2202,0.0166,-0.0804,-0.0055,0.2485,0.0,0.0,0.0,0.0,0.0,0.0,0.0,0.0,0.0,0.0,0.0,0.0,0.0,0.0,0.0,0.0,0.0,0.0,0.0,0.0,0.0,0.0,0.0,0.0,0.0,0.0,0.0,0.0,0.0,0.0,0.0,0.0,0.0,0.0,0.0,0.0,0.0,0.0,0.0,0.0,0.0,0.0,0.0,0.0,0.0,0.0,0.0,0.0,0.0,0.0,0.0,0.0,0.0,0.0,0.0,0.0,0.0,0.0,0.0,0.0,0.0,0.0,0.0,0.0,0.0,0.0,0.0,0.0,0.0,0.0,0.0,0.0,0.0,0.0,0.0,0.0,0.0,0.0,0.0,0.0,0.0,0.0,0.0,0.0,0.0,0.0,0.0,0.0,0.0,0.0,0.0,0.0,0.0,0.0,0.0,0.0,0.0,0.0,0.0,0.0,0.0,0.0,0.0,0.0,0.0,0.0,0.0,0.0,0.6988,0.5902,0.3722,0.0841,0.1717,0.2312,0.0,0.0,0.0,0.0,0.0,0.0,0.0,0.0,0.0,0.0,0.0,0.0,0.0,0.0,0.0,0.0,0.0,0.0,0.0,0.0,0.0,0.0,0.0,0.0,0.0,0.0,0.0,0.0,0.0,0.0,0.0,0.0,0.0,0.0,0.0,0.0,0.0,0.0,0.0,0.0,0.0,0.0,0.0,0.0,0.0,0.0,0.0,0.0,0.0,0.0,0.0,0.0,0.0,0.0,0.0,0.0,0.0,0.0,0.0,0.0,0.0,0.0,0.0,0.0,0.0,0.0,0.0,0.0,0.0,0.0,0.0,0.0,0.0,0.0,0.0,0.0,0.0,0.0,0.0,0.0,0.0,0.0,0.0,0.0,0.0,0.0,0.0,0.0,0.0,0.0,0.0,0.0,0.0,0.0,0.0,0.0,0.0,0.0,0.0,0.0,0.0,0.0,0.0,0.0,0.0,0.0,0.0,0.0,0.0,0.5709,0.5592,0.4673,0.2971,0.2903,0.3125,0.0,0.0,0.0,0.0,0.0,0.0,0.0,0.0,0.0,0.0,0.0,0.0,0.0,0.0,0.0,0.0,0.0,0.0,0.0,0.0,0.0,0.0,0.0,0.0,0.0,0.0,0.0,0.0,0.0,0.0,0.0,0.0,0.0,0.0,0.0,0.0,0.0,0.0,0.0,0.0,0.0,0.0,0.0,0.0,0.0,0.0,0.0,0.0,0.0,0.0,0.0,0.0,0.0,0.0,0.0,0.0,0.0,0.0,0.0,0.0,0.0,0.0,0.0,0.0,0.0,0.0,0.0,0.0,0.0,0.0,0.0,0.0,0.0,0.0,0.0,0.0,0.0,0.0,0.0,0.0,0.0,0.0,0.0,0.0,0.0,0.0,0.0,0.0,0.0,0.0,0.0,0.0,0.0,0.0,0.0,0.0,0.0,0.0,0.0,0.0,0.0,0.0,0.0,0.0,0.0,0.0,0.0,0.0,0.0,0.5398,0.0,0.518,0.4572,0.4022,0.4122,0.0,0.0,0.0,0.0,0.0,0.0,0.0,0.0,0.0,0.0,0.0,0.0,0.0,0.0,0.0,0.0,0.0,0.0,0.0,0.0,0.0,0.0,0.0,0.0,0.0,0.0,0.0,0.0,0.0,0.0,0.0,0.0,0.0,0.0,0.0,0.0,0.0,0.0,0.0,0.0,0.0,0.0,0.0,0.0,0.0,0.0,0.0,0.0,0.0,0.0,0.0,0.0,0.0,0.0,0.0,0.0,0.0,0.0,0.0,0.0,0.0,0.0,0.0,0.0,0.0,0.0,0.0,0.0,0.0,0.0,0.0,0.0,0.0,0.0,0.0,0.0,0.0,0.0,0.0,0.0,0.0,0.0,0.0,0.0,0.0,0.0,0.0,0.0,0.0,0.0,0.0,0.0,0.0,0.0,0.0,0.0,0.0,0.0,0.0,0.0,0.0,0.0,0.0,0.0,0.0,0.0,0.0,0.0,0.7232,0.6604,0.5717,0.5336,0.5482,0.5255,0.5403,0.0,0.0,0.0,0.0,0.0,0.0,0.0,0.0,0.0,0.0,0.0,0.0,0.0,0.0,0.0,0.0,0.0,0.0,0.0,0.0,0.0,0.0,0.0,0.0,0.0,0.0,0.0,0.0,0.0,0.0,0.0,0.0,0.0,0.0,0.0,0.0,0.0,0.0,0.0,0.0,0.0,0.0,0.0,0.0,0.0,0.0,0.0,0.0,0.0,0.0,0.0,0.0,0.0,0.0,0.0,0.0,0.0,0.0,0.0,0.0,0.0,0.0,0.0,0.0,0.0,0.0,0.0,0.0,0.0,0.0,0.0,0.0,0.0,0.0,0.0,0.0,0.0,0.0,0.0,0.0,0.0,0.0,0.0,0.0,0.0,0.0,0.0,0.0,0.0,0.0,0.0,0.0,0.0,0.0,0.0,0.0,0.0,0.0,0.0,0.0,0.0,0.0,0.0,0.0,0.0,0.0,0.0,0.0,0.0,0.7446,0.6609,0.5992,0.5689,0.6541,0.6249,0.0,0.0,0.0,0.0,0.0,0.0,0.0,0.0,0.0,0.0,0.0,0.0,0.0,0.0,0.0,0.0,0.0,0.0,0.0,0.0,0.0,0.0,0.0,0.0,0.0,0.0,0.0,0.0,0.0,0.0,0.0,0.0,0.0,0.0,0.0,0.0,0.0,0.0,0.0,0.0,0.0,0.0,0.0,0.0,0.0,0.0,0.0,0.0,0.0,0.0,0.0,0.0,0.0,0.0,0.0,0.0,0.0,0.0,0.0,0.0,0.0,0.0,0.0,0.0,0.0,0.0,0.0,0.0,0.0,0.0,0.0,0.0,0.0,0.0,0.0,0.0,0.0,0.0,0.0,0.0,0.0,0.0,0.0,0.0,0.0,0.0,0.0,0.0,0.0,0.0,0.0,0.0,0.0,0.0,0.0,0.0,0.0,0.0,0.0,0.0,0.0,0.0,0.0,0.0,0.0,0.0,0.0,0.0,0.0,0.7221,0.636,0.5454,0.4628,0.5926,0.5848,0.425,0.0,0.0,0.0,0.0,0.0,0.0,0.0,0.0,0.0,0.0,0.0,0.0,0.0,0.0,0.0,0.0,0.0,0.0,0.0,0.0,0.0,0.0,0.0,0.0,0.0,0.0,0.0,0.0,0.0,0.0,0.0,0.0,0.0,0.0,0.0,0.0,0.0,0.0,0.0,0.0,0.0,0.0,0.0,0.0,0.0,0.0,0.0,0.0,0.0,0.0,0.0,0.0,0.0,0.0,0.0,0.0,0.0,0.0,0.0,0.0,0.0,0.0,0.0,0.0,0.0,0.0,0.0,0.0,0.0,0.0,0.0,0.0,0.0,0.0,0.0,0.0,0.0,0.0,0.0,0.0,0.0,0.0,0.0,0.0,0.0,0.0,0.0,0.0,0.0,0.0,0.0,0.0,0.0,0.0,0.0,0.0,0.0,0.0,0.0,0.0,0.0,0.0,0.0,0.0,0.0,0.0,0.0,0.0,0.6322,0.5218,0.413,0.3096,0.3978,0.4455,0.0,0.0,0.0,0.0,0.0,0.0,0.0,0.0,0.0,0.0,0.0,0.0,0.0,0.0,0.0,0.0,0.0,0.0,0.0,0.0,0.0,0.0,0.0,0.0,0.0,0.0,0.0,0.0,0.0,0.0,0.0,0.0,0.0,0.0,0.0,0.0,0.0,0.0,0.0,0.0,0.0,0.0,0.0,0.0,0.0,0.0,0.0,0.0,0.0,0.0,0.0,0.0,0.0,0.0,0.0,0.0,0.0,0.0,0.0,0.0,0.0,0.0,0.0,0.0,0.0,0.0,0.0,0.0,0.0,0.0,0.0,0.0,0.0,0.0,0.0,0.0,0.0,0.0,0.0,0.0,0.0,0.0,0.0,0.0,0.0,0.0,0.0,0.0,0.0,0.0,0.0,0.0,0.0,0.0,0.0,0.0,0.0,0.0,0.0,0.0,0.0,0.0,0.0,0.0,0.0,0.0,0.0,0.0,0.0,0.6482,0.5635,0.5057,0.4921,0.4086,0.3679,0.0,0.0,0.0,0.0,0.0,0.0,0.0,0.0,0.0,0.0,0.0,0.0,0.0,0.0,0.0,0.0,0.0,0.0,0.0,0.0,0.0,0.0,0.0,0.0,0.0,0.0,0.0,0.0,0.0,0.0,0.0,0.0,0.0,0.0,0.0,0.0,0.0,0.0,0.0,0.0,0.0,0.0,0.0,0.0,0.0,0.0,0.0,0.0,0.0,0.0,0.0,0.0,0.0,0.0,0.0,0.0,0.0,0.0,0.0,0.0,0.0,0.0,0.0,0.0,0.0,0.0,0.0,0.0,0.0,0.0,0.0,0.0,0.0,0.0,0.0,0.0,0.0,0.0,0.0,0.0,0.0,0.0,0.0,0.0,0.0,0.0,0.0,0.0,0.0,0.0,0.0,0.0,0.0,0.0,0.0,0.0,0.0,0.0,0.0,0.0,0.0,0.0,0.0,0.0,0.0,0.0,0.0,0.0,0.4649,0.5807,0.5562,0.5511,0.5768,0.466,0.3829,0.0,0.0,0.0,0.0,0.0,0.0,0.0,0.0,0.0,0.0,0.0,0.0,0.0,0.0,0.0,0.0,0.0,0.0,0.0,0.0,0.0,0.0,0.0,0.0,0.0,0.0,0.0,0.0,0.0,0.0,0.0,0.0,0.0,0.0,0.0,0.0,0.0,0.0,0.0,0.0,0.0,0.0,0.0,0.0,0.0,0.0,0.0,0.0,0.0,0.0,0.0,0.0,0.0,0.0,0.0,0.0,0.0,0.0,0.0,0.0,0.0,0.0,0.0,0.0,0.0,0.0,0.0,0.0,0.0,0.0,0.0,0.0,0.0,0.0,0.0,0.0,0.0,0.0,0.0,0.0,0.0,0.0,0.0,0.0,0.0,0.0,0.0,0.0,0.0,0.0,0.0,0.0,0.0,0.0,0.0,0.0,0.0,0.0,0.0,0.0,0.0,0.0,0.0,0.0,0.0,0.0,0.0,0.0,0.4095,0.4677,0.519,0.556,0.5776,0.5342,0.4536,0.0,0.0,0.0,0.0,0.0,0.0,0.0,0.0,0.0,0.0,0.0,0.0,0.0,0.0,0.0,0.0,0.0,0.0,0.0,0.0,0.0,0.0,0.0,0.0,0.0,0.0,0.0,0.0,0.0,0.0,0.0,0.0,0.0,0.0,0.0,0.0,0.0,0.0,0.0,0.0,0.0,0.0,0.0,0.0,0.0,0.0,0.0,0.0,0.0,0.0,0.0,0.0,0.0,0.0,0.0,0.0,0.0,0.0,0.0,0.0,0.0,0.0,0.0,0.0,0.0,0.0,0.0,0.0,0.0,0.0,0.0,0.0,0.0,0.0,0.0,0.0,0.0,0.0,0.0,0.0,0.0,0.0,0.0,0.0,0.0,0.0,0.0,0.0,0.0,0.0,0.0,0.0,0.0,0.0,0.0,0.0,0.0,0.0,0.0,0.0,0.0,0.0,0.0,0.0,0.0,0.0,0.0,0.0,0.3689,0.4657,0.4972,0.5129,0.5173,0.5111,0.4736,0.0,0.0,0.0,0.0,0.0,0.0,0.0,0.0,0.0,0.0,0.0,0.0,0.0,0.0,0.0,0.0,0.0,0.0,0.0,0.0,0.0,0.0,0.0,0.0,0.0,0.0,0.0,0.0,0.0,0.0,0.0,0.0,0.0,0.0,0.0,0.0,0.0,0.0,0.0,0.0,0.0,0.0,0.0,0.0,0.0,0.0,0.0,0.0,0.5482,0.0,0.0,0.0,0.0,0.0,0.0,0.0,0.0,0.0,0.0,0.0,0.0,0.0,0.0,0.0,0.0,0.0,0.0,0.0,0.0,0.0,0.0,0.0,0.0,0.0,0.0,0.0,0.0,0.0,0.0,0.0,0.0,0.0,0.0,0.0,0.0,0.0,0.0,0.0,0.0,0.0,0.0,0.0,0.0,0.0,0.0,0.0,0.0,0.0,0.0,0.0,0.0,0.0,0.0,0.0,0.0,0.0,0.0,0.0,0.3808,0.4203,0.4416,0.4501,0.4522,0.4409,0.4333,0.0,0.0,0.0,0.0,0.0,0.0,0.0,0.0,0.0,0.0,0.0,0.0,0.0,0.0,0.0,0.0,0.0,0.0,0.0,0.0,0.0,0.0,0.0,0.0,0.0,0.0,0.0,0.0,0.0,0.0,0.0,0.0,0.0,0.0,0.0,0.0,0.0,0.0,0.0,0.0,0.0,0.0,0.0,0.0,0.0,0.0,0.0,0.0,0.0,0.0,0.0,0.0,0.0,0.0,0.0,0.0,0.0,0.0,0.0,0.0,0.0,0.0,0.0,0.0,0.0,0.0,0.0,0.0,0.0,0.0,0.0,0.0,0.0,0.0,0.0,0.0,0.0,0.0,0.0,0.0,0.0,0.0,0.0,0.0,0.0,0.0,0.0,0.0,0.0,0.0,0.0,0.0,0.0,0.0,0.0,0.0,0.0,0.0,0.0,0.0,0.0,0.0,0.0,0.0,0.0,0.0,0.0,0.3992,0.402,0.3703,0.3748,0.3796,0.3833,0.344,0.3522,0.4113,0.0,0.0,0.0,0.0,0.0,0.0,0.0,0.0,0.0,0.0,0.0,0.0,0.0,0.0,0.0,0.0,0.0,0.0,0.0,0.0,0.0,0.0,0.0,0.0,0.0,0.0,0.0,0.0,0.0,0.0,0.0,0.0,0.0,0.0,0.0,0.0,0.0,0.0,0.6752,0.6547,0.0,0.0,0.0,0.0,0.0,0.0,0.0,0.0,0.5444,0.0,0.0,0.0,0.0,0.0,0.0,0.0,0.0,0.0,0.0,0.0,0.0,0.0,0.0,0.0,0.0,0.0,0.0,0.0,0.0,0.0,0.0,0.0,0.0,0.0,0.0,0.0,0.0,0.0,0.0,0.0,0.0,0.0,0.0,0.0,0.0,0.0,0.0,0.0,0.0,0.0,0.0,0.0,0.0,0.0,0.0,0.0,0.0,0.0,0.0,0.0,0.0,0.0,0.0,0.0,0.0,0.3596,0.3626,0.3591,0.3521,0.334,0.3199,0.3062,0.2407,0.2372,0.2923,0.0,0.0,0.0,0.0,0.0,0.0,0.0,0.0,0.0,0.0,0.0,0.0,0.0,0.0,0.0,0.0,0.0,0.0,0.0,0.0,0.0,0.0,0.0,0.0,0.0,0.0,0.0,0.0,0.0,0.0,0.0,0.0,0.0,0.0,0.0,0.0,0.0,0.0,0.0,0.5547,0.5582,0.0,0.0,0.0,0.0,0.0,0.0,0.0,0.0,0.4913,0.0,0.0,0.0,0.0,0.0,0.0,0.0,0.0,0.0,0.0,0.0,0.0,0.0,0.0,0.0,0.0,0.0,0.0,0.0,0.0,0.0,0.0,0.0,0.0,0.0,0.0,0.0,0.0,0.0,0.0,0.0,0.0,0.0,0.0,0.0,0.0,0.0,0.0,0.0,0.0,0.0,0.0,0.0,0.0,0.0,0.0,0.0,0.0,0.0,0.0,0.0,0.0,0.0,0.0,0.0,0.3205,0.3395,0.3501,0.3487,0.3169,0.2864,0.2631,0.1335,0.0766,0.0,0.0,0.0,0.0,0.0,0.0,0.0,0.0,0.0,0.0,0.0,0.0,0.0,0.0,0.0,0.0,0.0,0.0,0.0,0.0,0.0,0.0,0.0,0.0,0.0,0.0,0.0,0.0,0.0,0.0,0.0,0.0,0.0,0.0,0.0,0.0,0.0,0.0,0.0,0.0,0.5255,0.5167,0.5241,0.0,0.0,0.0,0.0,0.0,0.0,0.4654,0.4668,0.0,0.0,0.0,0.0,0.0,0.0,0.0,0.0,0.0,0.0,0.0,0.0,0.0,0.0,0.0,0.0,0.0,0.0,0.0,0.0,0.0,0.0,0.0,0.0,0.0,0.0,0.0,0.0,0.0,0.0,0.0,0.0,0.0,0.0,0.0,0.0,0.0,0.0,0.0,0.0,0.0,0.0,0.0,0.0,0.0,0.0,0.0,0.0,0.0,0.0,0.0,0.0,0.0,0.0,0.0,0.2825,0.3368,0.3565,0.334,0.3046,0.2647,0.21,0.051,-0.0576,0.0,0.0,0.0,0.0,0.0,0.0,0.0,0.0,0.0,0.0,0.0,0.0,0.0,0.0,0.0,0.0,0.0,0.0,0.0,0.0,0.0,0.0,0.0,0.0,0.0,0.0,0.0,0.0,0.0,0.0,0.0,0.0,0.0,0.0,0.0,0.0,0.0,0.0,0.0,0.0,0.0,0.4918,0.5135,0.4174,0.0,0.0,0.0,0.0,0.4521,0.4487,0.0,0.0,0.0,0.0,0.0,0.0,0.0,0.0,0.0,0.0,0.0,0.0,0.0,0.0,0.0,0.0,0.0,0.0,0.0,0.0,0.0,0.0,0.0,0.0,0.0,0.0,0.0,0.0,0.0,0.0,0.0,0.0,0.0,0.0,0.0,0.0,0.0,0.0,0.0,0.0,0.0,0.0,0.0,0.0,0.0,0.0,0.0,0.0,0.0,0.0,0.0,0.0,0.0,0.0,0.0,0.0,0.28,0.3749,0.3733,0.2837,0.2859,0.2307,0.1114,0.0396,-0.0928,0.0,0.0,0.0,0.0,0.0,0.0,0.0,0.0,0.0,0.0,0.0,0.0,0.0,0.0,0.0,0.0,0.0,0.0,0.0,0.0,0.0,0.0,0.0,0.0,0.0,0.0,0.0,0.0,0.0,0.0,0.0,0.0,0.0,0.0,0.0,0.0,0.0,0.0,0.0,0.0,0.0,0.4408,0.4733,0.4623,0.442,0.0,0.0,0.4812,0.4037,0.4822,0.0,0.0,0.0,0.0,0.0,0.0,0.0,0.0,0.0,0.0,0.0,0.0,0.0,0.0,0.0,0.0,0.0,0.0,0.0,0.0,0.0,0.0,0.0,0.0,0.0,0.0,0.0,0.0,0.0,0.0,0.0,0.0,0.0,0.0,0.0,0.0,0.0,0.0,0.0,0.0,0.0,0.0,0.0,0.0,0.0,0.0,0.0,0.0,0.0,0.0,0.0,0.0,0.0,0.0,0.0,0.1833,0.2887,0.3232,0.3233,0.295,0.2826,0.2283,0.1262,-0.0113,-0.0893,0.0,0.0,0.0,0.0,0.0,0.0,0.0,0.0,0.0,0.0,0.0,0.0,0.0,0.0,0.0,0.0,0.0,0.0,0.0,0.0,0.0,0.0,0.0,0.0,0.0,0.0,0.0,0.0,0.0,0.0,0.0,0.0,0.0,0.0,0.0,0.0,0.0,0.0,0.0,0.0,0.0,0.0,0.4065,0.4515,0.0,0.0,0.0,0.4449,0.4127,0.0,0.0,0.0,0.0,0.0,0.0,0.0,0.0,0.0,0.0,0.0,0.0,0.0,0.0,0.0,0.0,0.0,0.0,0.0,0.0,0.0,0.0,0.0,0.0,0.0,0.0,0.0,0.0,0.0,0.0,0.0,0.0,0.0,0.0,0.0,0.0,0.0,0.0,0.0,0.0,0.0,0.0,0.0,0.0,0.0,0.0,0.0,0.0,0.0,0.0,0.0,0.0,0.0,0.0,0.0,0.0,0.0,0.2712,0.2711,0.2757,0.2869,0.2701,0.2236,0.1432,-0.0249,0.0,0.0,0.0,0.0,0.0,0.0,0.0,0.0,0.0,0.0,0.0,0.0,0.0,0.0,0.0,0.0,0.0,0.0,0.0,0.0,0.0,0.0,0.0,0.0,0.0,0.0,0.0,0.8043,0.0,0.0,0.0,0.0,0.0,0.0,0.0,0.0,0.0,0.0,0.0,0.0,0.0,0.0,0.5205,0.3997,0.4588,0.5006,0.0,0.0,0.435,0.4604,0.5073,0.5277,0.0,0.0,0.0,0.0,0.0,0.0,0.0,0.0,0.0,0.0,0.0,0.0,0.0,0.0,0.0,0.0,0.0,0.0,0.0,0.0,0.0,0.0,0.0,0.0,0.0,0.0,0.0,0.0,0.0,0.0,0.0,0.0,0.0,0.0,0.0,0.0,0.0,0.0,0.0,0.0,0.0,0.0,0.0,0.0,0.0,0.0,0.0,0.0,0.0,0.0,0.0,0.0,0.0,0.0,0.0,0.2053,0.2455,0.2569,0.228,0.2368,0.2019,0.1239,0.0469,-0.0853,0.0,0.0,0.0,0.0,0.0,0.0,0.0,0.0,0.0,0.0,0.0,0.0,0.0,0.0,0.0,0.0,0.0,0.0,0.0,0.0,0.0,0.0,0.0,0.0,0.0,0.0,0.0,0.0,0.0,0.0,0.0,0.0,0.0,0.0,0.0,0.0,0.0,0.0,0.0,0.0,0.0,0.5571,0.505,0.5165,0.5506,0.0,0.0,0.487,0.5498,0.5751,0.5569,0.4707,0.0,0.0,0.0,0.0,0.0,0.0,0.0,0.0,0.0,0.0,0.0,0.0,0.0,0.0,0.0,0.0,0.0,0.0,0.0,0.0,0.0,0.0,0.0,0.0,0.0,0.0,0.0,0.0,0.0,0.0,0.0,0.0,0.0,0.0,0.0,0.0,0.0,0.0,0.0,0.0,0.0,0.0,0.0,0.0,0.0,0.0,0.0,0.0,0.0,0.0,0.0,0.0,0.0,0.2812,0.2053,0.2106,0.2191,0.2314,0.2259,0.2143,0.2001,0.0654,-0.0197,0.0,0.0,0.0,0.0,0.0,0.0,0.0,0.0,0.0,0.0,0.0,0.0,0.0,0.0,0.0,0.0,0.0,0.0,0.0,0.0,0.0,0.0,0.0,0.0,0.0,0.0,0.0,0.0,0.5146,0.4878,0.4967,0.0,0.0,0.0,0.0,0.0,0.0,0.0,0.0,0.0,0.0,0.5754,0.5833,0.6379,0.0,0.0,0.6197,0.5936,0.5571,0.5808,0.5697,0.471,0.5333,0.0,0.0,0.0,0.0,0.0,0.0,0.0,0.0,0.0,0.0,0.0,0.0,0.0,0.0,0.0,0.0,0.0,0.0,0.0,0.0,0.0,0.0,0.0,0.0,0.0,0.0,0.0,0.0,0.0,0.0,0.0,0.0,0.0,0.0,0.0,0.0,0.0,0.0,0.0,0.0,0.0,0.0,0.0,0.0,0.0,0.0,0.0,0.0,0.0,0.0,0.0,0.0,0.1843,0.1917,0.1909,0.2061,0.2328,0.2182,0.2204,0.2319,0.1126,0.0782,0.0,0.0,0.0,0.0,0.0,0.0,0.0,0.0,0.0,0.0,0.0,0.0,0.0,0.0,0.0,0.0,0.0,0.0,0.0,0.0,0.0,0.0,0.0,0.0,0.0,0.0,0.0,0.0,0.385,0.3746,0.429,0.0,0.0,0.0,0.0,0.0,0.0,0.0,0.0,0.0,0.0,0.6115,0.6115,0.6766,0.703,0.6474,0.6336,0.6152,0.5718,0.5731,0.5501,0.4724,0.0,0.0,0.0,0.0,0.0,0.0,0.0,0.0,0.0,0.0,0.0,0.0,0.0,0.0,0.0,0.0,0.0,0.0,0.0,0.0,0.0,0.0,0.0,0.0,0.0,0.0,0.0,0.0,0.0,0.0,0.6291,0.0,0.0,0.0,0.0,0.0,0.0,0.0,0.0,0.0,0.0,0.0,0.0,0.0,0.0,0.0,0.0,0.0,0.0,0.0,0.0,0.0,0.0,0.1257,0.1503,0.1962,0.2198,0.2207,0.2207,0.2159,0.214,0.2134,0.2024,0.1802,0.0,0.0,0.0,0.0,0.0,0.0,0.0,0.0,0.0,0.0,0.0,0.0,0.0,0.0,0.0,0.0,0.0,0.0,0.0,0.0,0.0,0.0,0.0,0.0,0.0,0.0,0.4031,0.3329,0.3223,0.0,0.0,0.0,0.0,0.0,0.0,0.0,0.0,0.0,0.0,0.6681,0.6726,0.5872,0.5952,0.6254,0.6408,0.5621,0.5254,0.6058,0.5549,0.4928,0.0,0.0,0.0,0.0,0.0,0.0,0.0,0.0,0.0,0.0,0.0,0.0,0.0,0.0,0.0,0.0,0.0,0.0,0.0,0.0,0.0,0.0,0.0,0.0,0.0,0.0,0.0,0.3366,0.3932,0.0,0.0,0.0,0.0,0.0,0.0,0.0,0.0,0.0,0.0,0.0,0.3108,0.2604,0.0,0.0,0.0,0.0,0.0,0.0,0.0,0.0,0.0,0.0,0.0,0.0,0.0914,0.1335,0.2109,0.2481,0.2358,0.2332,0.2378,0.2509,0.2544,0.2573,0.2625,0.0,0.0,0.0,0.0,0.0,0.0,0.0,0.0,0.0,0.0,0.0,0.0,0.0,0.0,0.0,0.0,0.0,0.0,0.0,0.0,0.0,0.0,0.0,0.0,0.0,0.3656,0.0,0.0,0.0,0.0,0.0,0.0,0.0,0.0,0.0,0.0,0.0,0.6166,0.5959,0.58,0.5813,0.6127,0.6223,0.6573,0.0,0.0,0.0,0.0,0.0,0.0,0.0,0.0,0.0,0.0,0.0,0.0,0.0,0.0,0.5705,0.5273,0.6149,0.6761,0.6174,0.0,0.0,0.0,0.0,0.0,0.0,0.0,0.0,0.0,0.0,0.0,0.0,0.0,0.0,0.1309,0.0,0.1577,0.0,0.0,0.0,0.0,0.0,0.0,0.0,0.0,0.2533,0.2238,0.2327,0.2366,0.1477,0.0,0.0043,0.0219,0.0,0.0,0.0,0.0,0.0,0.0,0.0,0.0,0.0466,0.1274,0.2203,0.2649,0.2477,0.2194,0.2235,0.2666,0.2086,0.2229,0.3224,0.1962,0.0877,0.0,0.0,0.0,0.0,0.0,0.0,0.0,0.0,0.0,0.0,0.0,0.0,0.0,0.0,0.0,0.0,0.0,0.0,0.0,0.0,0.0,0.0,0.0,0.2435,0.0,0.0,0.0,0.0,0.0,0.0,0.0,0.0,0.0,0.5997,0.6101,0.6035,0.5692,0.5569,0.5574,0.5748,0.0,0.0,0.0,0.0,0.0,0.0,0.0,0.541,0.431,0.6273,0.7309,0.5358,0.5348,0.5493,0.5094,0.0,0.0,0.5023,0.6001,0.672,0.6201,0.5845,0.5573,0.5199,0.4931,0.4626,0.0,0.0,0.0,0.0,0.0,0.0,0.0,0.0,-0.2047,-0.2028,0.0,-0.1851,0.0,0.0,0.0,0.0,0.0,-0.0209,0.0,0.0,0.2961,0.2224,0.0039,-0.0078,0.0508,0.1534,-0.0041,-0.0127,0.1104,0.1513,0.0,0.0,0.0,0.0,0.0,0.0,0.0037,0.1357,0.2256,0.2696,0.2663,0.1809,0.1747,0.2508,0.091,0.1096,0.3306,0.335,0.2403,0.0196,0.0343,0.0,0.0,0.0,0.0,0.0,0.0,0.0,0.0,0.0,0.0,0.0,0.0,0.0,0.0,0.0,0.0,0.0,0.0,0.0,0.0,0.2667,0.0,0.0,0.0,0.0,0.0,0.0,0.0,0.0,0.0,0.0,0.723,0.6548,0.5731,0.5378,0.0,0.0,0.0,0.0,0.5478,0.4492,0.4226,0.4202,0.4297,0.4398,0.4416,0.4173,0.0,0.0,0.4434,0.4168,0.3963,0.4047,0.4832,0.5224,0.4713,0.5627,0.6276,0.5682,0.5544,0.5435,0.5066,0.4519,0.3879,-0.3863,0.0,0.0,0.0,0.0,-0.367,-0.3482,-0.3061,-0.3315,-0.3188,-0.2788,-0.2681,0.0,0.0,0.0,0.0,0.0,0.0,-0.1069,-0.012,0.0492,-0.0,-0.1301,-0.2161,-0.1913,-0.082,-0.0985,-0.0569,0.0351,0.1303,0.1092,-0.0227,0.0,0.0,0.0,0.0,0.0767,0.114,0.2165,0.27,0.2676,0.2432,0.1787,0.0808,0.0278,0.0323,0.0998,0.1035,0.1147,0.1263,0.055,0.0,0.0,0.0,0.0,0.0,0.0,0.0,0.0,0.0,0.0,0.0,0.0,0.0,0.0,0.0,0.0,0.0,0.0,0.0,0.3617,0.193,0.108,0.0,0.0,0.0,0.0,0.0,0.0,0.0,0.0,0.0,0.4408,0.4741,0.4728,0.0,0.0,0.3635,0.405,0.4288,0.4697,0.5488,0.4367,0.0,0.0,0.4783,0.4024,0.3676,0.3834,0.4168,0.4596,0.478,0.4805,0.4642,0.5022,0.5129,0.4626,0.5311,0.5918,0.5741,0.5473,0.5327,0.5368,0.5076,0.4824,-0.4258,-0.4599,-0.4617,-0.4542,-0.441,-0.4508,-0.4274,-0.3867,-0.4177,-0.4037,-0.3669,-0.3766,-0.3902,-0.4,-0.3619,0.0,0.0,0.0,-0.2307,-0.171,-0.1442,-0.1673,-0.234,-0.3204,-0.3229,-0.2516,-0.2273,-0.1916,-0.1425,-0.0525,-0.0439,-0.1117,0.0,0.0,-0.0883,0.0156,0.0778,0.1057,0.1413,0.1633,0.1639,0.1637,0.1089,-0.0,-0.0,-0.0,-0.0,-0.0,0.0343,0.1039,0.0407,-0.0124,0.0,0.0,0.0,0.0,0.0,0.0,0.0,0.0,0.0,0.0,0.0,0.6228,0.0,0.0,0.0,0.0,0.3851,0.2541,0.2204,0.1115,0.0,0.0,0.0,0.0,0.0,0.0,0.0,0.277,0.2286,0.207,0.2423,0.3292,0.3853,0.3754,0.3365,0.3266,0.3694,0.0,0.44,0.5009,0.4333,0.4067,0.4826,0.4242,0.3609,0.3501,0.375,0.4018,0.4204,0.4491,0.4574,0.4452,0.4496,0.45,0.4155,0.464,0.5069,0.5105,0.4973,0.4932,0.5178,0.4935,0.467,-0.4675,-0.5968,-0.549,-0.5197,-0.5096,-0.4943,-0.466,-0.4295,-0.468,-0.4696,-0.4413,-0.5037,-0.5266,-0.5197,-0.441,0.0,-0.289,-0.347,-0.3391,-0.2805,-0.2725,-0.2916,-0.3257,-0.3578,-0.3738,-0.3727,-0.3745,-0.3681,-0.3541,-0.3144,-0.2973,-0.2954,-0.2413,-0.1881,-0.1342,-0.0558,0.019,0.0839,0.0182,-0.0182,-0.0293,-0.0183,-0.015,-0.0,-0.0036,-0.0,-0.0,-0.0,-0.0188,-0.0,-0.0,-0.0,-0.0,0.0,0.0,0.0,0.0,0.0,0.0,0.0,0.0,0.0,0.0,0.0,0.0,0.0,0.0,0.0,0.256,0.0,0.0569,0.0465,0.0,0.0,0.0,0.2282,0.2959,0.2266,0.199,0.2551,0.0,0.0,0.1229,0.2091,0.2911,0.3428,0.3854,0.3959,0.359,0.413,0.4337,0.3582,0.4142,0.4382,0.3647,0.3342,0.3329,0.3543,0.3578,0.3619,0.3622,0.3622,0.3622,0.3656,0.3622,0.3619,0.3622,0.3757,0.3816,0.399,0.4183,0.4424,0.4604,0.4237,0.3869,-0.5914,-0.7167,-0.6728,-0.6025,-0.5222,-0.4702,-0.4711,-0.5009,-0.4664,-0.4726,-0.5072,-0.5262,-0.5053,-0.4577,-0.4405,-0.4002,-0.3423,-0.3884,-0.4007,-0.379,-0.3046,-0.3392,-0.4626,-0.4809,-0.4907,-0.489,-0.4899,-0.4443,-0.3646,-0.3477,-0.3476,-0.3471,-0.2472,-0.2125,-0.2441,-0.1632,-0.1211,-0.1122,-0.1303,-0.1811,-0.2695,-0.1844,-0.1388,-0.1366,-0.0495,-0.0757,-0.2271,-0.2609,-0.1888,-0.0,-0.0,-0.0,-0.0,-0.0,0.0,0.0,0.0,0.0,0.0,0.0,0.0,0.0,0.0,0.4225,0.3576,0.0,0.6753,0.0,0.1687,0.1274,0.1771,0.112,0.0,0.0,0.1725,0.2277,0.2342,0.2403,0.2086,0.1054,0.0561,0.036,0.0651,0.0815,0.114,0.1782,0.2329,0.2887,0.3625,0.3482,0.3264,0.3224,0.3753,0.4206,0.4211,0.3843,0.349,0.3612,0.3578,0.3578,0.3578,0.3578,0.3578,0.3578,0.3578,0.3578,0.3578,0.3612,0.3639,0.3683,0.3844,0.3958,0.412,0.3904,0.3638,-0.5624,-0.6789,-0.6641,-0.6327,-0.5949,-0.569,-0.5658,-0.5842,-0.5647,-0.5599,-0.5744,-0.5953,-0.5599,-0.4778,-0.4275,-0.3987,-0.3898,-0.4094,-0.4324,-0.4473,-0.3936,-0.4211,-0.5126,-0.5745,-0.5796,-0.5303,-0.5308,-0.4995,-0.4382,-0.4073,-0.3865,-0.3666,-0.2973,-0.2831,-0.3199,-0.276,-0.2576,-0.2664,-0.2592,-0.2921,-0.3547,-0.2942,-0.265,-0.27,-0.1991,-0.2137,-0.3335,-0.2955,-0.234,-0.1455,-0.0506,-0.0,-0.0,-0.0,-0.0398,0.0,0.0,0.0,0.0,0.0,0.0,0.0,0.0,0.0,0.0,0.0,0.5055,0.0694,0.0497,0.0868,0.1429,0.0721,0.03,0.0501,0.1071,0.1603,0.1932,0.2652,0.2756,0.1926,0.0758,0.0085,0.0269,0.0307,0.0563,0.1198,0.2152,0.2805,0.2892,0.281,0.2928,0.3444,0.3817,0.4038,0.4191,0.3911,0.3698,0.3595,0.3578,0.3578,0.3578,0.3578,0.3578,0.3578,0.3578,0.3578,0.3578,0.3578,0.3711,0.4028,0.4126,0.4084,0.3899,0.4203,0.4397,-0.4803,-0.5863,-0.6049,-0.6379,-0.6888,-0.7052,-0.6975,-0.6784,-0.6943,-0.6772,-0.6398,-0.6868,-0.6453,-0.5389,-0.4384,-0.4091,-0.4326,-0.4435,-0.4702,-0.5055,-0.5142,-0.5256,-0.5465,-0.6553,-0.6603,-0.5651,-0.5651,-0.5608,-0.552,-0.4905,-0.4313,-0.3799,-0.3663,-0.3644,-0.3674,-0.3702,-0.3721,-0.3695,-0.3621,-0.3622,-0.3581,-0.362,-0.369,-0.3854,-0.3719,-0.3651,-0.3683,-0.2564,-0.2255,-0.2995,-0.1387,-0.0411,-0.0371,-0.0324,-0.0829,0.0,-0.1926,0.0,0.0,0.0,0.0,0.0,0.0,0.0,0.0,0.3664,0.2581,-0.111,-0.0668,-0.0049,0.0389,-0.0047,-0.0141,0.03,0.0346,0.0679,0.1486,0.2492,0.3163,0.3116,0.1264,-0.0,-0.0,0.0143,0.0512,0.1088,0.2345,0.2976,0.2362,0.2644,0.3294,0.4117,0.4113,0.4028,0.3856,0.3849,0.3896,0.39,0.376,0.3653,0.3791,0.3684,0.3578,0.3578,0.3578,0.3626,0.3667,0.3667,0.3884,0.4578,0.4888,0.481,0.422,0.4749,0.5245,-0.5375,-0.6172,-0.6482,-0.6858,-0.7236,-0.757,-0.7696,-0.76,-0.7254,-0.7151,-0.7249,-0.7381,-0.6893,-0.6013,-0.5819,-0.5487,-0.5124,-0.5837,-0.6055,-0.5971,-0.6381,-0.6756,-0.7051,-0.7536,-0.7636,-0.7423,-0.7382,-0.7189,-0.6754,-0.6039,-0.5424,-0.4796,-0.4118,-0.3822,-0.3919,0.0,0.0,0.0,-0.3746,-0.3691,-0.3605,-0.3722,-0.3738,-0.3681,-0.3751,0.0,-0.371,-0.3612,-0.3219,-0.2582,-0.2555,0.0,0.0,0.0,0.0,0.0,0.0,0.0,0.0,0.0,0.0,0.0,-0.035,-0.0098,0.0095,0.0732,0.0709,-0.0213,-0.0905,-0.0912,-0.0,-0.0,-0.005,0.005,-0.0,0.016,0.0353,-0.0,0.0666,0.0678,-0.0,-0.0,-0.0,0.0051,0.01,0.0436,0.1546,0.2616,0.3229,0.3599,0.4053,0.4367,0.4295,0.4237,0.428,0.4223,0.4546,0.5245,0.4521,0.4125,0.4463,0.4047,0.3626,0.3622,0.3622,0.3796,0.4132,0.388,0.3968,0.4961,0.591,0.6252,0.5221,0.5164,0.5577,-0.5034,0.0,-0.592,-0.6251,0.0,-0.744,-0.7797,-0.7778,-0.7607,-0.76,-0.7695,-0.759,-0.723,-0.6651,-0.6651,-0.6469,-0.6191,-0.6649,-0.6921,-0.7038,-0.7024,-0.7267,-0.7702,-0.8125,-0.8201,-0.7929,-0.7929,-0.7732,-0.7487,-0.6852,-0.64,-0.6086,-0.5362,-0.5038,-0.5084,-0.4315,-0.3832,-0.3652,-0.3807,-0.3931,-0.3938,-0.39,-0.3858,-0.376,0.0,0.0,0.0,0.0,0.0,0.0,0.0,0.0,0.0,0.0,0.0,-0.2618,-0.1744,-0.1389,-0.192,-0.1973,-0.1569,-0.0797,-0.1864,-0.2239,-0.1481,-0.1146,-0.0674,-0.0056,-0.0522,-0.0602,-0.0,-0.0,-0.0,-0.0,-0.0,-0.0,-0.0,-0.0,-0.0,-0.0,-0.0,-0.0,-0.0,-0.0,-0.0,0.0962,0.1685,0.2678,0.3771,0.4216,0.4367,0.4494,0.4443,0.4345,0.4484,0.4869,0.5184,0.5672,0.5392,0.5108,0.5232,0.467,0.4133,0.4168,0.4456,0.4762,0.453,0.4487,0.4709,0.5593,0.6649,0.7152,0.6341,0.6267,0.6696,-0.4463,-0.4574,-0.5218,-0.5483,-0.5592,-0.7063,-0.7777,-0.7913,0.0,0.0,0.0,-0.7846,-0.7573,-0.7248,-0.7242,-0.7248,-0.7248,-0.7297,-0.7538,-0.7888,-0.7502,-0.7569,-0.8016,-0.856,-0.8532,-0.8083,-0.8083,-0.8034,-0.8034,-0.7486,-0.7187,-0.7132,-0.6586,-0.6222,-0.6167,-0.5016,-0.438,-0.43,-0.4533,-0.4794,-0.5059,-0.4554,-0.4224,-0.4221,-0.3927,-0.389,-0.4164,-0.4164,-0.4081,-0.3872,-0.2878,-0.2626,-0.318,-0.1711,-0.1376,-0.2491,-0.1003,-0.0531,-0.1721,-0.2155,-0.1853,-0.0672,-0.3035,-0.3963,-0.2691,-0.2601,-0.2122,-0.0895,-0.054,-0.0371,-0.0375,-0.0,-0.0376,-0.039,-0.0379,-0.0,-0.0,-0.0,-0.0,-0.0,-0.0,-0.0,-0.0,-0.0,0.0415,0.158,0.225,0.301,0.4177,0.4487,0.4494,0.4512,0.4498,0.4567,0.4952,0.5487,0.5998,0.6324,0.6292,0.6154,0.5992,0.5409,0.4983,0.4781,0.5404,0.551,0.5067,0.5135,0.561,0.6221,0.7109,0.7682,0.7295,0.7348,0.7727,-0.4463,-0.4574,-0.5218,-0.5483,-0.5647,-0.7069,-0.8043,-0.8639,-0.8659,-0.8544,-0.8317,-0.831,-0.8121,-0.7786,-0.778,-0.778,-0.7793,-0.8085,-0.8127,0.0,-0.8336,-0.8493,-0.838,-0.8629,-0.8743,-0.8684,-0.8684,-0.8684,-0.8573,-0.7979,-0.7612,-0.753,-0.6767,-0.6406,-0.6355,-0.6041,-0.6212,-0.6873,-0.72,-0.7605,-0.8139,-0.6155,-0.5241,-0.5433,-0.4567,-0.4099,-0.4143,-0.4264,-0.414,-0.3745,-0.3938,-0.3956,-0.3667,-0.3758,-0.2845,-0.0664,-0.0166,-0.0111,-0.0,-0.0,-0.0335,-0.028,-0.2807,-0.4376,-0.422,-0.4187,-0.4092,-0.379,-0.2599,-0.188,-0.1883,-0.1882,-0.1885,-0.1896,-0.1887,-0.1437,-0.0332,-0.0,-0.0,-0.0,-0.0,-0.0,-0.0,-0.0,-0.0,-0.0,0.2481,0.4213,0.4375,0.4512,0.4463,0.4463,0.4463,0.5007,0.5823,0.6367,0.6983,0.8199,0.7166,0.6694,0.7121,0.6558,0.5896,0.5339,0.5662,0.5784,0.5712,0.5771,0.6142,0.674,0.741,0.7635,0.7528,0.7709,0.7896,-0.4567,-0.4628,-0.4879,-0.4948,-0.5058,-0.6475,-0.7509,-0.8209,-0.8646,-0.8738,-0.8617,-0.8604,-0.8537,-0.8417,-0.841,-0.8404,-0.841,-0.855,-0.853,-0.843,-0.8684,-0.8738,-0.8624,-0.8744,-0.8804,-0.8804,-0.8804,-0.8804,-0.8752,-0.848,-0.8315,-0.8256,-0.7862,-0.7703,-0.7703,-0.7616,-0.7777,-0.8132,-0.8287,-0.8514,-0.8763,-0.6985,-0.5945,-0.5798,-0.4877,-0.4339,-0.4307,-0.4426,-0.436,-0.4155,-0.4372,-0.4381,-0.417,-0.4381,-0.3641,-0.1782,-0.0615,-0.0,-0.0,-0.0,-0.0,-0.0,-0.1231,-0.2805,-0.4399,-0.4501,-0.448,-0.4463,-0.3846,-0.3461,-0.3469,-0.3474,-0.3421,-0.3471,-0.3471,-0.3188,-0.2404,-0.0837,-0.0,-0.0,-0.0,-0.0,-0.0,-0.0,-0.0,-0.0,0.2615,0.4399,0.4484,0.4473,0.4467,0.4463,0.4519,0.4901,0.5873,0.7122,0.783,0.8209,0.7945,0.7753,0.7999,0.7573,0.7188,0.6696,0.6613,0.6717,0.6786,0.6625,0.6829,0.7322,0.7729,0.7889,0.7815,0.8103,0.833,-0.4639,-0.4677,-0.4584,-0.468,-0.5066,-0.5932,-0.6853,-0.7723,-0.8164,-0.8356,-0.8404,-0.8513,-0.8533,-0.8533,-0.8533,-0.8646,-0.8752,-0.8804,-0.8804,-0.8804,-0.8804,-0.8804,-0.8804,-0.8804,-0.8804,-0.8804,-0.8804,-0.8804,-0.8804,-0.8804,-0.8804,-0.8804,-0.8804,-0.8804,-0.8804,-0.8804,-0.8804,-0.8811,-0.8805,-0.8784,-0.8745,-0.7494,-0.6588,-0.6046,-0.519,-0.4652,-0.4515,-0.4463,-0.4463,-0.4463,-0.4463,-0.4463,-0.4463,-0.4484,-0.4147,-0.3289,-0.1899,-0.0839,-0.0502,-0.0168,-0.0,-0.0,-0.0,-0.1008,-0.3154,-0.3816,-0.4138,-0.4408,-0.4467,-0.4418,-0.4428,-0.4432,-0.449,-0.449,-0.449,-0.4376,-0.4268,-0.2404,-0.067,-0.0,-0.0,-0.0,-0.0,-0.0,-0.0,-0.0,0.2077,0.354,0.4258,0.448,0.4473,0.4467,0.4463,0.4787,0.5487,0.7063,0.799,0.7723,0.8262,0.8482,0.8493,0.8477,0.8357,0.79,0.7742,0.7643,0.7669,0.7443,0.7397,0.7689,0.7996,0.821,0.8147,0.8357,0.8631,-0.4677,-0.4667,-0.4535,-0.5226,-0.6218,-0.5882,-0.6421,-0.7543,-0.7295,-0.7105,-0.714,-0.7601,-0.7794,-0.7777,-0.7836,-0.8156,-0.8752,-0.8804,-0.8804,-0.8804,-0.8804,-0.8804,-0.8804,-0.8804,-0.8804,-0.8804,-0.8804,-0.8804,-0.8804,-0.8804,-0.8804,-0.8804,-0.8804,-0.8804,-0.8804,-0.8804,-0.8804,-0.8804,-0.8811,-0.8804,-0.8725,-0.8037,-0.7289,-0.6534,-0.5814,-0.5105,-0.4515,-0.4463,-0.4463,-0.4463,-0.4463,-0.4463,-0.4463,-0.4484,-0.4435,-0.4366,-0.4147,-0.353,-0.212,-0.0726,-0.0,-0.0,-0.0,-0.0168,-0.0617,-0.168,-0.3016,-0.4073,-0.4415,-0.4473,-0.4467,-0.4467,-0.447,-0.448,-0.4477,-0.4477,-0.4445,-0.4274,-0.3023,-0.0,-0.0,-0.0,-0.0,-0.0,-0.0,-0.0,-0.0,0.1677,0.3585,0.4373,0.4477,0.4467,0.4463,0.4787,0.5542,0.6578,0.7557,0.7777,0.8321,0.8666,0.8724,0.8724,0.8704,0.843,0.8377,0.8196,0.8116,0.7989,0.7736,0.7876,0.8143,0.843,0.8597,0.853,0.847,-0.4663,-0.4806,-0.466,-0.5216,-0.6052,-0.6328,-0.6723,-0.7245,-0.7635,-0.7269,-0.6452,-0.6606,-0.6904,-0.7212,-0.7572,-0.7883,-0.8156,-0.8586,-0.8804,-0.8804,-0.8804,-0.8804,-0.8804,-0.8804,-0.8804,-0.8804,-0.8804,-0.8804,-0.8804,-0.8804,-0.8804,-0.8804,-0.8804,-0.8804,-0.8804,-0.8804,-0.8804,-0.8804,-0.8804,-0.8804,-0.8699,-0.8103,-0.7343,-0.6588,-0.5923,-0.5218,-0.457,-0.4463,-0.4463,-0.4463,-0.4463,-0.4463,-0.4463,-0.447,-0.4473,-0.447,-0.4477,-0.4203,-0.3585,-0.2965,-0.2235,-0.1395,-0.1284,-0.095,-0.0112,-0.0559,-0.1506,-0.2899,-0.3959,-0.4467,-0.4463,-0.4463,-0.4467,-0.448,-0.4484,-0.4487,-0.4501,-0.4448,-0.3881,-0.2695,-0.0,-0.0,-0.0,-0.0,-0.0,-0.0,-0.0,-0.0,-0.0,0.3302,0.4428,0.4473,0.4467,0.5007,0.5873,0.6799,0.7563,0.8156,0.8586,0.8804,0.8804,0.8804,0.8758,0.8604,0.8484,0.844,0.8353,0.8136,0.7963,0.813,0.8377,0.8677,0.8791,0.8684,0.8677,-0.4745,-0.4891,-0.5033,-0.556,-0.6249,-0.6654,-0.6884,-0.7024,-0.7403,-0.6838,-0.5823,-0.5762,-0.5992,-0.6429,-0.6972,-0.74,-0.7829,-0.8315,-0.8658,-0.8765,-0.8804,-0.8804,-0.8804,-0.8804,-0.8804,-0.8804,-0.8804,-0.8804,-0.8804,-0.8804,-0.8804,-0.8804,-0.8804,-0.8804,-0.8804,-0.8804,-0.8804,-0.8804,-0.8804,-0.8699,-0.8368,-0.7777,-0.7241,-0.6761,-0.5987,-0.5164,-0.4515,-0.4463,-0.4463,-0.4463,-0.4463,-0.4463,-0.4463,-0.4463,-0.4463,-0.4463,-0.447,-0.4477,-0.4487,-0.449,-0.4033,-0.3014,-0.2847,-0.2402,-0.1511,-0.1229,-0.1729,-0.2788,-0.3846,-0.4463,-0.4463,-0.4463,-0.4467,-0.4477,-0.4484,-0.4373,-0.3922,-0.3875,-0.3652,-0.3142,-0.112,-0.0,-0.0,-0.0,-0.0,-0.0,-0.0,-0.0,-0.0,0.1899,0.3413,0.4311,0.4473,0.4901,0.5882,0.6367,0.7235,0.7996,0.8321,0.8804,0.8804,0.8804,0.8798,0.8677,0.8544,0.8497,0.853,0.8357,0.823,0.8617,0.8798,0.8791,0.8804,0.8798,0.8798,-0.5033,-0.5043,-0.58,-0.6442,-0.7161,-0.651,-0.6625,-0.7111,-0.598,-0.5244,-0.5248,-0.5185,-0.5178,-0.5276,-0.5921,-0.6744,-0.7757,-0.7958,-0.8355,-0.8818,-0.8791,-0.8765,-0.8804,-0.8804,-0.8824,-0.8878,-0.8858,-0.8831,-0.8811,-0.8804,-0.8804,-0.8804,-0.8824,-0.8818,-0.8811,-0.8785,-0.8824,-0.8838,-0.8858,-0.8447,-0.7622,-0.7031,-0.6905,-0.7095,-0.6105,-0.5113,-0.4577,-0.4463,-0.4463,-0.4463,-0.4463,-0.4463,-0.4463,-0.4463,-0.4463,-0.4463,-0.4463,-0.4463,-0.4467,-0.4484,-0.4435,-0.4317,-0.4231,-0.4274,-0.3925,-0.3866,-0.3919,-0.4294,-0.4353,-0.4463,-0.4463,-0.4463,-0.4463,-0.4473,-0.447,-0.3907,-0.2623,-0.2794,-0.1675,-0.0894,-0.056,-0.0,-0.0,-0.0,-0.0,-0.0,-0.0,-0.0,-0.0,-0.0,0.1563,0.3416,0.4255,0.4529,0.4684,0.5437,0.6036,0.6853,0.7937,0.8699,0.8752,0.8804,0.8784,0.8778,0.8731,0.8724,0.8771,0.8758,0.8697,0.8804,0.8804,0.8804,0.8804,0.8804,0.8804,-0.5023,-0.5053,-0.5359,-0.5906,-0.652,-0.6405,-0.6463,-0.6538,-0.6285,-0.5788,-0.5343,-0.5281,-0.5277,-0.5343,-0.5481,-0.6294,-0.7486,-0.7987,-0.8636,-0.9253,-0.8983,-0.8989,-0.9365,-0.9365,-0.9365,-0.9345,-0.9172,-0.8985,-0.8818,-0.8804,-0.8804,-0.8844,-0.8998,-0.8998,-0.8844,-0.8809,-0.8899,-0.9064,-0.9265,-0.919,-0.8708,-0.7687,-0.6937,-0.6616,-0.5493,-0.4727,-0.4488,-0.4511,-0.4504,-0.4485,-0.4514,-0.4463,-0.4463,-0.4463,-0.4463,-0.4463,-0.4463,-0.4463,-0.4473,-0.4562,-0.4616,-0.4619,-0.4711,-0.467,-0.4518,-0.4473,-0.4473,-0.447,-0.4467,-0.4463,-0.4463,-0.4463,-0.4467,-0.4473,-0.4477,-0.4307,-0.3863,-0.3641,-0.3081,-0.1961,-0.2184,-0.2519,-0.162,-0.1396,-0.1061,-0.0,-0.0,-0.0,-0.0,-0.0,0.0447,0.1396,0.2456,0.3405,0.4487,0.5066,0.576,0.6465,0.7331,0.8043,0.8321,0.8699,0.8745,0.8791,0.8804,0.8804,0.8798,0.8798,0.8804,0.8804,0.8804,0.8804,0.8804,0.8804,0.8804,-0.5074,-0.5257,-0.5521,-0.5898,-0.634,-0.6468,-0.6468,-0.6353,-0.6282,-0.5943,-0.5491,-0.5428,-0.5428,-0.5428,-0.5428,-0.5826,-0.6757,-0.7667,-0.8681,-0.9628,-0.9292,-0.9292,-0.9686,-0.9887,-0.988,-0.9717,-0.9486,-0.9239,-0.8998,-0.9045,-0.9038,-0.8978,-0.9239,-0.9232,-0.8956,-0.8865,-0.8966,-0.9401,-0.9642,-0.9586,-0.9176,-0.7927,-0.6733,-0.5893,-0.5038,-0.4653,-0.4637,-0.4606,-0.4565,-0.449,-0.4532,-0.4573,-0.4525,-0.4463,-0.4463,-0.4463,-0.4463,-0.4487,-0.4594,-0.469,-0.4769,-0.4762,-0.485,-0.4816,-0.4626,-0.4524,-0.4608,-0.4718,-0.4538,-0.4463,-0.4463,-0.4463,-0.4463,-0.447,-0.4473,-0.4473,-0.4484,-0.4487,-0.3987,-0.3309,-0.3697,-0.3805,-0.3186,-0.3019,-0.2514,-0.1507,-0.1116,-0.0726,-0.0727,-0.0726,-0.0725,-0.0613,0.0278,0.2007,0.3357,0.4125,0.4652,0.5412,0.6086,0.6907,0.7949,0.8328,0.8699,0.8752,0.8804,0.8804,0.8804,0.8804,0.8804,0.8804,0.8804,0.8804,0.8804,0.8804,0.8804,-0.5223,-0.5484,-0.633,-0.6506,-0.6563,-0.6563,-0.6641,-0.6445,-0.5811,-0.5491,-0.5428,-0.5428,-0.5428,-0.5428,-0.5446,-0.5474,-0.5925,-0.7053,-0.8337,-0.9597,-0.9708,-0.9728,-0.9912,-1.0279,-1.0224,-0.9733,-0.9693,-0.9532,-0.9265,-0.9466,-0.9472,-0.9283,-0.9539,-0.9532,-0.919,-0.9055,-0.9208,-0.9784,-0.9855,-0.9398,-0.8498,-0.7697,-0.6637,-0.5543,-0.515,-0.4985,-0.4928,-0.4897,-0.4756,-0.4607,-0.4691,-0.4673,-0.4497,-0.447,-0.4463,-0.4519,-0.4522,-0.4601,-0.4721,-0.4769,-0.4862,-0.4894,-0.4931,-0.4955,-0.4897,-0.4707,-0.481,-0.5143,-0.4906,-0.4577,-0.4521,-0.4514,-0.4494,-0.4463,-0.4463,-0.4467,-0.4467,-0.447,-0.448,-0.4317,-0.4477,-0.4473,-0.4432,-0.4262,-0.3978,-0.3752,-0.3016,-0.2232,-0.2233,-0.2235,-0.2232,-0.2174,-0.1671,-0.039,0.1394,0.2963,0.3503,0.4039,0.4663,0.5445,0.6864,0.7628,0.8103,0.8315,0.8752,0.8752,0.8533,0.854,0.8752,0.8804,0.8804,0.8752,0.8804,0.8804,0.8804,-0.5379,-0.5566,-0.5733,-0.5818,-0.5815,-0.5818,-0.5815,-0.5818,-0.5491,-0.5428,-0.5428,-0.5428,-0.5428,-0.5456,-0.5464,-0.5845,-0.6431,-0.7039,-0.8127,-0.9548,-1.0125,-1.0494,-1.0792,-1.0676,-1.0384,-1.0013,-0.9987,-0.9833,-0.9613,-0.9646,-0.9626,-0.9613,-0.9833,-0.982,-0.9528,-0.9468,-0.9663,-1.0039,-1.0248,-1.0146,-0.9897,-0.9001,-0.8053,-0.7157,-0.648,-0.5857,-0.5274,-0.4928,-0.491,-0.5095,-0.4799,-0.4548,-0.4495,-0.4462,-0.4463,-0.4529,-0.4713,-0.4738,-0.4748,-0.4897,-0.4999,-0.507,-0.5155,-0.5216,-0.5223,-0.5191,-0.5205,-0.5415,-0.524,-0.4971,-0.4588,-0.4627,-0.4629,-0.4543,-0.4463,-0.4477,-0.4473,-0.447,-0.4467,-0.447,-0.4467,-0.4467,-0.4473,-0.4477,-0.4497,-0.4477,-0.403,-0.3699,-0.3761,-0.3585,-0.3758,-0.3755,-0.3357,-0.2959,-0.1505,0.0167,0.122,0.2325,0.3335,0.4408,0.5782,0.6603,0.7182,0.7818,0.8309,0.848,0.8262,0.8427,0.8699,0.8752,0.8699,0.8699,0.8752,0.8804,0.8804,-0.5535,-0.5644,-0.5508,-0.5447,-0.5437,-0.5389,-0.5428,-0.5428,-0.5428,-0.5428,-0.5369,-0.5426,-0.5443,-0.5477,-0.5603,-0.6014,-0.6646,-0.6966,-0.7967,-0.949,-1.0511,-1.1069,-1.1349,-1.0955,-1.0568,-1.0327,-1.0281,-1.0127,-0.986,-0.9947,-0.9953,-0.9907,-1.014,-1.0134,-0.9907,-0.9952,-1.0063,-1.0126,-1.0424,-1.0593,-1.0382,-0.9611,-0.8908,-0.8398,-0.7437,-0.6379,-0.5498,-0.549,-0.5482,-0.5196,-0.4837,-0.4706,-0.4838,-0.484,-0.4808,-0.4775,-0.4862,-0.4963,-0.4965,-0.504,-0.5162,-0.522,-0.5308,-0.5422,-0.5425,-0.5428,-0.5428,-0.5428,-0.5408,-0.5199,-0.4849,-0.4768,-0.4777,-0.4653,-0.4663,-0.4609,-0.4565,-0.4549,-0.4522,-0.4484,-0.4565,-0.4618,-0.4553,-0.4589,-0.4562,-0.4567,-0.4573,-0.4521,-0.4518,-0.4432,-0.4487,-0.4484,-0.4196,-0.403,-0.4209,-0.2847,-0.1223,0.0389,0.1947,0.3347,0.4802,0.5136,0.5622,0.6573,0.7267,0.7391,0.723,0.8262,0.8752,0.8692,0.8421,0.8699,0.8804,0.8804,0.8804,-0.5684,-0.5789,-0.5661,-0.5603,-0.5579,-0.545,-0.5459,-0.5449,-0.5386,-0.5456,-0.5483,-0.5538,-0.5527,-0.5487,-0.5678,-0.6036,-0.6334,-0.7009,-0.7884,-0.9238,-1.0431,-1.1121,-1.1471,-1.1263,-1.0942,-1.0681,-1.0705,-1.0474,-1.0241,-1.0428,-1.0434,-1.02,-1.0381,-1.0428,-1.0234,-1.0428,-1.0428,-1.0234,-1.0465,-1.0609,-1.0541,-0.9619,-0.9021,-0.9192,-0.7957,-0.6685,-0.5715,-0.663,-0.6591,-0.5191,-0.4947,-0.5043,-0.5325,-0.5381,-0.5254,-0.51,-0.5121,-0.5151,-0.5111,-0.5152,-0.5213,-0.5325,-0.5415,-0.5428,-0.5428,-0.5428,-0.5428,-0.5428,-0.5428,-0.5322,-0.5109,-0.5047,-0.4937,-0.4915,-0.487,-0.4823,-0.4701,-0.4615,-0.4473,-0.4518,-0.4701,-0.4857,-0.4687,-0.4789,-0.4741,-0.4674,-0.4657,-0.4589,-0.4507,-0.447,-0.4463,-0.4467,-0.447,-0.4477,-0.4373,-0.4027,-0.2558,-0.1893,-0.0334,0.1001,0.2567,0.2961,0.4314,0.5277,0.5905,0.6081,0.6578,0.7391,0.7824,0.7503,0.7723,0.8427,0.8533,0.8315,0.8546,-0.5833,-0.5949,-0.581,-0.5745,-0.5725,-0.5589,-0.5532,-0.5532,-0.5528,-0.56,-0.5631,-0.5684,-0.5745,-0.5762,-0.5901,-0.5973,-0.636,-0.7194,-0.8169,-0.9185,-0.9622,-1.0783,-1.1729,-1.1729,-1.1388,-1.1209,-1.1136,-1.1049,-1.0788,-1.0808,-1.0708,-1.0461,-1.0501,-1.0591,-1.0537,-1.0577,-1.0584,-1.0524,-1.051,-1.0607,-1.0528,-1.0292,-0.9832,-0.925,-0.8678,-0.739,-0.5971,-0.8177,-0.8109,-0.5375,-0.5203,-0.5243,-0.5244,-0.5343,-0.5297,-0.5199,-0.5226,-0.5315,-0.5284,-0.5294,-0.5321,-0.5418,-0.5428,-0.5428,-0.5428,-0.5428,-0.5428,-0.5428,-0.5425,-0.5397,-0.5322,-0.5298,-0.5254,-0.5243,-0.5081,-0.4897,-0.4821,-0.4639,-0.4463,-0.4511,-0.4985,-0.5104,-0.5094,-0.4992,-0.4986,-0.5009,-0.487,-0.466,-0.4555,-0.4553,-0.457,-0.4532,-0.4525,-0.447,-0.4415,-0.4298,-0.4018,-0.3863,-0.3077,-0.2347,-0.1004,-0.0223,0.2011,0.4132,0.4226,0.4391,0.5214,0.6081,0.6091,0.6322,0.6519,0.695,0.7122,0.7074,0.78,-0.5986,-0.6112,-0.5962,-0.5898,-0.5878,-0.5742,-0.5681,-0.5677,-0.5677,-0.5681,-0.5785,-0.5833,-0.5898,-0.5911,-0.6499,-0.6802,-0.712,-0.796,-0.8983,-0.9884,-1.0507,-1.1269,-1.2079,-1.2043,-1.1794,-1.1456,-1.1436,-1.1256,-1.1022,-1.0995,-1.0828,-1.0595,-1.0618,-1.0618,-1.0555,-1.0595,-1.0595,-1.0575,-1.0588,-1.0601,-1.0561,-1.0618,-1.0364,-0.9919,-0.9652,-0.8762,-0.8084,-0.9584,-0.893,-0.6125,-0.5346,-0.5377,-0.5281,-0.5298,-0.537,-0.526,-0.537,-0.5425,-0.5428,-0.5428,-0.5428,-0.5428,-0.5428,-0.5428,-0.5428,-0.5428,-0.5428,-0.5428,-0.5428,-0.5428,-0.5428,-0.5428,-0.5428,-0.5401,-0.5203,-0.5116,-0.4996,-0.4834,-0.4674,-0.4765,-0.5106,-0.5428,-0.5428,-0.5196,-0.5213,-0.5243,-0.5067,-0.484,-0.4653,-0.4666,-0.4639,-0.4632,-0.4611,-0.4565,-0.4514,-0.4428,-0.4363,-0.432,-0.4209,-0.3869,-0.321,-0.2194,0.0056,0.2237,0.2462,0.2907,0.3727,0.4553,0.5187,0.5407,0.5386,0.5425,0.5701,0.6268,0.6993,-0.6135,-0.6247,-0.6112,-0.6054,-0.603,-0.5891,-0.5827,-0.5827,-0.5827,-0.5827,-0.5861,-0.5986,-0.6051,-0.6136,-0.6855,-0.7944,-0.8737,-0.9089,-0.989,-1.0875,-1.1607,-1.2091,-1.1585,-1.2114,-1.185,-1.1351,-1.1322,-1.1109,-1.0831,-1.0801,-1.0548,-1.0198,-1.018,-1.0277,-1.0231,-1.038,-1.0586,-1.0469,-1.0509,-1.0597,-1.0581,-1.0618,-1.0498,-1.0491,-1.0428,-1.0364,-1.0117,-1.0264,-0.8868,-0.5963,-0.5738,-0.5785,-0.5679,-0.5599,-0.5418,-0.5408,-0.5415,-0.5428,-0.5428,-0.5428,-0.5428,-0.5428,-0.5428,-0.5428,-0.5428,-0.5428,-0.5442,-0.5413,-0.5439,-0.5428,-0.5435,-0.5439,-0.5406,-0.547,-0.5439,-0.5291,-0.5209,-0.5064,-0.4965,-0.4975,-0.522,-0.5397,-0.5428,-0.5428,-0.5425,-0.5315,-0.5165,-0.4999,-0.4836,-0.4779,-0.4758,-0.4807,-0.4779,-0.4684,-0.4656,-0.4507,-0.4497,-0.4494,-0.4432,-0.4212,-0.3801,-0.2717,-0.1066,-0.0,-0.0,-0.0,0.1952,0.2843,0.3749,0.4196,0.4058,0.4275,0.4604,0.5395,0.6178,-0.623,-0.6257,-0.6227,-0.6213,-0.6186,-0.6047,-0.5979,-0.5979,-0.5983,-0.5979,-0.6017,-0.6142,-0.62,-0.621,-0.6777,-0.8236,-1.0554,-1.0052,-1.0271,-1.1855,-1.2149,-1.131,-1.0654,-1.1254,-1.1633,-1.1034,-1.0906,-1.0761,-1.042,-0.9797,-0.9179,-0.8959,-0.9162,-0.888,-0.907,-1.0109,-1.027,-0.994,-1.0299,-1.0594,-1.0601,-1.0601,-1.0608,-1.0588,-1.0581,-1.0575,-1.034,-0.9492,-0.8705,-0.8271,-0.7663,-0.7082,-0.647,-0.583,-0.5452,-0.5452,-0.5446,-0.5442,-0.5435,-0.5456,-0.5435,-0.5459,-0.5466,-0.5428,-0.5428,-0.5442,-0.5494,-0.5481,-0.544,-0.5473,-0.5403,-0.5481,-0.5525,-0.5518,-0.545,-0.545,-0.5559,-0.5413,-0.5257,-0.5264,-0.5367,-0.5428,-0.5428,-0.5428,-0.5422,-0.5404,-0.5254,-0.5125,-0.504,-0.4962,-0.4928,-0.4914,-0.488,-0.4833,-0.4714,-0.4683,-0.4656,-0.4613,-0.4606,-0.4555,-0.4189,-0.3397,-0.1774,-0.0,-0.0,-0.0,-0.0,0.0894,0.1677,0.2178,-0.0,0.3023,0.3477,0.4425,0.4912,-0.6261,-0.6261,-0.6261,-0.6567,-0.6857,-0.6398,-0.6435,-0.6662,-0.6287,-0.6139,-0.6152,-0.6311,-0.6257,-0.6335,-0.7011,-0.8574,-1.0155,-1.079,-1.1228,-1.2188,-1.214,-1.0663,-0.8374,-0.897,-0.9515,-0.9873,-1.011,-0.9903,-0.951,-0.9145,-0.8734,-0.8488,-0.8564,-0.8669,-0.8634,-0.9769,-1.0167,-0.989,-1.0436,-1.0876,-1.0655,-1.0842,-1.0823,-1.0685,-1.073,-1.0842,-1.0902,-0.9744,-0.9519,-0.9513,-0.881,-0.7611,-0.6625,-0.5931,-0.5614,-0.5511,-0.5549,-0.5566,-0.5569,-0.5569,-0.5579,-0.5562,-0.5566,-0.5525,-0.5501,-0.5488,-0.5545,-0.5518,-0.5566,-0.5703,-0.5576,-0.5641,-0.5706,-0.5661,-0.5579,-0.5669,-0.5775,-0.5614,-0.5428,-0.5428,-0.5418,-0.5428,-0.5428,-0.5442,-0.5439,-0.5432,-0.5415,-0.5237,-0.5247,-0.5169,-0.5098,-0.5064,-0.5033,-0.4965,-0.484,-0.4762,-0.4724,-0.4769,-0.4766,-0.4733,-0.4591,-0.3722,-0.264,-0.0,-0.0,-0.0,-0.0,-0.0,-0.0,-0.0,-0.0,-0.0,0.2159,0.278,0.321,-0.6261,-0.6338,-0.6493,-0.7022,-0.7629,-0.7092,-0.7318,-0.7778,-0.6945,-0.6623,-0.649,-0.6412,-0.6261,-0.656,-0.7842,-0.8429,-0.9331,-1.0714,-1.1845,-1.2273,-1.1696,-0.9685,-0.7335,-0.6935,-0.7479,-0.8761,-0.8993,-0.8876,-0.8694,-0.8475,-0.801,-0.8054,-0.8332,-0.8164,-0.8356,-0.9108,-0.9559,-0.9433,-1.059,-1.1198,-1.0915,-1.1156,-1.1101,-1.0721,-1.1029,-1.092,-1.0654,-0.9927,-0.9653,-1.0359,-0.8928,-0.7425,-0.6384,-0.5851,-0.5844,-0.5762,-0.58,-0.5772,-0.5749,-0.5769,-0.5772,-0.58,-0.5789,-0.5739,-0.5657,-0.5589,-0.5566,-0.5727,-0.5827,-0.5915,-0.5817,-0.5847,-0.5772,-0.5793,-0.5745,-0.5823,-0.5946,-0.571,-0.5634,-0.5406,-0.5459,-0.5442,-0.5459,-0.548,-0.547,-0.5459,-0.5446,-0.5432,-0.5435,-0.5408,-0.5247,-0.5209,-0.5182,-0.5084,-0.4955,-0.4863,-0.4833,-0.4874,-0.4907,-0.4947,-0.4942,-0.4487,-0.3456,-0.1905,-0.0,-0.0,-0.0,-0.0,-0.0,-0.0,-0.0,-0.0,-0.0,-0.0,-0.0,-0.6261,-0.6335,-0.7176,-0.7629,-0.7931,-0.8466,-0.8841,-0.8841,-0.8012,-0.7553,-0.7403,-0.6641,-0.6244,-0.6721,-0.8286,-0.9478,-1.0099,-1.087,-1.1291,-1.1452,-1.0674,-0.8489,-0.682,-0.6294,-0.6623,-0.6865,-0.7557,-0.7977,-0.7732,-0.7202,-0.6995,-0.6771,-0.6836,-0.6829,-0.6889,-0.706,-0.7986,-0.9016,-1.0509,-1.132,-1.1152,-1.1248,-1.1162,-1.0722,-1.1096,-1.0798,-0.9735,-0.8934,-0.8365,-0.7892,-0.7084,-0.6594,-0.6259,-0.6208,-0.6135,-0.6173,-0.6003,-0.5928,-0.5867,-0.583,-0.581,-0.58,-0.583,-0.582,-0.5732,-0.5613,-0.5674,-0.5871,-0.6013,-0.6091,-0.5833,-0.5898,-0.5962,-0.5956,-0.5905,-0.5895,-0.6149,-0.6139,-0.5884,-0.564,-0.5511,-0.5487,-0.5535,-0.5583,-0.5607,-0.5521,-0.5477,-0.544,-0.5413,-0.5452,-0.5397,-0.5321,-0.5394,-0.5203,-0.507,-0.4986,-0.4931,-0.502,-0.502,-0.5057,-0.5135,-0.5267,-0.4355,-0.3065,-0.0,-0.0,-0.0,-0.0,-0.0,-0.0,-0.0,-0.0,-0.0,-0.0,-0.0,-0.7859,-0.7931,-0.8389,-0.8841,-0.9286,-0.9291,-0.9593,-0.9895,-0.8988,-0.8237,-0.7592,-0.6692,-0.6246,-0.6678,-0.7849,-0.9135,-0.9879,-1.004,-0.9739,-0.9301,-0.9123,-0.8205,-0.6458,-0.6328,-0.6257,-0.6412,-0.6795,-0.7022,-0.7026,-0.6641,-0.6338,-0.6331,-0.6261,-0.6261,-0.6331,-0.6458,-0.6972,-0.836,-1.0302,-1.1323,-1.0786,-1.1086,-1.1025,-1.0734,-1.071,-1.0201,-0.901,-0.836,-0.8005,-0.7744,-0.6908,-0.6405,-0.6261,-0.6261,-0.6261,-0.6328,-0.6246,-0.6095,-0.6044,-0.604,-0.6047,-0.6044,-0.6034,-0.5993,-0.5945,-0.5895,-0.5908,-0.6064,-0.6067,-0.6101,-0.6051,-0.6101,-0.6139,-0.6139,-0.6071,-0.6108,-0.621,-0.6251,-0.6078,-0.5833,-0.5691,-0.5679,-0.5672,-0.5717,-0.5688,-0.5657,-0.5586,-0.5521,-0.5464,-0.5406,-0.5428,-0.5425,-0.5425,-0.537,-0.5196,-0.5142,-0.5074,-0.515,-0.5167,-0.5205,-0.5192,-0.5318,-0.5335,-0.4708,-0.0,-0.0,-0.0,-0.0,-0.0,-0.0,-0.0,-0.0,-0.0,-0.0,-0.0,-0.9296,-0.9296,-0.9523,-1.004,-1.064,-1.0196,-1.0346,-1.0789,-0.982,-0.8841,-0.7973,-0.6675,-0.6091,-0.6576,-0.7534,-0.8562,-0.9221,-0.9145,-0.8291,-0.7681,-0.7957,-0.7667,-0.6729,-0.6261,-0.6261,-0.6338,-0.6335,-0.6261,-0.6412,-0.6338,-0.6416,-0.656,-0.6483,-0.6483,-0.6637,-0.6468,-0.6829,-0.7974,-0.9471,-1.0341,-1.045,-1.0624,-1.1003,-1.057,-1.0363,-0.9453,-0.797,-0.7936,-0.7829,-0.7525,-0.6898,-0.6261,-0.6261,-0.6261,-0.6288,-0.6407,-0.6298,-0.6264,-0.6251,-0.624,-0.621,-0.6207,-0.6244,-0.6183,-0.6139,-0.6135,-0.622,-0.623,-0.6156,-0.6105,-0.6196,-0.6247,-0.6251,-0.6247,-0.6244,-0.6257,-0.6251,-0.6251,-0.6217,-0.6023,-0.594,-0.5806,-0.5803,-0.5735,-0.5766,-0.5769,-0.5705,-0.5583,-0.5515,-0.541,-0.5432,-0.5428,-0.5428,-0.5425,-0.5387,-0.5373,-0.526,-0.5315,-0.5322,-0.5339,-0.5308,-0.5362,-0.5348,-0.5193,-0.0,-0.0,-0.0,-0.0,-0.0,-0.0,-0.0,-0.0,-0.0,-0.0,-0.0,-0.9296,-0.9372,-1.0265,-1.0714,-1.0938,-1.1545,-1.1929,-1.1848,-1.0201,-0.9296,-0.8903,-0.7061,-0.6163,-0.6343,-0.7544,-0.8528,-0.8846,-0.8313,-0.7936,-0.7706,-0.7261,-0.6806,-0.6338,-0.6261,-0.6261,-0.6261,-0.6261,-0.6261,-0.6338,-0.6338,-0.6791,-0.7246,-0.6919,-0.6674,-0.7322,-0.6692,-0.6816,-0.7507,-0.7439,-0.8392,-1.0068,-0.9988,-1.0519,-1.0962,-1.0265,-0.8618,-0.7141,-0.7336,-0.7517,-0.6813,-0.6563,-0.6274,-0.6261,-0.6261,-0.6417,-0.6485,-0.6437,-0.6261,-0.6278,-0.6264,-0.6261,-0.6261,-0.6261,-0.6251,-0.623,-0.6224,-0.6261,-0.6257,-0.622,-0.6213,-0.6247,-0.6257,-0.6261,-0.6261,-0.6261,-0.6261,-0.6261,-0.6257,-0.6224,-0.6213,-0.6057,-0.602,-0.6006,-0.5911,-0.5833,-0.5837,-0.5813,-0.5694,-0.5599,-0.5521,-0.5457,-0.5474,-0.5528,-0.5521,-0.542,-0.5413,-0.5515,-0.5474,-0.5437,-0.543,-0.5426,-0.5437,-0.5382,-0.5077,-0.4145,-0.334,-0.0,-0.0,-0.0,-0.0,-0.0,-0.0,-0.0,-0.0,-0.0,-1.1306,-1.1025,-1.1471,-1.1613,-1.1694,-1.215,-1.2305,-1.215,-1.1403,-1.0351,-0.9295,-0.8184,-0.7025,-0.6332,-0.6847,-0.7638,-0.8084,-0.748,-0.7407,-0.7718,-0.6876,-0.6261,-0.6261,-0.6261,-0.6261,-0.6261,-0.6261,-0.6261,-0.6416,-0.6872,-0.7476,-0.7706,-0.7944,-0.7863,-0.7885,-0.6853,-0.6623,-0.6853,-0.7234,-0.8138,-0.9357,-0.9599,-0.9706,-1.0528,-0.9261,-0.7778,-0.6894,-0.677,-0.7016,-0.6561,-0.6464,-0.6417,-0.6305,-0.6298,-0.6444,-0.6885,-0.6675,-0.6488,-0.6396,-0.6315,-0.6281,-0.6264,-0.6264,-0.6257,-0.6257,-0.6261,-0.6261,-0.6261,-0.6261,-0.6261,-0.6261,-0.6261,-0.6261,-0.6261,-0.6261,-0.6261,-0.6261,-0.6261,-0.6251,-0.6257,-0.6254,-0.619,-0.6142,-0.6095,-0.6027,-0.6027,-0.5986,-0.5881,-0.5803,-0.5742,-0.5684,-0.5647,-0.5616,-0.5583,-0.5535,-0.5511,-0.5649,-0.5653,-0.5671,-0.5644,-0.5559,-0.5525,-0.5471,-0.5406,-0.5008,-0.4002,-0.282,-0.0,-0.0,-0.0,-0.0,-0.0,-0.0,-0.0,-0.0,-1.2826,-1.2425,-1.2412,-1.2412,-1.2405,-1.2103,-1.1922,-1.1848,-1.1242,-1.0196,-0.9135,-0.8226,-0.7134,-0.6207,-0.6208,-0.6795,-0.7322,-0.6644,-0.6795,-0.6949,-0.6799,-0.6335,-0.6261,-0.6261,-0.6261,-0.6261,-0.6261,-0.6261,-0.6578,-0.7211,-0.7842,-0.8174,-0.874,-0.8822,-0.8108,-0.7207,-0.6613,-0.6563,-0.7021,-0.7675,-0.8304,-0.8452,-0.9128,-0.9249,-0.849,-0.7161,-0.6574,-0.6596,-0.6678,-0.6627,-0.6742,-0.6719,-0.6583,-0.6593,-0.6715,-0.6987,-0.6841,-0.6692,-0.6569,-0.6468,-0.6438,-0.6346,-0.6312,-0.6315,-0.6261,-0.6261,-0.6261,-0.6261,-0.6261,-0.6261,-0.6261,-0.6261,-0.6261,-0.6261,-0.6261,-0.6261,-0.6261,-0.6261,-0.6261,-0.6261,-0.6261,-0.6261,-0.623,-0.6244,-0.623,-0.6224,-0.6159,-0.6054,-0.5973,-0.5898,-0.583,-0.5762,-0.5739,-0.5664,-0.5545,-0.5613,-0.5768,-0.5839,-0.5865,-0.5748,-0.5708,-0.5627,-0.5566,-0.5566,-0.5511,-0.5138,-0.4293,-0.3675,-0.0,-0.0,-0.0,-0.0,-0.0,-0.0,-0.0,-1.2835,-1.2878,-1.2719,-1.2623,-1.2583,-1.1415,-1.0932,-1.0714,-0.9059,-0.838,-0.7982,-0.6973,-0.6482,-0.6078,-0.6156,-0.6416,-0.6493,-0.6338,-0.6644,-0.6644,-0.6338,-0.6335,-0.6412,-0.6412,-0.6261,-0.6261,-0.6261,-0.6261,-0.6525,-0.7242,-0.8203,-0.9133,-0.9531,-0.9473,-0.8699,-0.7556,-0.6844,-0.6635,-0.6756,-0.6663,-0.6813,-0.7099,-0.8236,-1.0159,-0.8571,-0.6621,-0.6718,-0.6788,-0.6837,-0.6841,-0.6966,-0.7037,-0.6932,-0.6929,-0.7041,-0.7044,-0.689,-0.6865,-0.6803,-0.663,-0.6556,-0.6576,-0.6542,-0.6396,-0.6352,-0.6274,-0.6271,-0.6312,-0.6346,-0.6322,-0.6302,-0.6264,-0.6291,-0.6261,-0.6261,-0.6261,-0.6261,-0.6261,-0.6261,-0.6261,-0.6261,-0.6261,-0.6261,-0.6261,-0.6261,-0.6247,-0.6203,-0.6101,-0.604,-0.5969,-0.5905,-0.585,-0.5837,-0.5732,-0.559,-0.5677,-0.5929,-0.6033,-0.6044,-0.5925,-0.581,-0.5742,-0.5708,-0.565,-0.5616,-0.5734,-0.5681,-0.4885,-0.4543,-0.5132,-0.4648,-0.2957,-0.0,-0.0,-0.0,-1.1623,-1.0692,-1.0902,-1.1224,-1.1464,-1.038,-0.9895,-0.9744,-0.9069,-0.8236,-0.7551,-0.6736,-0.6176,-0.6108,-0.6259,-0.6644,-0.7022,-0.649,-0.7099,-0.733,-0.7099,-0.6795,-0.6795,-0.6641,-0.6261,-0.6261,-0.6342,-0.64,-0.6479,-0.7012,-0.7709,-0.8622,-0.9903,-0.9732,-0.8941,-0.7558,-0.6976,-0.6848,-0.6606,-0.6337,-0.6301,-0.6288,-0.7017,-0.8015,-0.7886,-0.6694,-0.6876,-0.6901,-0.6902,-0.6966,-0.7075,-0.7119,-0.7139,-0.7139,-0.7139,-0.7139,-0.7037,-0.6944,-0.691,-0.6793,-0.6654,-0.6661,-0.6627,-0.6529,-0.6441,-0.6417,-0.6425,-0.6451,-0.6435,-0.6491,-0.6441,-0.6447,-0.6376,-0.6298,-0.6261,-0.6261,-0.6261,-0.6261,-0.6261,-0.6261,-0.6261,-0.6261,-0.6261,-0.6261,-0.6261,-0.6254,-0.6207,-0.6159,-0.6108,-0.6078,-0.6027,-0.6006,-0.6,-0.6017,-0.5906,-0.5956,-0.6122,-0.6129,-0.6142,-0.6054,-0.5956,-0.5939,-0.5898,-0.5833,-0.5789,-0.5895,-0.5878,-0.5722,-0.5664,-0.5637,-0.5066,-0.4087,-0.0,-0.0,-0.0,-1.0346,-0.9014,-0.9242,-0.9864,-1.0313,-0.9347,-0.8841,-0.8765,-0.8461,-0.8014,-0.7072,-0.6517,-0.6207,-0.6156,-0.6276,-0.6563,-0.7022,-0.7022,-0.771,-0.7944,-0.7799,-0.7492,-0.733,-0.6945,-0.6261,-0.6261,-0.6271,-0.6325,-0.6454,-0.6515,-0.7108,-0.8234,-0.9554,-0.9117,-0.8704,-0.7304,-0.6877,-0.6943,-0.6695,-0.6384,-0.6331,-0.6366,-0.6352,-0.6642,-0.6546,-0.6743,-0.6951,-0.7011,-0.6997,-0.6944,-0.6997,-0.7132,-0.7139,-0.7139,-0.7139,-0.7139,-0.7139,-0.7139,-0.7078,-0.6983,-0.6834,-0.6865,-0.6793,-0.6688,-0.662,-0.6647,-0.6582,-0.6645,-0.6679,-0.6702,-0.6615,-0.6563,-0.6534,-0.6458,-0.6278,-0.6261,-0.6261,-0.6261,-0.6261,-0.6261,-0.6261,-0.6261,-0.6261,-0.6261,-0.6268,-0.6264,-0.624,-0.6217,-0.6207,-0.619,-0.6196,-0.6186,-0.619,-0.6217,-0.624,-0.6227,-0.6207,-0.6193,-0.62,-0.6186,-0.6125,-0.6105,-0.6084,-0.603,-0.6,-0.5989,-0.5976,-0.5956,-0.5884,-0.5731,-0.5225,-0.472,-0.0,-0.0,-0.0,-0.9327,-0.8396,-0.8211,-0.8866,-0.9557,-0.8389,-0.7783,-0.7706,-0.7022,-0.6556,-0.6461,-0.6257,-0.6257,-0.6237,-0.6254,-0.6641,-0.7099,-0.748,-0.8084,-0.8546,-0.8741,-0.8507,-0.7799,-0.7026,-0.6278,-0.6345,-0.6379,-0.6376,-0.6515,-0.6641,-0.6944,-0.7076,-0.7876,-0.8072,-0.8211,-0.7483,-0.7152,-0.7097,-0.6888,-0.6559,-0.642,-0.6434,-0.6401,-0.6458,-0.6605,-0.6905,-0.7018,-0.7114,-0.7085,-0.7105,-0.7115,-0.7139,-0.7139,-0.7139,-0.7139,-0.7139,-0.7139,-0.7139,-0.7132,-0.7119,-0.7088,-0.7054,-0.6959,-0.6919,-0.698,-0.6929,-0.6831,-0.69,-0.6895,-0.6766,-0.6692,-0.6719,-0.6651,-0.6568,-0.6396,-0.6285,-0.6288,-0.6261,-0.6261,-0.6261,-0.6261,-0.6261,-0.6261,-0.6261,-0.6271,-0.6271,-0.6261,-0.6261,-0.6271,-0.6261,-0.6261,-0.6261,-0.6261,-0.6261,-0.6264,-0.6295,-0.6288,-0.6278,-0.6288,-0.6308,-0.6281,-0.624,-0.622,-0.628,-0.6173,-0.6132,-0.6179,-0.6227,-0.5881,-0.5547,-0.5841,-0.5414,-0.4596,-0.0,-0.0,-0.8083,-0.7241,-0.7144,-0.7293,-0.7549,-0.704,-0.6795,-0.6721,-0.6412,-0.6261,-0.6261,-0.6261,-0.6261,-0.6261,-0.6412,-0.6872,-0.8012,-0.7706,-0.8309,-1.0432,-0.9916,-0.9194,-0.8336,-0.7126,-0.6397,-0.638,-0.6417,-0.6519,-0.6787,-0.6803,-0.6915,-0.7058,-0.7099,-0.7285,-0.7432,-0.721,-0.7152,-0.708,-0.6813,-0.6589,-0.6329,-0.6508,-0.6624,-0.6545,-0.6726,-0.6953,-0.7044,-0.7122,-0.7136,-0.7139,-0.7139,-0.7139,-0.7139,-0.7139,-0.7139,-0.7139,-0.7139,-0.7139,-0.7139,-0.7132,-0.7136,-0.7119,-0.7102,-0.7078,-0.7109,-0.7065,-0.7075,-0.7099,-0.7034,-0.6956,-0.6983,-0.6875,-0.679,-0.6709,-0.6512,-0.6331,-0.6264,-0.6288,-0.6261,-0.6261,-0.6261,-0.6285,-0.6295,-0.6291,-0.6373,-0.6369,-0.6383,-0.6329,-0.6315,-0.6281,-0.6345,-0.6261,-0.6261,-0.6261,-0.6278,-0.6383,-0.6441,-0.6441,-0.6468,-0.6505,-0.6461,-0.6396,-0.6318,-0.6285,-0.6274,-0.6271,-0.619,-0.5954,-0.5544,-0.5422,-0.5542,-0.5454,-0.458,-0.2871,-0.0,-0.7174,-0.66,-0.6461,-0.64,-0.6386,-0.6376,-0.6261,-0.6261,-0.6261,-0.6261,-0.6261,-0.6261,-0.6261,-0.6261,-0.6412,-0.6718,-0.8241,-0.8537,-0.8309,-1.083,-1.0789,-0.9715,-0.8599,-0.727,-0.6593,-0.6495,-0.6471,-0.6539,-0.679,-0.6834,-0.6949,-0.7078,-0.7139,-0.7132,-0.7132,-0.7132,-0.7102,-0.7027,-0.6922,-0.6837,-0.6656,-0.6736,-0.6692,-0.6733,-0.6833,-0.7048,-0.7112,-0.7139,-0.7139,-0.7139,-0.7139,-0.7139,-0.7139,-0.7139,-0.7139,-0.7139,-0.7139,-0.7139,-0.7139,-0.7139,-0.7139,-0.7136,-0.7139,-0.7139,-0.7139,-0.7112,-0.7119,-0.7136,-0.7139,-0.7136,-0.7109,-0.7004,-0.6922,-0.6749,-0.6649,-0.6468,-0.6478,-0.643,-0.6383,-0.6369,-0.6352,-0.6359,-0.6369,-0.6329,-0.6404,-0.642,-0.6512,-0.6458,-0.641,-0.6383,-0.6369,-0.6369,-0.6349,-0.6352,-0.643,-0.6556,-0.6597,-0.6607,-0.6627,-0.6651,-0.6641,-0.6576,-0.6471,-0.6317,-0.6364,-0.6284,-0.6006,-0.573,-0.4862,-0.4787,-0.5174,-0.4862,-0.4411,-0.2891,-0.1085,-0.6655,-0.6458,-0.6322,-0.6268,-0.6261,-0.6342,-0.6261,-0.6261,-0.6261,-0.6261,-0.6261,-0.6261,-0.6261,-0.6261,-0.6261,-0.6644,-0.7099,-0.8461,-0.8794,-0.9177,-1.0456,-0.9625,-0.8467,-0.7038,-0.6658,-0.6569,-0.6559,-0.661,-0.6729,-0.6824,-0.6963,-0.7085,-0.7139,-0.7139,-0.7139,-0.7129,-0.7088,-0.7118,-0.708,-0.6984,-0.6975,-0.6956,-0.6813,-0.6857,-0.6934,-0.7099,-0.7139,-0.7139,-0.7139,-0.7139,-0.7139,-0.7139,-0.7139,-0.7139,-0.7139,-0.7139,-0.7139,-0.7139,-0.7139,-0.7139,-0.7139,-0.7139,-0.7139,-0.7139,-0.7139,-0.7139,-0.7139,-0.7139,-0.7139,-0.7139,-0.7122,-0.7044,-0.6966,-0.6898,-0.6834,-0.6742,-0.6685,-0.6716,-0.6586,-0.6552,-0.6529,-0.6532,-0.6559,-0.6525,-0.6502,-0.6617,-0.6725,-0.6759,-0.6698,-0.6597,-0.6583,-0.6651,-0.6536,-0.6478,-0.6569,-0.6709,-0.6749,-0.6756,-0.6739,-0.6753,-0.6749,-0.6776,-0.6636,-0.6599,-0.6523,-0.6028,-0.454,-0.3936,-0.3787,-0.3868,-0.3779,-0.3224,-0.2357,-0.3694,-0.2971,-0.6621,-0.6603,-0.6366,-0.6261,-0.6261,-0.6261,-0.6261,-0.6261,-0.6261,-0.6261,-0.6261,-0.6261,-0.6335,-0.6261,-0.6335,-0.7176,-0.7936,-0.8489,-0.9264,-0.9849,-1.0158,-0.9213,-0.8226,-0.7215,-0.6902,-0.6783,-0.679,-0.6756,-0.6956,-0.6993,-0.6997,-0.7129,-0.7139,-0.7139,-0.7139,-0.7139,-0.7105,-0.7082,-0.7149,-0.707,-0.7104,-0.7083,-0.6914,-0.683,-0.6984,-0.7129,-0.7139,-0.7139,-0.7139,-0.7139,-0.7139,-0.7139,-0.7139,-0.7139,-0.7139,-0.7139,-0.7139,-0.7139,-0.7139,-0.7139,-0.7139,-0.7139,-0.7139,-0.7139,-0.7139,-0.7139,-0.7139,-0.7139,-0.7139,-0.7139,-0.7139,-0.7085,-0.7044,-0.7007,-0.6956,-0.6922,-0.6868,-0.6814,-0.6759,-0.6671,-0.6647,-0.6719,-0.6746,-0.6753,-0.6753,-0.6861,-0.6932,-0.697,-0.6956,-0.6841,-0.6783,-0.6766,-0.6753,-0.6698,-0.6742,-0.6865,-0.6888,-0.6902,-0.6885,-0.6898,-0.6959,-0.6897,-0.688,-0.6484,-0.5899,-0.4047,-0.182,-0.174,-0.224,-0.1658,-0.1415,-0.0943,-0.0864,-0.2354,-0.4081,-0.6493,-0.6563,-0.6359,-0.6261,-0.6261,-0.6261,-0.6261,-0.6261,-0.6261,-0.6261,-0.6261,-0.6261,-0.649,-0.6949,-0.7022,-0.7706,-0.9069,-0.878,-0.8937,-0.8963,-0.9528,-0.8719,-0.7911,-0.7308,-0.7055,-0.6943,-0.6919,-0.6841,-0.7034,-0.6981,-0.7061,-0.7136,-0.7139,-0.7139,-0.7139,-0.7139,-0.7139,-0.7132,-0.7122,-0.7085,-0.7082,-0.7092,-0.697,-0.6957,-0.7024,-0.7129,-0.7139,-0.7139,-0.7139,-0.7139,-0.7139,-0.7139,-0.7139,-0.7139,-0.7139,-0.7139,-0.7139,-0.7139,-0.7139,-0.7139,-0.7139,-0.7139,-0.7139,-0.7139,-0.7139,-0.7139,-0.7139,-0.7139,-0.7139,-0.7139,-0.7139,-0.7139,-0.7136,-0.7132,-0.7112,-0.7007,-0.6954,-0.6897,-0.6892,-0.6787,-0.6807,-0.6892,-0.6932,-0.6943,-0.6966,-0.701,-0.7044,-0.7065,-0.7065,-0.7004,-0.6963,-0.6949,-0.6949,-0.685,-0.698,-0.6983,-0.7,-0.7021,-0.7037,-0.7068,-0.7061,-0.7058,-0.6913,-0.5961,-0.4851,-0.0,-0.0,-0.0,-0.0651,-0.0802,-0.1658,-0.1808,-0.1806,-0.1802,-0.36,-0.6356,-0.6468,-0.6322,-0.6261,-0.6261,-0.6261,-0.6261,-0.6335,-0.6412,-0.6412,-0.649,-0.6416,-0.7019,-0.7621,-0.7855,-0.8228,-0.8856,-0.8803,-0.8489,-0.8078,-0.8638,-0.8238,-0.7502,-0.7046,-0.7097,-0.6997,-0.6966,-0.6929,-0.6946,-0.7004,-0.7075,-0.7136,-0.7139,-0.7139,-0.7139,-0.7139,-0.7139,-0.7139,-0.7139,-0.7122,-0.7129,-0.7136,-0.7139,-0.7132,-0.7139,-0.7139,-0.7139,-0.7139,-0.7139,-0.7139,-0.7139,-0.7139,-0.7139,-0.7139,-0.7139,-0.7139,-0.7139,-0.7139,-0.7139,-0.7139,-0.7139,-0.7139,-0.7139,-0.7139,-0.7139,-0.7139,-0.7139,-0.7139,-0.7139,-0.7139,-0.7139,-0.7139,-0.7139,-0.7139,-0.7129,-0.7122,-0.7099,-0.7058,-0.7021,-0.6943,-0.6959,-0.7037,-0.7044,-0.7051,-0.7041,-0.7109,-0.7126,-0.7139,-0.7129,-0.7099,-0.7088,-0.7078,-0.7065,-0.6967,-0.6987,-0.7082,-0.7105,-0.7129,-0.7048,-0.7051,-0.7149,-0.6992,-0.6926,-0.4975,-0.0,-0.0,-0.0,-0.0,-0.232,-0.3906,-0.4414,-0.3876,-0.3385,-0.284,-0.369,-0.6356,-0.6458,-0.6318,-0.6261,-0.6261,-0.6261,-0.6335,-0.6416,-0.7176,-0.748,-0.7403,-0.7476,-0.7689,-0.8282,-0.8756,-0.9054,-0.8675,-0.874,-0.8321,-0.7927,-0.7959,-0.7777,-0.7145,-0.7068,-0.7105,-0.7109,-0.7071,-0.7021,-0.7054,-0.7082,-0.7095,-0.7136,-0.7139,-0.7139,-0.7139,-0.7139,-0.7139,-0.7139,-0.7139,-0.7139,-0.7139,-0.7139,-0.7139,-0.7139,-0.7139,-0.7139,-0.7139,-0.7139,-0.7139,-0.7139,-0.7139,-0.7139,-0.7139,-0.7139,-0.7139,-0.7139,-0.7139,-0.7139,-0.7139,-0.7139,-0.7139,-0.7139,-0.7139,-0.7139,-0.7139,-0.7139,-0.7139,-0.7139,-0.7139,-0.7139,-0.7139,-0.7139,-0.7139,-0.7139,-0.7139,-0.7139,-0.7139,-0.7129,-0.7119,-0.7122,-0.7122,-0.7129,-0.7136,-0.7139,-0.7139,-0.7139,-0.7136,-0.7139,-0.7139,-0.7122,-0.7122,-0.7115,-0.7119,-0.7122,-0.7139,-0.7139,-0.7139,-0.7139,-0.7139,-0.7143,-0.6969,-0.6002,-0.5029,-0.2602,-0.0,-0.0,-0.0,-0.0,-0.4835,-0.608,-0.6257,-0.5292,-0.5342,-0.5017,-0.5445,-0.6312,-0.6366,-0.6373,-0.6567,-0.6949,-0.6945,-0.7173,-0.7706,-0.8237,-0.8689,-0.8988,-0.8761,-0.8746,-0.917,-0.9728,-0.9658,-0.9145,-0.8878,-0.8524,-0.8,-0.7352,-0.7076,-0.6997,-0.7136,-0.7136,-0.7139,-0.7139,-0.7129,-0.7139,-0.7136,-0.7132,-0.7139,-0.7139,-0.7139,-0.7139,-0.7139,-0.7139,-0.7139,-0.7139,-0.7139,-0.7139,-0.7139,-0.7139,-0.7139,-0.7139,-0.7139,-0.7139,-0.7139,-0.7139,-0.7139,-0.7139,-0.7139,-0.7139,-0.7139,-0.7139,-0.7139,-0.7139,-0.7139,-0.7143,-0.7146,-0.7146,-0.7143,-0.7139,-0.7139,-0.7139,-0.7139,-0.7139,-0.7139,-0.7139,-0.7139,-0.7139,-0.7139,-0.7139,-0.7139,-0.7139,-0.7139,-0.7139,-0.7136,-0.7132,-0.7132,-0.7132,-0.7136,-0.7139,-0.7139,-0.7139,-0.7139,-0.7139,-0.7149,-0.7146,-0.7163,-0.7156,-0.7139,-0.7139,-0.7139,-0.7139,-0.7139,-0.7139,-0.7139,-0.7139,-0.5622,-0.4645,-0.4032,-0.2784,-0.1525,-0.1076,-0.0,-0.0,-0.4374,-0.5373,-0.6138,-0.6425,-0.6463,-0.6592,-0.6641,-0.6647,-0.6696,-0.6641,-0.6718,-0.7173,-0.7936,-0.8012,-0.8389,-0.915,-0.9448,-0.989,-1.0479,-0.9965,-1.0104,-1.0473,-1.0777,-1.0565,-1.0116,-0.9451,-0.8946,-0.7926,-0.7105,-0.6966,-0.697,-0.7126,-0.7136,-0.7139,-0.7139,-0.7139,-0.7139,-0.7139,-0.7139,-0.7139,-0.7139,-0.7139,-0.7139,-0.7139,-0.7139,-0.7139,-0.7139,-0.7139,-0.7139,-0.7139,-0.7139,-0.7139,-0.7139,-0.7139,-0.7139,-0.7139,-0.7139,-0.7139,-0.7146,-0.7183,-0.7138,-0.7158,-0.7231,-0.7148,-0.7171,-0.7221,-0.717,-0.718,-0.7166,-0.7153,-0.7146,-0.7146,-0.7146,-0.7143,-0.7143,-0.7156,-0.7156,-0.7149,-0.7149,-0.7146,-0.7146,-0.7146,-0.7146,-0.7139,-0.7139,-0.7139,-0.7139,-0.7139,-0.7139,-0.7139,-0.7139,-0.7139,-0.7149,-0.7149,-0.717,-0.7071,-0.717,-0.72,-0.7214,-0.7173,-0.7139,-0.7139,-0.7139,-0.7139,-0.7139,-0.7139,-0.6782,-0.4374,-0.2594,-0.251,-0.2242,-0.1882,-0.1701,-0.3132,-0.3388,-0.415,-0.5075,-0.6309,-0.6512,-0.6699,-0.6749,-0.6749,-0.6895,-0.8529,-0.8689,-0.8694,-0.8841,-0.8993,-0.8993,-0.915,-0.9448,-1.019,-1.0548,-1.0691,-1.1459,-1.1842,-1.1909,-1.1996,-1.1372,-1.0056,-0.9652,-0.8395,-0.7033,-0.7024,-0.7018,-0.701,-0.7204,-0.7136,-0.7139,-0.7139,-0.7139,-0.7139,-0.7139,-0.7139,-0.7139,-0.7139,-0.7139,-0.7139,-0.7139,-0.7139,-0.7143,-0.716,-0.7166,-0.7163,-0.7156,-0.7143,-0.7139,-0.7139,-0.7139,-0.7139,-0.7139,-0.7139,-0.7139,-0.7149,-0.7224,-0.7319,-0.7305,-0.7315,-0.7394,-0.7414,-0.7353,-0.7305,-0.7302,-0.7295,-0.7214,-0.7204,-0.7177,-0.717,-0.7149,-0.717,-0.721,-0.7207,-0.7187,-0.718,-0.7173,-0.717,-0.7166,-0.7163,-0.7149,-0.7139,-0.7139,-0.7139,-0.7139,-0.7139,-0.7139,-0.7139,-0.7156,-0.719,-0.7145,-0.7279,-0.7255,-0.7204,-0.7231,-0.7268,-0.7207,-0.7146,-0.7139,-0.7139,-0.7139,-0.7139,-0.7139,-0.6962,-0.5622,-0.3929,-0.1702,-0.1434,-0.2597,-0.3851,-0.5201,-0.5265,-0.4798,-0.5502,-0.6557,-0.6695,-0.682,-0.6877,-0.6908,-0.7025]},{"header":{"parameterUnit":"m.s-1","parameterCategory":1,"la1":31.0,"la2":29.5877,"lo1":-88.7671,"lo2":-86.6584,"dy":0.0162,"dx":0.0185,"nx":115,"ny":88,"refTime":"2023-06-23T00:00:00:Z","depth":0,"parameterNumber":3,"parameterNumberName":"V-component_of_WINDS"},"data":[0.0,0.0,0.0,0.0,0.0,0.0,0.0,0.0,0.0,0.0,0.0,0.0,0.0,0.0,0.0,0.0,0.0,0.0,0.0,0.0,0.0,0.0,0.0,0.0,0.0,0.0,0.0,0.0,0.0,0.0,0.0,0.0,0.0,0.0,0.0,0.0,0.0,0.0,0.0,0.0,0.0,0.0,0.0,0.0,0.0,0.0,0.0,0.0,0.0,0.0,0.0,0.0,0.0,0.0,0.0,0.0,0.0,0.0,0.0,0.0,0.0,0.0,0.0,0.0,0.0,0.0,0.0,0.0,0.0,0.0,0.0,0.0,0.0,0.0,0.0,0.0,0.0,0.0,0.0,0.0,0.0,0.0,0.0,0.0,0.0,0.0,0.0,0.0,0.0,0.0,0.0,0.0,0.0,0.0,0.0,0.0,0.0,0.0,0.0,0.0,0.0,0.0,0.0,0.0,0.0,0.0,0.0,0.0,0.0,0.0,0.0,0.0,0.0,0.0,0.0,0.0,0.0,0.0,0.0,0.0,0.0,0.0,0.0,0.0,0.0,0.0,0.0,0.0,0.0,0.0,0.0,0.0,0.0,0.0,0.0,0.0,0.0,0.0,0.0,0.0,0.0,0.0,0.0,0.0,0.0,0.0,0.0,0.0,0.0,0.0,0.0,0.0,0.0,0.0,0.0,0.0,0.0,0.0,0.0,0.0,0.0,0.0,0.0,0.0,0.0,0.0,0.0,0.0,0.0,0.0,0.0,0.0,0.0,0.0,0.0,0.0,0.0,0.0,0.0,0.0,0.0,0.0,0.0,0.0,0.0,0.0,0.0,0.0,0.0,0.0,0.0,0.0,0.0,0.0,0.0,0.0,0.0,0.0,0.0,0.0,0.0,0.0,0.0,0.0,0.0,0.0,0.0,0.0,0.0,0.0,0.0,0.0,0.0,0.0,0.0,0.0,0.0,0.0,0.0,0.0,0.0,0.0,0.0,0.0,0.0,0.0,0.0,0.0,0.0,0.0,0.0,0.0,0.0,0.0,0.0,0.0,0.0,0.0,0.0,0.0,0.0,0.0,0.0,0.0,0.0,0.0,0.0,0.0,0.0,0.0,0.0,0.0,0.0,0.0,0.0,0.0,0.0,0.0,0.0,0.0,0.0,0.0,0.0,0.0,0.0,0.0,0.0,0.0,0.0,0.0,0.0,0.0,0.0,0.0,0.0,0.0,0.0,0.0,0.0,0.0,0.0,0.0,0.0,0.0,0.0,0.0,0.0,0.0,0.0,0.0,0.0,0.0,0.0,0.0,0.0,0.0,0.0,0.0,0.0,0.0,0.0,0.0,0.0,0.0,0.0,0.0,0.0,0.0,0.0,0.0,0.0,0.0,0.0,0.0,0.0,0.0,0.0,0.0,0.0,0.0,0.0,0.0,0.0,0.0,0.0,0.0,0.0,0.0,0.0,0.0,0.0,0.0,0.0,0.0,0.0,0.0,0.0,0.0,0.0,0.0,0.0,0.0,0.0,0.0,0.0,0.0,0.0,0.0,0.0,0.0,0.0,0.0,0.0,0.0,0.0,0.0,0.0,0.0,0.0,0.0,0.0,0.0,0.0,0.0,0.0,0.0,0.0,0.0,0.0,0.0,0.0,0.0,0.0,0.0,0.0,0.0,0.0,0.0,0.0,0.0,0.0,0.0,0.0,0.0,0.0,0.0,0.0,0.0,0.0,0.0,0.0,0.0,0.0,0.0,0.0,0.0,0.0,0.0,0.0,0.0,0.0,0.0,0.0,0.0,0.0,0.0,0.0,0.0,0.0,0.0,0.0,0.0,0.0,0.0,0.0,0.0,0.0,0.0,0.0,0.0,0.0,0.0,0.0,0.0,0.0,0.0,0.0,0.0,0.0,0.0,0.0,0.0,0.0,0.0,0.0,0.0,0.0,0.0,0.0,0.0,0.0,0.0,0.0,0.0,0.0,0.0,0.0,0.0,0.0,0.0,0.0,0.0,0.0,0.0,0.0,0.0,0.0,0.0,0.0,0.0,0.0,0.0,0.0,0.0,0.0,0.0,0.0,0.0,0.0,0.0,0.0,0.0,0.0,0.0,0.0,0.0,0.0,0.0,0.0,0.0,0.0,0.0,0.0,0.0,0.0,0.0,0.0,0.0,0.0,0.0,0.0,0.0,0.0,0.0,0.0,0.0,0.0,0.0,0.0,0.0,0.0,0.0,0.0,0.0,0.0,0.0,0.0,0.0,0.0,0.0,0.0,0.0,0.0,0.0,0.0,0.0,0.0,0.0,0.0,0.0,0.0,0.0,0.0,0.0,0.0,0.0,0.0,0.0,0.0,0.0,0.0,0.0,0.0,0.0,0.0,0.0,0.0,0.0,0.0,0.0,0.0,0.0,0.0,0.0,0.0,0.0,0.0,0.0,0.0,0.0,0.0,0.0,0.0,0.0,0.0,0.0,0.0,0.0,0.0,0.0,0.0,0.0,0.0,0.0,0.0,0.0,0.0,0.0,0.0,0.0,0.0,0.0,0.0,0.0,0.0,0.0,0.0,0.0,0.0,0.0,0.0,0.0,0.0,0.0,0.0,0.0,0.0,0.0,0.0,0.0,0.0,0.0,0.0,0.0,0.0,0.0,0.0,0.0,0.0,0.0,0.0,0.0,0.0,0.0,0.0,0.0,0.0,0.0,0.0,0.0,0.0,0.0,0.0,0.0,0.0,0.0,0.0,0.0,0.0,0.0,0.0,0.0,0.0,0.0,0.0,0.0,0.0,0.0,0.0,0.0,0.0,0.0,0.0,0.0,0.0,0.0,0.0,0.0,0.0,0.0,0.0,0.0,0.0,0.0,0.0,0.0,0.0,0.0,0.0,0.0,0.0,0.0,0.0,0.0,0.0,0.0,0.0,0.0,0.0,0.0,0.0,0.0,0.0,0.0,0.0,0.0,0.0,0.0,0.0,0.0,0.0,0.0,0.0,0.0,0.0,0.0,0.0,0.0,0.0,0.0,0.0,0.0,0.0,0.0,0.0,0.0,0.0,0.0,0.0,0.0,0.0,0.0,0.0,0.0,0.0,0.0,0.0,0.0,0.0,0.0,0.0,0.0,0.0,0.0,0.0,0.0,0.0,0.0,0.0,0.0,0.0,0.0,0.0,0.0,0.0,0.0,0.0,0.0,0.0,0.0,0.0,0.0,0.0,0.0,0.0,0.0,0.0,0.0,0.0,0.0,0.0,0.0,0.0,0.0,0.0,0.0,0.0,0.0,0.0,0.0,0.0,0.0,0.0,0.0,0.0,0.0,0.0,0.0,0.0,0.0,0.0,0.0,0.0,0.0,0.0,0.0,0.0,0.0,0.0,0.0,0.0,0.0,0.0,0.0,0.0,0.0,0.0,0.0,0.0,0.0,0.0,0.0,0.0,0.0,0.0,0.0,0.0,0.0,0.0,0.0,0.0,0.0,0.0,0.0,0.0,0.0,0.0,0.0,0.0,0.0,0.0,0.0,0.0,0.0,0.0,0.0,0.0,0.0,0.0,0.0,0.0,0.0,0.0,0.0,0.0,0.0,0.0,0.0,0.0,0.0,0.0,0.0,0.0,0.0,0.0,0.0,0.0,0.0,0.0,0.0,0.0,0.0,0.0,0.0,0.0,0.0,0.0,0.0,0.0,0.0,0.0,0.0,0.0,0.0,0.0,0.0,0.0,0.0,0.0,0.0,0.0,0.0,0.0,0.0,0.0,0.0,0.0,0.0,0.0,0.0,0.0,0.0,0.0,0.0,0.0,0.0,0.0,0.0,0.0,0.0,0.0,0.0,0.0,0.0,0.0,0.0,0.0,0.0,0.0,0.0,0.0,0.0,0.0,0.0,0.0,0.0,0.0,0.0,0.0,0.0,0.0,0.0,0.0,0.0,0.0,0.0,0.0,0.0,0.0,0.0,0.0,0.0,0.0,0.0,0.0,0.0,0.0,0.0,0.0,0.0,0.0,0.0,0.0,0.0,0.0,0.0,0.0,0.0,0.0,0.0,0.0,0.0,0.0,0.0,0.0,0.0,0.0,0.0,0.0,0.0,0.0,0.0,0.0,0.0,0.0,0.0,0.0,0.0,0.0,0.0,0.0,0.0,0.0,0.0,0.0,0.0,0.0,0.0,0.0,0.0,0.0,0.0,0.0,0.0,0.0,0.0,0.0,0.0,0.0,0.0,0.0,0.0,0.0,0.0,0.0,0.0,0.0,0.0,0.0,0.0,0.0,0.0,0.0,0.0,0.0,0.0,0.7842,0.0,0.0,0.0,0.0,0.0,0.0,0.0,0.0,0.0,0.0,0.0,0.0,0.0,0.0,0.0,0.0,0.0,0.0,0.0,0.0,0.0,0.0,0.0,0.0,0.0,0.0,0.0,0.0,0.0,0.0,0.0,0.0,0.0,0.0,0.0,0.0,0.0,0.0,0.0,0.0,0.0,0.0,0.0,0.0,0.0,0.0,0.0,0.0,0.0,0.0,0.0,0.0,0.0,0.0,0.0,0.0,0.0,0.0,0.0,0.0,0.0,0.0,0.0,0.0,0.0,0.0,0.0,0.0,0.0,0.0,0.0,0.0,0.0,0.0,0.0,0.0,0.0,0.0,0.0,0.0,0.0,0.0,0.0,0.0,0.0,0.0,0.0,0.0,0.0,0.0,0.0,0.0,0.0,0.0,0.0,0.0,0.0,0.0,0.0,0.0,0.0,0.0,0.0,0.0,0.0,0.0,0.0,0.0,0.0,0.0,0.4331,0.5116,0.7511,0.8291,0.726,0.0,0.0,0.0,0.0,0.0,0.0,0.0,0.0,0.0,0.0,0.0,0.0,0.0,0.0,0.0,0.0,0.0,0.0,0.0,0.0,0.0,0.0,0.0,0.0,0.0,0.0,0.0,0.0,0.0,0.0,0.0,0.0,0.0,0.0,0.0,0.0,0.0,0.0,0.0,0.0,0.0,0.0,0.0,0.0,0.0,0.0,0.0,0.0,0.0,0.0,0.0,0.0,0.0,0.0,0.0,0.0,0.0,0.0,0.0,0.0,0.0,0.0,0.0,0.0,0.0,0.0,0.0,0.0,0.0,0.0,0.0,0.0,0.0,0.0,0.0,0.0,0.0,0.0,0.0,0.0,0.0,0.0,0.0,0.0,0.0,0.0,0.0,0.0,0.0,0.0,0.0,0.0,0.0,0.0,0.0,0.0,0.0,0.0,0.0,0.0,0.0,0.0,0.0,0.0,0.0,0.0,0.0,0.0,0.0,0.0,0.0,0.0,0.8003,0.8273,0.7514,0.0,0.0,0.0,0.0,0.0,0.0,0.0,0.0,0.0,0.0,0.0,0.0,0.0,0.0,0.0,0.0,0.0,0.0,0.0,0.0,0.0,0.0,0.0,0.0,0.0,0.0,0.0,0.0,0.0,0.0,0.0,0.0,0.0,0.0,0.0,0.0,0.0,0.0,0.0,0.0,0.0,0.0,0.0,0.0,0.0,0.0,0.0,0.0,0.0,0.0,0.0,0.0,0.0,0.0,0.0,0.0,0.0,0.0,0.0,0.0,0.0,0.0,0.0,0.0,0.0,0.0,0.0,0.0,0.0,0.0,0.0,0.0,0.0,0.0,0.0,0.0,0.0,0.0,0.0,0.0,0.0,0.0,0.0,0.0,0.0,0.0,0.0,0.0,0.0,0.0,0.0,0.0,0.0,0.0,0.0,0.0,0.0,0.0,0.0,0.0,0.0,0.0,0.0,0.0,0.0,0.0,0.0,0.0,0.0,0.0,0.6027,1.0553,1.1005,0.0,1.0064,0.0,0.0,0.0,0.0,0.0,0.0,0.0,0.0,0.0,0.0,0.0,0.0,0.0,0.0,0.0,0.0,0.0,0.0,0.0,0.0,0.0,0.0,0.0,0.0,0.0,0.0,0.0,0.0,0.0,0.0,0.0,0.0,0.0,0.0,0.0,0.0,0.0,0.0,0.0,0.0,0.0,0.0,0.0,0.0,0.0,0.0,0.0,0.0,0.0,0.0,0.0,0.0,0.0,0.0,0.0,0.0,0.0,0.0,0.0,0.0,0.0,0.0,0.0,0.0,0.0,0.0,0.0,0.0,0.0,0.0,0.0,0.0,0.0,0.0,0.0,0.0,0.0,0.0,0.0,0.0,0.0,0.0,0.0,0.0,0.0,0.0,0.0,0.0,0.0,0.0,0.0,0.0,0.0,0.0,0.0,0.0,0.0,0.0,0.0,0.0,0.0,0.0,0.0,0.0,0.0,0.0,0.0,0.0,0.0,0.0,0.5794,0.9108,0.932,0.9603,0.0,0.0,0.0,0.0,0.0,0.0,0.0,0.0,0.0,0.0,0.0,0.0,0.0,0.0,0.0,0.0,0.0,0.0,0.0,0.0,0.0,0.0,0.0,0.0,0.0,0.0,0.0,0.0,0.0,0.0,0.0,0.0,0.0,0.0,0.0,0.0,0.0,0.0,0.0,0.0,0.0,0.0,0.0,0.0,0.0,0.0,0.0,0.0,0.0,0.0,0.0,0.0,0.0,0.0,0.0,0.0,0.0,0.0,0.0,0.0,0.0,0.0,0.0,0.0,0.0,0.0,0.0,0.0,0.0,0.0,0.0,0.0,0.0,0.0,0.0,0.0,0.0,0.0,0.0,0.0,0.0,0.0,0.0,0.0,0.0,0.0,0.0,0.0,0.0,0.0,0.0,0.0,0.0,0.0,0.0,0.0,0.0,0.0,0.0,0.0,0.0,0.0,0.0,0.0,0.0,0.0,0.0,0.0,0.0,0.0,0.5682,0.6306,0.8455,0.8164,0.8457,0.9525,0.0,0.0,0.0,0.0,0.0,0.0,0.0,0.0,0.0,0.0,0.0,0.0,0.0,0.0,0.0,0.0,0.0,0.0,0.0,0.0,0.0,0.0,0.0,0.0,0.0,0.0,0.0,0.0,0.0,0.0,0.0,0.0,0.0,0.0,0.0,0.0,0.0,0.0,0.0,0.0,0.0,0.0,0.0,0.0,0.0,0.0,0.0,0.0,0.0,0.0,0.0,0.0,0.0,0.0,0.0,0.0,0.0,0.0,0.0,0.0,0.0,0.0,0.0,0.0,0.0,0.0,0.0,0.0,0.0,0.0,0.0,0.0,0.0,0.0,0.0,0.0,0.0,0.0,0.0,0.0,0.0,0.0,0.0,0.0,0.0,0.0,0.0,0.0,0.0,0.0,0.0,0.0,0.0,0.0,0.0,0.0,0.0,0.0,0.0,0.0,0.0,0.0,0.0,0.0,0.0,0.0,0.0,0.0,0.9358,0.7976,0.8263,1.0396,0.8938,0.848,0.0,0.0,0.0,0.0,0.0,0.0,0.0,0.0,0.0,0.0,0.0,0.0,0.0,0.0,0.0,0.0,0.0,0.0,0.0,0.0,0.0,0.0,0.0,0.0,0.0,0.0,0.0,0.0,0.0,0.0,0.0,0.0,0.0,0.0,0.0,0.0,0.0,0.0,0.0,0.0,0.0,0.0,0.0,0.0,0.0,0.0,0.0,0.0,0.0,0.0,0.0,0.0,0.0,0.0,0.0,0.0,0.0,0.0,0.0,0.0,0.0,0.0,0.0,0.0,0.0,0.0,0.0,0.0,0.0,0.0,0.0,0.0,0.0,0.0,0.0,0.0,0.0,0.0,0.0,0.0,0.0,0.0,0.0,0.0,0.0,0.0,0.0,0.0,0.0,0.0,0.0,0.0,0.0,0.0,0.0,0.0,0.0,0.0,0.0,0.0,0.0,0.0,0.0,0.0,0.0,0.0,0.0,0.0,0.0,0.7681,0.829,0.8217,0.7541,0.8254,0.8194,0.0,0.0,0.0,0.0,0.0,0.0,0.0,0.0,0.0,0.0,0.0,0.0,0.0,0.0,0.0,0.0,0.0,0.0,0.0,0.0,0.0,0.0,0.0,0.0,0.0,0.0,0.0,0.0,0.0,0.0,0.0,0.0,0.0,0.0,0.0,0.0,0.0,0.0,0.0,0.0,0.0,0.0,0.0,0.0,0.0,0.0,0.0,0.0,0.0,0.0,0.0,0.0,0.0,0.0,0.0,0.0,0.0,0.0,0.0,0.0,0.0,0.0,0.0,0.0,0.0,0.0,0.0,0.0,0.0,0.0,0.0,0.0,0.0,0.0,0.0,0.0,0.0,0.0,0.0,0.0,0.0,0.0,0.0,0.0,0.0,0.0,0.0,0.0,0.0,0.0,0.0,0.0,0.0,0.0,0.0,0.0,0.0,0.0,0.0,0.0,0.0,0.0,0.0,0.0,0.0,0.0,0.0,0.0,0.0,0.6434,0.0,0.666,0.5056,0.6284,0.6054,0.0,0.0,0.0,0.0,0.0,0.0,0.0,0.0,0.0,0.0,0.0,0.0,0.0,0.0,0.0,0.0,0.0,0.0,0.0,0.0,0.0,0.0,0.0,0.0,0.0,0.0,0.0,0.0,0.0,0.0,0.0,0.0,0.0,0.0,0.0,0.0,0.0,0.0,0.0,0.0,0.0,0.0,0.0,0.0,0.0,0.0,0.0,0.0,0.0,0.0,0.0,0.0,0.0,0.0,0.0,0.0,0.0,0.0,0.0,0.0,0.0,0.0,0.0,0.0,0.0,0.0,0.0,0.0,0.0,0.0,0.0,0.0,0.0,0.0,0.0,0.0,0.0,0.0,0.0,0.0,0.0,0.0,0.0,0.0,0.0,0.0,0.0,0.0,0.0,0.0,0.0,0.0,0.0,0.0,0.0,0.0,0.0,0.0,0.0,0.0,0.0,0.0,0.0,0.0,0.0,0.0,0.0,0.0,0.5935,0.5946,0.4547,0.3719,0.3426,0.2928,0.1887,0.0,0.0,0.0,0.0,0.0,0.0,0.0,0.0,0.0,0.0,0.0,0.0,0.0,0.0,0.0,0.0,0.0,0.0,0.0,0.0,0.0,0.0,0.0,0.0,0.0,0.0,0.0,0.0,0.0,0.0,0.0,0.0,0.0,0.0,0.0,0.0,0.0,0.0,0.0,0.0,0.0,0.0,0.0,0.0,0.0,0.0,0.0,0.0,0.0,0.0,0.0,0.0,0.0,0.0,0.0,0.0,0.0,0.0,0.0,0.0,0.0,0.0,0.0,0.0,0.0,0.0,0.0,0.0,0.0,0.0,0.0,0.0,0.0,0.0,0.0,0.0,0.0,0.0,0.0,0.0,0.0,0.0,0.0,0.0,0.0,0.0,0.0,0.0,0.0,0.0,0.0,0.0,0.0,0.0,0.0,0.0,0.0,0.0,0.0,0.0,0.0,0.0,0.0,0.0,0.0,0.0,0.0,0.0,0.0,0.2491,0.3064,0.2034,-0.0623,-0.089,-0.1733,0.0,0.0,0.0,0.0,0.0,0.0,0.0,0.0,0.0,0.0,0.0,0.0,0.0,0.0,0.0,0.0,0.0,0.0,0.0,0.0,0.0,0.0,0.0,0.0,0.0,0.0,0.0,0.0,0.0,0.0,0.0,0.0,0.0,0.0,0.0,0.0,0.0,0.0,0.0,0.0,0.0,0.0,0.0,0.0,0.0,0.0,0.0,0.0,0.0,0.0,0.0,0.0,0.0,0.0,0.0,0.0,0.0,0.0,0.0,0.0,0.0,0.0,0.0,0.0,0.0,0.0,0.0,0.0,0.0,0.0,0.0,0.0,0.0,0.0,0.0,0.0,0.0,0.0,0.0,0.0,0.0,0.0,0.0,0.0,0.0,0.0,0.0,0.0,0.0,0.0,0.0,0.0,0.0,0.0,0.0,0.0,0.0,0.0,0.0,0.0,0.0,0.0,0.0,0.0,0.0,0.0,0.0,0.0,0.0,-0.1952,-0.0305,-0.0609,-0.3093,-0.3997,-0.4972,-0.6013,0.0,0.0,0.0,0.0,0.0,0.0,0.0,0.0,0.0,0.0,0.0,0.0,0.0,0.0,0.0,0.0,0.0,0.0,0.0,0.0,0.0,0.0,0.0,0.0,0.0,0.0,0.0,0.0,0.0,0.0,0.0,0.0,0.0,0.0,0.0,0.0,0.0,0.0,0.0,0.0,0.0,0.0,0.0,0.0,0.0,0.0,0.0,0.0,0.0,0.0,0.0,0.0,0.0,0.0,0.0,0.0,0.0,0.0,0.0,0.0,0.0,0.0,0.0,0.0,0.0,0.0,0.0,0.0,0.0,0.0,0.0,0.0,0.0,0.0,0.0,0.0,0.0,0.0,0.0,0.0,0.0,0.0,0.0,0.0,0.0,0.0,0.0,0.0,0.0,0.0,0.0,0.0,0.0,0.0,0.0,0.0,0.0,0.0,0.0,0.0,0.0,0.0,0.0,0.0,0.0,0.0,0.0,0.0,-0.6869,-0.5084,-0.4184,-0.4341,-0.6587,-0.7914,0.0,0.0,0.0,0.0,0.0,0.0,0.0,0.0,0.0,0.0,0.0,0.0,0.0,0.0,0.0,0.0,0.0,0.0,0.0,0.0,0.0,0.0,0.0,0.0,0.0,0.0,0.0,0.0,0.0,0.0,0.0,0.0,0.0,0.0,0.0,0.0,0.0,0.0,0.0,0.0,0.0,0.0,0.0,0.0,0.0,0.0,0.0,0.0,0.0,0.0,0.0,0.0,0.0,0.0,0.0,0.0,0.0,0.0,0.0,0.0,0.0,0.0,0.0,0.0,0.0,0.0,0.0,0.0,0.0,0.0,0.0,0.0,0.0,0.0,0.0,0.0,0.0,0.0,0.0,0.0,0.0,0.0,0.0,0.0,0.0,0.0,0.0,0.0,0.0,0.0,0.0,0.0,0.0,0.0,0.0,0.0,0.0,0.0,0.0,0.0,0.0,0.0,0.0,0.0,0.0,0.0,0.0,0.0,0.0,-0.7794,-0.7615,-0.7824,-0.848,-0.9744,-1.0611,0.0,0.0,0.0,0.0,0.0,0.0,0.0,0.0,0.0,0.0,0.0,0.0,0.0,0.0,0.0,0.0,0.0,0.0,0.0,0.0,0.0,0.0,0.0,0.0,0.0,0.0,0.0,0.0,0.0,0.0,0.0,0.0,0.0,0.0,0.0,0.0,0.0,0.0,0.0,0.0,0.0,0.0,0.0,0.0,0.0,0.0,0.0,0.0,0.0,0.0,0.0,0.0,0.0,0.0,0.0,0.0,0.0,0.0,0.0,0.0,0.0,0.0,0.0,0.0,0.0,0.0,0.0,0.0,0.0,0.0,0.0,0.0,0.0,0.0,0.0,0.0,0.0,0.0,0.0,0.0,0.0,0.0,0.0,0.0,0.0,0.0,0.0,0.0,0.0,0.0,0.0,0.0,0.0,0.0,0.0,0.0,0.0,0.0,0.0,0.0,0.0,0.0,0.0,0.0,0.0,0.0,0.0,0.0,-0.7893,-0.8569,-0.9076,-0.9942,-1.12,-1.183,-1.1961,0.0,0.0,0.0,0.0,0.0,0.0,0.0,0.0,0.0,0.0,0.0,0.0,0.0,0.0,0.0,0.0,0.0,0.0,0.0,0.0,0.0,0.0,0.0,0.0,0.0,0.0,0.0,0.0,0.0,0.0,0.0,0.0,0.0,0.0,0.0,0.0,0.0,0.0,0.0,0.0,0.0,0.0,0.0,0.0,0.0,0.0,0.0,0.0,0.0,0.0,0.0,0.0,0.0,0.0,0.0,0.0,0.0,0.0,0.0,0.0,0.0,0.0,0.0,0.0,0.0,0.0,0.0,0.0,0.0,0.0,0.0,0.0,0.0,0.0,0.0,0.0,0.0,0.0,0.0,0.0,0.0,0.0,0.0,0.0,0.0,0.0,0.0,0.0,0.0,0.0,0.0,0.0,0.0,0.0,0.0,0.0,0.0,0.0,0.0,0.0,0.0,0.0,0.0,0.0,0.0,0.0,0.0,0.0,-0.8259,-0.9081,-0.9761,-1.0911,-1.2457,-1.2818,-1.2295,0.0,0.0,0.0,0.0,0.0,0.0,0.0,0.0,0.0,0.0,0.0,0.0,0.0,0.0,0.0,0.0,0.0,0.0,0.0,0.0,0.0,0.0,0.0,0.0,0.0,0.0,0.0,0.0,0.0,0.0,0.0,0.0,0.0,0.0,0.0,0.0,0.0,0.0,0.0,0.0,0.0,0.0,0.0,0.0,0.0,0.0,0.0,0.0,0.0,0.0,0.0,0.0,0.0,0.0,0.0,0.0,0.0,0.0,0.0,0.0,0.0,0.0,0.0,0.0,0.0,0.0,0.0,0.0,0.0,0.0,0.0,0.0,0.0,0.0,0.0,0.0,0.0,0.0,0.0,0.0,0.0,0.0,0.0,0.0,0.0,0.0,0.0,0.0,0.0,0.0,0.0,0.0,0.0,0.0,0.0,0.0,0.0,0.0,0.0,0.0,0.0,0.0,0.0,0.0,0.0,0.0,0.0,0.0,-0.8384,-0.9091,-0.9917,-1.0515,-1.0906,-1.1215,-1.1505,0.0,0.0,0.0,0.0,0.0,0.0,0.0,0.0,0.0,0.0,0.0,0.0,0.0,0.0,0.0,0.0,0.0,0.0,0.0,0.0,0.0,0.0,0.0,0.0,0.0,0.0,0.0,0.0,0.0,0.0,0.0,0.0,0.0,0.0,0.0,0.0,0.0,0.0,0.0,0.0,0.0,0.0,0.0,0.0,0.0,0.0,0.0,0.0,-0.917,0.0,0.0,0.0,0.0,0.0,0.0,0.0,0.0,0.0,0.0,0.0,0.0,0.0,0.0,0.0,0.0,0.0,0.0,0.0,0.0,0.0,0.0,0.0,0.0,0.0,0.0,0.0,0.0,0.0,0.0,0.0,0.0,0.0,0.0,0.0,0.0,0.0,0.0,0.0,0.0,0.0,0.0,0.0,0.0,0.0,0.0,0.0,0.0,0.0,0.0,0.0,0.0,0.0,0.0,0.0,0.0,0.0,0.0,0.0,-0.8503,-0.9331,-1.0156,-1.0799,-1.1191,-1.071,-1.093,0.0,0.0,0.0,0.0,0.0,0.0,0.0,0.0,0.0,0.0,0.0,0.0,0.0,0.0,0.0,0.0,0.0,0.0,0.0,0.0,0.0,0.0,0.0,0.0,0.0,0.0,0.0,0.0,0.0,0.0,0.0,0.0,0.0,0.0,0.0,0.0,0.0,0.0,0.0,0.0,0.0,0.0,0.0,0.0,0.0,0.0,0.0,0.0,0.0,0.0,0.0,0.0,0.0,0.0,0.0,0.0,0.0,0.0,0.0,0.0,0.0,0.0,0.0,0.0,0.0,0.0,0.0,0.0,0.0,0.0,0.0,0.0,0.0,0.0,0.0,0.0,0.0,0.0,0.0,0.0,0.0,0.0,0.0,0.0,0.0,0.0,0.0,0.0,0.0,0.0,0.0,0.0,0.0,0.0,0.0,0.0,0.0,0.0,0.0,0.0,0.0,0.0,0.0,0.0,0.0,0.0,0.0,-0.9126,-0.8771,-0.9583,-1.0296,-1.1025,-1.1795,-1.0588,-1.0602,-1.2031,0.0,0.0,0.0,0.0,0.0,0.0,0.0,0.0,0.0,0.0,0.0,0.0,0.0,0.0,0.0,0.0,0.0,0.0,0.0,0.0,0.0,0.0,0.0,0.0,0.0,0.0,0.0,0.0,0.0,0.0,0.0,0.0,0.0,0.0,0.0,0.0,0.0,0.0,-0.4928,-0.635,0.0,0.0,0.0,0.0,0.0,0.0,0.0,0.0,-0.7776,0.0,0.0,0.0,0.0,0.0,0.0,0.0,0.0,0.0,0.0,0.0,0.0,0.0,0.0,0.0,0.0,0.0,0.0,0.0,0.0,0.0,0.0,0.0,0.0,0.0,0.0,0.0,0.0,0.0,0.0,0.0,0.0,0.0,0.0,0.0,0.0,0.0,0.0,0.0,0.0,0.0,0.0,0.0,0.0,0.0,0.0,0.0,0.0,0.0,0.0,0.0,0.0,0.0,0.0,0.0,0.0,-0.9748,-0.9571,-0.9542,-0.9609,-0.9839,-1.007,-1.0256,-1.0028,-1.0697,-1.2294,0.0,0.0,0.0,0.0,0.0,0.0,0.0,0.0,0.0,0.0,0.0,0.0,0.0,0.0,0.0,0.0,0.0,0.0,0.0,0.0,0.0,0.0,0.0,0.0,0.0,0.0,0.0,0.0,0.0,0.0,0.0,0.0,0.0,0.0,0.0,0.0,0.0,0.0,0.0,-0.5694,-0.6091,0.0,0.0,0.0,0.0,0.0,0.0,0.0,0.0,-1.0186,0.0,0.0,0.0,0.0,0.0,0.0,0.0,0.0,0.0,0.0,0.0,0.0,0.0,0.0,0.0,0.0,0.0,0.0,0.0,0.0,0.0,0.0,0.0,0.0,0.0,0.0,0.0,0.0,0.0,0.0,0.0,0.0,0.0,0.0,0.0,0.0,0.0,0.0,0.0,0.0,0.0,0.0,0.0,0.0,0.0,0.0,0.0,0.0,0.0,0.0,0.0,0.0,0.0,0.0,0.0,-1.0906,-0.9655,-0.9179,-0.958,-0.9752,-0.9907,-0.9992,-0.9496,-1.0304,0.0,0.0,0.0,0.0,0.0,0.0,0.0,0.0,0.0,0.0,0.0,0.0,0.0,0.0,0.0,0.0,0.0,0.0,0.0,0.0,0.0,0.0,0.0,0.0,0.0,0.0,0.0,0.0,0.0,0.0,0.0,0.0,0.0,0.0,0.0,0.0,0.0,0.0,0.0,0.0,-0.6375,-0.6496,-0.6386,0.0,0.0,0.0,0.0,0.0,0.0,-0.9812,-1.1131,0.0,0.0,0.0,0.0,0.0,0.0,0.0,0.0,0.0,0.0,0.0,0.0,0.0,0.0,0.0,0.0,0.0,0.0,0.0,0.0,0.0,0.0,0.0,0.0,0.0,0.0,0.0,0.0,0.0,0.0,0.0,0.0,0.0,0.0,0.0,0.0,0.0,0.0,0.0,0.0,0.0,0.0,0.0,0.0,0.0,0.0,0.0,0.0,0.0,0.0,0.0,0.0,0.0,0.0,0.0,-1.2237,-0.9995,-0.905,-0.9633,-0.9811,-0.9967,-1.0096,-0.9342,-1.014,0.0,0.0,0.0,0.0,0.0,0.0,0.0,0.0,0.0,0.0,0.0,0.0,0.0,0.0,0.0,0.0,0.0,0.0,0.0,0.0,0.0,0.0,0.0,0.0,0.0,0.0,0.0,0.0,0.0,0.0,0.0,0.0,0.0,0.0,0.0,0.0,0.0,0.0,0.0,0.0,0.0,-0.719,-0.7133,-0.6811,0.0,0.0,0.0,0.0,-0.9117,-1.0444,0.0,0.0,0.0,0.0,0.0,0.0,0.0,0.0,0.0,0.0,0.0,0.0,0.0,0.0,0.0,0.0,0.0,0.0,0.0,0.0,0.0,0.0,0.0,0.0,0.0,0.0,0.0,0.0,0.0,0.0,0.0,0.0,0.0,0.0,0.0,0.0,0.0,0.0,0.0,0.0,0.0,0.0,0.0,0.0,0.0,0.0,0.0,0.0,0.0,0.0,0.0,0.0,0.0,0.0,0.0,0.0,-1.2503,-1.137,-1.0468,-0.9894,-0.9888,-0.9991,-1.0174,-1.007,-1.0878,0.0,0.0,0.0,0.0,0.0,0.0,0.0,0.0,0.0,0.0,0.0,0.0,0.0,0.0,0.0,0.0,0.0,0.0,0.0,0.0,0.0,0.0,0.0,0.0,0.0,0.0,0.0,0.0,0.0,0.0,0.0,0.0,0.0,0.0,0.0,0.0,0.0,0.0,0.0,0.0,0.0,-0.6755,-0.7429,-0.7544,-0.7393,0.0,0.0,-0.9866,-0.9511,-1.1934,0.0,0.0,0.0,0.0,0.0,0.0,0.0,0.0,0.0,0.0,0.0,0.0,0.0,0.0,0.0,0.0,0.0,0.0,0.0,0.0,0.0,0.0,0.0,0.0,0.0,0.0,0.0,0.0,0.0,0.0,0.0,0.0,0.0,0.0,0.0,0.0,0.0,0.0,0.0,0.0,0.0,0.0,0.0,0.0,0.0,0.0,0.0,0.0,0.0,0.0,0.0,0.0,0.0,0.0,0.0,-1.347,-1.2383,-1.1,-1.0101,-0.98,-0.9938,-1.0297,-1.0864,-1.0331,-1.1352,0.0,0.0,0.0,0.0,0.0,0.0,0.0,0.0,0.0,0.0,0.0,0.0,0.0,0.0,0.0,0.0,0.0,0.0,0.0,0.0,0.0,0.0,0.0,0.0,0.0,0.0,0.0,0.0,0.0,0.0,0.0,0.0,0.0,0.0,0.0,0.0,0.0,0.0,0.0,0.0,0.0,0.0,-0.7726,-0.8104,0.0,0.0,0.0,-0.982,-1.015,0.0,0.0,0.0,0.0,0.0,0.0,0.0,0.0,0.0,0.0,0.0,0.0,0.0,0.0,0.0,0.0,0.0,0.0,0.0,0.0,0.0,0.0,0.0,0.0,0.0,0.0,0.0,0.0,0.0,0.0,0.0,0.0,0.0,0.0,0.0,0.0,0.0,0.0,0.0,0.0,0.0,0.0,0.0,0.0,0.0,0.0,0.0,0.0,0.0,0.0,0.0,0.0,0.0,0.0,0.0,0.0,0.0,-1.2362,-1.0576,-0.9694,-0.9763,-0.9993,-1.0407,-1.106,-1.0368,0.0,0.0,0.0,0.0,0.0,0.0,0.0,0.0,0.0,0.0,0.0,0.0,0.0,0.0,0.0,0.0,0.0,0.0,0.0,0.0,0.0,0.0,0.0,0.0,0.0,0.0,0.0,-0.6455,0.0,0.0,0.0,0.0,0.0,0.0,0.0,0.0,0.0,0.0,0.0,0.0,0.0,0.0,-0.9015,-0.8523,-0.8908,-0.9416,0.0,0.0,-1.0248,-1.1115,-1.2717,-1.402,0.0,0.0,0.0,0.0,0.0,0.0,0.0,0.0,0.0,0.0,0.0,0.0,0.0,0.0,0.0,0.0,0.0,0.0,0.0,0.0,0.0,0.0,0.0,0.0,0.0,0.0,0.0,0.0,0.0,0.0,0.0,0.0,0.0,0.0,0.0,0.0,0.0,0.0,0.0,0.0,0.0,0.0,0.0,0.0,0.0,0.0,0.0,0.0,0.0,0.0,0.0,0.0,0.0,0.0,0.0,-1.2607,-1.0739,-0.9846,-0.9977,-1.0057,-1.0153,-1.0277,-1.0224,-1.1472,0.0,0.0,0.0,0.0,0.0,0.0,0.0,0.0,0.0,0.0,0.0,0.0,0.0,0.0,0.0,0.0,0.0,0.0,0.0,0.0,0.0,0.0,0.0,0.0,0.0,0.0,0.0,0.0,0.0,0.0,0.0,0.0,0.0,0.0,0.0,0.0,0.0,0.0,0.0,0.0,0.0,-0.9998,-1.0184,-1.0192,-1.0411,0.0,0.0,-1.1978,-1.2645,-1.4507,-1.5619,-1.4817,0.0,0.0,0.0,0.0,0.0,0.0,0.0,0.0,0.0,0.0,0.0,0.0,0.0,0.0,0.0,0.0,0.0,0.0,0.0,0.0,0.0,0.0,0.0,0.0,0.0,0.0,0.0,0.0,0.0,0.0,0.0,0.0,0.0,0.0,0.0,0.0,0.0,0.0,0.0,0.0,0.0,0.0,0.0,0.0,0.0,0.0,0.0,0.0,0.0,0.0,0.0,0.0,0.0,-1.3978,-1.2607,-1.0832,-1.0197,-1.077,-1.0861,-1.1422,-1.2457,-1.2483,-1.2928,0.0,0.0,0.0,0.0,0.0,0.0,0.0,0.0,0.0,0.0,0.0,0.0,0.0,0.0,0.0,0.0,0.0,0.0,0.0,0.0,0.0,0.0,0.0,0.0,0.0,0.0,0.0,0.0,-0.7149,-0.773,-1.0072,0.0,0.0,0.0,0.0,0.0,0.0,0.0,0.0,0.0,0.0,-1.1053,-1.1386,-1.1448,0.0,0.0,-1.2033,-1.2446,-1.289,-1.4021,-1.4842,-1.4714,-1.5598,0.0,0.0,0.0,0.0,0.0,0.0,0.0,0.0,0.0,0.0,0.0,0.0,0.0,0.0,0.0,0.0,0.0,0.0,0.0,0.0,0.0,0.0,0.0,0.0,0.0,0.0,0.0,0.0,0.0,0.0,0.0,0.0,0.0,0.0,0.0,0.0,0.0,0.0,0.0,0.0,0.0,0.0,0.0,0.0,0.0,0.0,0.0,0.0,0.0,0.0,0.0,0.0,-1.4,-1.3024,-1.1721,-1.1258,-1.1704,-1.1772,-1.2344,-1.3494,-1.3547,-1.3767,0.0,0.0,0.0,0.0,0.0,0.0,0.0,0.0,0.0,0.0,0.0,0.0,0.0,0.0,0.0,0.0,0.0,0.0,0.0,0.0,0.0,0.0,0.0,0.0,0.0,0.0,0.0,0.0,-0.8118,-0.8316,-1.0821,0.0,0.0,0.0,0.0,0.0,0.0,0.0,0.0,0.0,0.0,-1.1746,-1.1746,-1.2082,-1.2426,-1.2637,-1.2707,-1.297,-1.3635,-1.401,-1.4332,-1.4648,0.0,0.0,0.0,0.0,0.0,0.0,0.0,0.0,0.0,0.0,0.0,0.0,0.0,0.0,0.0,0.0,0.0,0.0,0.0,0.0,0.0,0.0,0.0,0.0,0.0,0.0,0.0,0.0,0.0,0.0,-1.8532,0.0,0.0,0.0,0.0,0.0,0.0,0.0,0.0,0.0,0.0,0.0,0.0,0.0,0.0,0.0,0.0,0.0,0.0,0.0,0.0,0.0,0.0,-1.5966,-1.4002,-1.353,-1.3138,-1.268,-1.268,-1.2728,-1.2791,-1.2752,-1.3541,-1.5226,0.0,0.0,0.0,0.0,0.0,0.0,0.0,0.0,0.0,0.0,0.0,0.0,0.0,0.0,0.0,0.0,0.0,0.0,0.0,0.0,0.0,0.0,0.0,0.0,0.0,0.0,-1.1543,-1.048,-1.0145,0.0,0.0,0.0,0.0,0.0,0.0,0.0,0.0,0.0,0.0,-1.3255,-1.1948,-1.1101,-1.1938,-1.2965,-1.3821,-1.3569,-1.3778,-1.5184,-1.494,-1.4622,0.0,0.0,0.0,0.0,0.0,0.0,0.0,0.0,0.0,0.0,0.0,0.0,0.0,0.0,0.0,0.0,0.0,0.0,0.0,0.0,0.0,0.0,0.0,0.0,0.0,0.0,0.0,-1.773,-1.7032,0.0,0.0,0.0,0.0,0.0,0.0,0.0,0.0,0.0,0.0,0.0,-1.8827,-1.8529,0.0,0.0,0.0,0.0,0.0,0.0,0.0,0.0,0.0,0.0,0.0,0.0,-1.6087,-1.4882,-1.3508,-1.3067,-1.3546,-1.3571,-1.384,-1.4412,-1.4426,-1.4976,-1.6116,0.0,0.0,0.0,0.0,0.0,0.0,0.0,0.0,0.0,0.0,0.0,0.0,0.0,0.0,0.0,0.0,0.0,0.0,0.0,0.0,0.0,0.0,0.0,0.0,0.0,-1.1421,0.0,0.0,0.0,0.0,0.0,0.0,0.0,0.0,0.0,0.0,0.0,-1.2573,-1.2565,-1.2229,-1.1985,-1.2025,-1.2414,-1.3113,0.0,0.0,0.0,0.0,0.0,0.0,0.0,0.0,0.0,0.0,0.0,0.0,0.0,0.0,-1.9108,-1.7382,-1.7485,-1.7844,-1.7932,0.0,0.0,0.0,0.0,0.0,0.0,0.0,0.0,0.0,0.0,0.0,0.0,0.0,0.0,-1.8156,0.0,-1.8978,0.0,0.0,0.0,0.0,0.0,0.0,0.0,0.0,-1.8026,-1.7907,-1.7975,-1.797,-1.8261,0.0,-1.9668,-2.0077,0.0,0.0,0.0,0.0,0.0,0.0,0.0,0.0,-1.6419,-1.5338,-1.4106,-1.3791,-1.4418,-1.4463,-1.4734,-1.5317,-1.5327,-1.586,-1.6982,-1.5423,-1.5444,0.0,0.0,0.0,0.0,0.0,0.0,0.0,0.0,0.0,0.0,0.0,0.0,0.0,0.0,0.0,0.0,0.0,0.0,0.0,0.0,0.0,0.0,0.0,-1.2101,0.0,0.0,0.0,0.0,0.0,0.0,0.0,0.0,0.0,-1.1521,-1.2648,-1.309,-1.1935,-1.2508,-1.2974,-1.2834,0.0,0.0,0.0,0.0,0.0,0.0,0.0,-1.4471,-1.5283,-1.7234,-1.8554,-1.8233,-1.8805,-1.8845,-1.7476,0.0,0.0,-1.7374,-1.7805,-1.8339,-1.7881,-1.8124,-1.8515,-1.8908,-1.9241,-1.9457,0.0,0.0,0.0,0.0,0.0,0.0,0.0,0.0,-1.797,-1.7461,0.0,-1.9227,0.0,0.0,0.0,0.0,0.0,-1.912,0.0,0.0,-1.8178,-1.7791,-1.7832,-1.789,-1.7922,-1.7982,-1.8926,-1.9375,-1.9441,-2.0981,0.0,0.0,0.0,0.0,0.0,0.0,-1.6992,-1.5507,-1.5323,-1.5291,-1.5297,-1.5284,-1.533,-1.5403,-1.5422,-1.6174,-1.7622,-1.7037,-1.7098,-1.8007,-1.7477,0.0,0.0,0.0,0.0,0.0,0.0,0.0,0.0,0.0,0.0,0.0,0.0,0.0,0.0,0.0,0.0,0.0,0.0,0.0,0.0,-1.311,0.0,0.0,0.0,0.0,0.0,0.0,0.0,0.0,0.0,0.0,-1.5593,-1.4122,-1.2649,-1.2442,0.0,0.0,0.0,0.0,-1.5257,-1.4925,-1.486,-1.5151,-1.6036,-1.5339,-1.5151,-1.6431,0.0,0.0,-2.0003,-1.9401,-1.8646,-1.7707,-1.8682,-1.9326,-1.839,-1.8846,-1.9175,-1.8441,-1.8422,-1.88,-1.959,-1.9382,-1.9282,-1.9643,0.0,0.0,0.0,0.0,-1.9561,-1.9496,-1.9606,-1.9545,-1.9051,-1.8383,-1.9701,0.0,0.0,0.0,0.0,0.0,0.0,-1.8817,-1.8261,-1.7356,-1.6953,-1.7001,-1.7602,-1.82,-1.8791,-1.9604,-2.005,-2.0095,-2.0564,-2.0831,-2.0839,0.0,0.0,0.0,0.0,-1.674,-1.6308,-1.5652,-1.5311,-1.5374,-1.5355,-1.5385,-1.5409,-1.5955,-1.6462,-1.6924,-1.6921,-1.7501,-1.8649,-1.0083,0.0,0.0,0.0,0.0,0.0,0.0,0.0,0.0,0.0,0.0,0.0,0.0,0.0,0.0,0.0,0.0,0.0,0.0,0.0,-1.3266,-1.0944,-1.0963,0.0,0.0,0.0,0.0,0.0,0.0,0.0,0.0,0.0,-1.4419,-1.4169,-1.4029,0.0,0.0,-1.3564,-1.424,-1.4027,-1.4348,-1.5937,-1.6158,0.0,0.0,-1.602,-1.5421,-1.711,-1.8434,-1.9401,-1.9906,-1.9722,-1.9273,-1.8448,-1.9076,-1.9311,-1.8049,-1.8674,-1.9819,-2.0703,-2.025,-1.9541,-1.9691,-1.9628,-2.0093,-1.9821,-1.9343,-1.9419,-1.9477,-1.9488,-1.9144,-1.9278,-1.9662,-1.9239,-1.879,-1.8447,-1.9602,-1.9616,-1.8818,-1.9769,0.0,0.0,0.0,-1.8135,-1.7357,-1.648,-1.6262,-1.6653,-1.7502,-1.8311,-1.9112,-1.9949,-2.0359,-2.038,-2.0052,-2.0112,-2.0458,0.0,0.0,-1.9257,-1.7851,-1.6974,-1.6685,-1.6149,-1.5873,-1.5931,-1.5912,-1.6076,-1.6406,-1.625,-1.6269,-1.6641,-1.7109,-1.7458,-1.7626,-1.1653,-0.9472,0.0,0.0,0.0,0.0,0.0,0.0,0.0,0.0,0.0,0.0,0.0,-1.581,0.0,0.0,0.0,0.0,-1.3769,-1.4228,-1.6198,-1.3783,0.0,0.0,0.0,0.0,0.0,0.0,0.0,-1.5318,-1.601,-1.6275,-1.5515,-1.5654,-1.5746,-1.5489,-1.5178,-1.52,-1.5844,0.0,-1.5602,-1.691,-1.7217,-1.7442,-1.7855,-1.6857,-1.6624,-1.844,-1.9068,-1.9532,-1.9992,-2.005,-1.9811,-1.9478,-1.9668,-1.9688,-1.8744,-1.9514,-2.0717,-2.2114,-2.1122,-1.9966,-1.9843,-2.0167,-2.0851,-2.0249,-1.9987,-1.8988,-1.8584,-1.8531,-1.7823,-1.802,-1.8793,-1.7935,-1.7526,-1.77,-1.9133,-1.9315,-1.8584,-1.9488,0.0,-1.7992,-1.7849,-1.7447,-1.6759,-1.5861,-1.5927,-1.6757,-1.7589,-1.8374,-1.9172,-1.9964,-2.0353,-2.0339,-1.9573,-1.96,-2.0373,-2.0385,-1.999,-1.9191,-1.8273,-1.744,-1.6698,-1.6679,-1.6718,-1.6794,-1.6796,-1.7167,-1.793,-1.6426,-1.5996,-1.6777,-1.75,-1.7225,-1.5898,-1.8574,-1.4297,-0.1777,0.0,0.0,0.0,0.0,0.0,0.0,0.0,0.0,0.0,0.0,0.0,0.0,0.0,0.0,0.0,-1.5097,0.0,-2.007,-1.9389,0.0,0.0,0.0,-1.7941,-1.7921,-1.8455,-1.8546,-1.7866,0.0,0.0,-1.8142,-1.8004,-1.7632,-1.6663,-1.775,-1.8427,-1.7846,-1.8069,-1.8241,-1.8007,-1.8307,-1.8431,-1.8332,-1.8033,-1.8412,-1.9842,-2.0292,-2.0265,-2.0285,-2.0285,-2.0285,-2.0219,-2.0285,-2.0265,-2.0285,-2.0776,-2.1639,-2.2342,-2.1272,-2.0165,-2.0345,-2.0823,-2.1133,-2.0796,-2.0523,-1.9538,-1.9255,-1.9488,-1.9399,-1.9437,-1.9544,-1.9428,-1.9313,-1.9265,-1.9639,-1.9714,-1.963,-1.9869,-1.9894,-1.9665,-1.8882,-1.8457,-1.8223,-1.7273,-1.7248,-1.8049,-1.8264,-1.8804,-1.9614,-1.9834,-2.0041,-2.0161,-1.9973,-1.9715,-1.9439,-1.9433,-1.9022,-1.8236,-1.7345,-1.6792,-1.6564,-1.655,-1.6876,-1.7509,-1.754,-1.7641,-1.7858,-1.7434,-1.7327,-1.7549,-1.7719,-1.7967,-1.8242,-1.7246,-1.3945,-0.8145,-0.2852,0.0,0.0,0.0,0.0,0.0,0.0,0.0,0.0,0.0,-1.7103,-1.6472,0.0,-1.6715,0.0,-1.6398,-1.7669,-1.8391,-1.8306,0.0,0.0,-1.8769,-1.8887,-1.9784,-1.9225,-1.8673,-1.8564,-1.8351,-1.8317,-1.8641,-1.8674,-1.8637,-1.8508,-1.8309,-1.823,-1.8436,-1.9258,-1.9771,-1.9798,-2.0757,-2.1387,-2.047,-2.0005,-1.9792,-2.0227,-2.0292,-2.0292,-2.0292,-2.0292,-2.0292,-2.0292,-2.0292,-2.0292,-2.0292,-2.0485,-2.0639,-2.0889,-2.0999,-2.1355,-2.1961,-2.1325,-2.0897,-2.1745,-2.1533,-2.0904,-2.0695,-2.0746,-2.0007,-1.9895,-2.0208,-1.9857,-1.9688,-1.9707,-1.9625,-1.9688,-1.9903,-1.9898,-1.9818,-1.9597,-1.9057,-1.8545,-1.8108,-1.7572,-1.7709,-1.8482,-1.8503,-1.8958,-1.979,-1.9809,-1.985,-1.9974,-2.002,-1.9882,-1.9542,-1.96,-1.9226,-1.8376,-1.7182,-1.6736,-1.7059,-1.709,-1.769,-1.8908,-1.8577,-1.8562,-1.891,-1.7819,-1.7408,-1.7776,-1.7427,-1.7481,-1.7988,-1.7825,-1.5098,-0.9531,-0.918,-1.2161,0.0,0.0,0.0,0.0,0.0,0.0,0.0,0.0,0.0,0.0,0.0,-1.8704,-1.7662,-1.8997,-1.9883,-1.9812,-1.942,-1.9646,-2.0853,-2.0441,-2.0367,-2.1025,-2.0493,-1.9927,-1.9554,-1.9301,-1.957,-2.0584,-2.0095,-1.9836,-2.0316,-1.9648,-1.9348,-1.9948,-2.0649,-2.1166,-2.1444,-2.2213,-2.2333,-2.1072,-2.0847,-2.0708,-2.0389,-2.0292,-2.0292,-2.0292,-2.0292,-2.0292,-2.0292,-2.0292,-2.0292,-2.0292,-2.0292,-2.0269,-2.0248,-2.0507,-2.1013,-2.1564,-2.1129,-2.091,-2.284,-2.2672,-2.238,-2.2248,-2.2014,-2.0335,-2.0114,-2.0879,-2.0022,-1.9667,-1.969,-1.9531,-1.9569,-1.9767,-1.9774,-1.9457,-1.8926,-1.9021,-1.8514,-1.7629,-1.7787,-1.8181,-1.8751,-1.8896,-1.9313,-2.0039,-2.0039,-2.0051,-2.0075,-2.0234,-2.0289,-2.0252,-2.0257,-1.9903,-1.9123,-1.7603,-1.714,-1.7764,-1.7999,-1.8854,-2.0312,-1.9531,-1.9438,-2.0063,-1.7879,-1.6995,-1.7707,-1.7153,-1.6842,-1.6984,-1.9227,-1.7143,-0.9993,-1.6501,-1.9983,0.0,-2.0005,0.0,0.0,0.0,0.0,0.0,0.0,0.0,0.0,-2.0515,-2.0286,-2.1182,-2.1865,-2.2246,-2.2301,-2.1465,-2.1523,-2.2889,-2.2634,-2.2216,-2.1942,-2.187,-2.1487,-2.0546,-2.0664,-2.1406,-2.2715,-2.1855,-2.1322,-2.1672,-2.1415,-2.1179,-2.157,-2.1931,-2.2376,-2.3053,-2.3034,-2.2553,-2.1592,-2.1554,-2.1545,-2.079,-2.0537,-2.0458,-2.0452,-2.0373,-2.0292,-2.0292,-2.0292,-2.0304,-2.0277,-2.0277,-2.0216,-2.003,-1.9977,-2.0036,-2.0288,-2.0572,-2.0653,-2.3515,-2.3237,-2.2422,-2.2432,-2.2949,-2.183,-2.1434,-2.1613,-2.1525,-2.1065,-2.0328,-2.028,-2.0018,-1.9668,-1.9645,-1.9618,-1.9635,-2.0189,-1.9961,-1.9231,-2.0392,-2.0641,-2.0191,-2.0848,-2.1268,-2.1406,-2.144,-2.1485,-2.1585,-2.1776,-2.1555,-2.0982,-2.0469,-2.0129,-1.9931,0.0,0.0,0.0,-1.9049,-1.9915,-2.0188,-1.9372,-1.9011,-1.9161,-1.8032,0.0,-1.7641,-1.816,-1.8491,-1.867,-1.9738,0.0,0.0,0.0,0.0,0.0,0.0,0.0,0.0,0.0,0.0,0.0,-2.2907,-2.25,-2.1855,-2.0964,-2.1649,-2.4374,-2.3029,-2.1993,-2.2285,-2.2559,-2.2812,-2.3086,-2.4199,-2.4453,-2.3122,-2.25,-2.1787,-2.0712,-2.1387,-2.2285,-2.3066,-2.3242,-2.2949,-2.2183,-2.2819,-2.2957,-2.1932,-2.2408,-2.3283,-2.4457,-2.4053,-2.3726,-2.4274,-2.3649,-2.2853,-2.2061,-2.1502,-2.1224,-2.0996,-2.0582,-2.0304,-2.0285,-2.0285,-2.0233,-2.0087,-2.0197,-2.018,-1.9899,-1.9638,-1.9532,-1.9832,-1.9968,-2.0282,-2.4468,0.0,-2.3746,-2.3742,0.0,-2.3417,-2.3135,-2.308,-2.2251,-2.1613,-2.1143,-2.114,-2.0997,-2.0778,-2.0778,-2.0835,-2.0899,-2.125,-2.1142,-2.0733,-2.1458,-2.1562,-2.1161,-2.1588,-2.1789,-2.1785,-2.1785,-2.1835,-2.19,-2.2066,-2.1957,-2.158,-2.1308,-2.1187,-2.1176,-2.0747,-1.9948,-1.8789,-2.0052,-2.0704,-2.0743,-2.079,-2.0817,-2.0795,0.0,0.0,0.0,0.0,0.0,0.0,0.0,0.0,0.0,0.0,0.0,-2.3428,-2.347,-2.3553,-2.3731,-2.3746,-2.3933,-2.4342,-2.4362,-2.3801,-2.2588,-2.2823,-2.376,-2.5449,-2.394,-2.298,-2.332,-2.3496,-2.3809,-2.4316,-2.4687,-2.4531,-2.3945,-2.3926,-2.3516,-2.2519,-2.2519,-2.3105,-2.4277,-2.3867,-2.3555,-2.3183,-2.3357,-2.35,-2.3152,-2.3611,-2.4457,-2.5168,-2.488,-2.4639,-2.5111,-2.476,-2.3877,-2.2962,-2.2246,-2.1692,-2.118,-2.0851,-2.0545,-2.0259,-2.0098,-2.0028,-2.0021,-2.0031,-2.0,-1.9832,-2.0163,-2.0197,-1.9811,-1.9875,-2.0455,-2.5313,-2.5293,-2.5088,-2.4991,-2.4967,-2.4632,-2.4478,-2.4352,0.0,0.0,0.0,-2.2002,-2.1994,-2.198,-2.1962,-2.198,-2.198,-2.2129,-2.2048,-2.1821,-2.2101,-2.214,-2.2024,-2.2154,-2.2227,-2.2208,-2.2208,-2.2225,-2.2225,-2.2374,-2.2452,-2.2449,-2.2412,-2.2434,-2.2429,-2.2394,-2.1771,-2.0671,-2.1101,-2.1403,-2.1483,-2.2134,-2.2517,-2.2498,-2.1718,-2.1248,-2.1176,-2.0699,-2.0755,-2.1411,-1.9851,-1.9945,-2.2274,-2.4471,-2.5197,-2.4208,-2.4178,-2.435,-2.4608,-2.4632,-2.4931,-2.5655,-2.5641,-2.502,-2.3617,-2.4746,-2.5537,-2.5629,-2.474,-2.4294,-2.4567,-2.4414,-2.4646,-2.5544,-2.4821,-2.4375,-2.4609,-2.5215,-2.5215,-2.4434,-2.3887,-2.4062,-2.5371,-2.4531,-2.3766,-2.4108,-2.3918,-2.3657,-2.4312,-2.4812,-2.5168,-2.5264,-2.5187,-2.5254,-2.5182,-2.501,-2.4511,-2.3601,-2.2881,-2.219,-2.1606,-2.1297,-2.0959,-2.0505,-2.0167,-2.0037,-1.9952,-1.9855,-1.9726,-1.9582,-2.0646,-2.1252,-2.0042,-2.0189,-2.0944,-2.5313,-2.5293,-2.5088,-2.4991,-2.4955,-2.4651,-2.4392,-2.4228,-2.3952,-2.3474,-2.285,-2.2832,-2.2464,-2.1837,-2.1818,-2.1818,-2.1855,-2.2518,-2.2482,0.0,-2.3217,-2.3492,-2.2868,-2.3547,-2.3859,-2.3859,-2.3859,-2.3859,-2.3879,-2.4022,-2.4141,-2.4064,-2.36,-2.3295,-2.3309,-2.3151,-2.2984,-2.2836,-2.2325,-2.2087,-2.2062,-2.1642,-2.1419,-2.1391,-2.0813,-2.0373,-2.0364,-2.0957,-2.13,-2.1512,-2.2331,-2.3022,-2.3485,-2.4775,-2.5466,-2.5362,-2.541,-2.5468,-2.5508,-2.5527,-2.5564,-2.5682,-2.5628,-2.5467,-2.5216,-2.536,-2.5474,-2.5363,-2.5257,-2.5301,-2.534,-2.5321,-2.536,-2.5516,-2.5399,-2.5311,-2.5388,-2.5508,-2.5566,-2.541,-2.5391,-2.5293,-2.5547,-2.543,-2.4902,-2.4414,-2.4641,-2.5177,-2.513,-2.5264,-2.5313,-2.5313,-2.5313,-2.5171,-2.4975,-2.4842,-2.4554,-2.4154,-2.3624,-2.3153,-2.2759,-2.2318,-2.1815,-2.1415,-2.0947,-2.0509,-1.992,-1.9638,-1.9628,-1.9575,-2.0499,-2.0978,-2.0684,-2.118,-2.1694,-2.5572,-2.5918,-2.5395,-2.5163,-2.5141,-2.4814,-2.4561,-2.4357,-2.4247,-2.4006,-2.3676,-2.3639,-2.3456,-2.3125,-2.3107,-2.3088,-2.3107,-2.3492,-2.3437,-2.3162,-2.3859,-2.4006,-2.3694,-2.4025,-2.419,-2.419,-2.419,-2.419,-2.4209,-2.4284,-2.4321,-2.4321,-2.4019,-2.3886,-2.3886,-2.3791,-2.3759,-2.3785,-2.3566,-2.3235,-2.2829,-2.3026,-2.3196,-2.3253,-2.2944,-2.2853,-2.2959,-2.3314,-2.3525,-2.3562,-2.4178,-2.4534,-2.459,-2.5168,-2.5503,-2.5485,-2.5637,-2.5684,-2.5664,-2.5684,-2.5703,-2.5703,-2.5634,-2.5609,-2.5601,-2.5524,-2.5409,-2.5313,-2.5354,-2.543,-2.5488,-2.5526,-2.5553,-2.5507,-2.5507,-2.5505,-2.5551,-2.5572,-2.5605,-2.5644,-2.5684,-2.5703,-2.5703,-2.5703,-2.5566,-2.5039,-2.5413,-2.5601,-2.5428,-2.537,-2.5332,-2.5313,-2.5303,-2.5212,-2.4943,-2.4636,-2.4461,-2.4357,-2.4095,-2.3685,-2.3232,-2.2799,-2.2287,-2.1399,-2.0974,-2.0674,-2.0281,-1.98,-1.9834,-2.0675,-2.1235,-2.1675,-2.1619,-2.2263,-2.2887,-2.5976,-2.6524,-2.5668,-2.5253,-2.5179,-2.4949,-2.4712,-2.4495,-2.4578,-2.4616,-2.458,-2.4377,-2.4266,-2.4266,-2.4266,-2.4247,-2.4209,-2.419,-2.419,-2.419,-2.419,-2.419,-2.419,-2.419,-2.419,-2.419,-2.419,-2.419,-2.419,-2.419,-2.419,-2.419,-2.419,-2.419,-2.419,-2.419,-2.419,-2.4208,-2.4356,-2.4135,-2.3546,-2.4321,-2.4804,-2.4942,-2.4954,-2.51,-2.5284,-2.5313,-2.5313,-2.5313,-2.5313,-2.5313,-2.5313,-2.5428,-2.5465,-2.5413,-2.5554,-2.5631,-2.5581,-2.5644,-2.5664,-2.5684,-2.5644,-2.5644,-2.5686,-2.5537,-2.5407,-2.5322,-2.5332,-2.538,-2.5438,-2.5457,-2.5466,-2.5466,-2.5466,-2.5467,-2.5505,-2.5551,-2.5597,-2.5605,-2.5664,-2.5703,-2.5703,-2.5703,-2.5664,-2.5664,-2.5678,-2.5596,-2.5447,-2.5409,-2.537,-2.5332,-2.5313,-2.5214,-2.501,-2.4632,-2.4409,-2.4495,-2.4339,-2.3953,-2.3492,-2.329,-2.296,-2.2004,-2.1417,-2.1287,-2.1215,-2.059,-2.0462,-2.127,-2.1969,-2.2556,-2.2537,-2.296,-2.3712,-2.6524,-2.6467,-2.5717,-2.5126,-2.494,-2.4981,-2.4828,-2.4673,-2.544,-2.5838,-2.5747,-2.486,-2.4534,-2.4478,-2.4479,-2.4375,-2.4209,-2.419,-2.419,-2.419,-2.419,-2.419,-2.419,-2.419,-2.419,-2.419,-2.419,-2.419,-2.419,-2.419,-2.419,-2.419,-2.419,-2.419,-2.419,-2.419,-2.419,-2.419,-2.4208,-2.419,-2.4135,-2.4373,-2.4607,-2.4818,-2.4937,-2.5091,-2.5284,-2.5313,-2.5313,-2.5313,-2.5313,-2.5313,-2.5313,-2.5428,-2.5476,-2.5409,-2.5465,-2.5519,-2.5517,-2.5576,-2.5605,-2.5605,-2.5664,-2.5703,-2.5696,-2.5629,-2.5486,-2.5359,-2.5361,-2.537,-2.5332,-2.5332,-2.5351,-2.5409,-2.539,-2.539,-2.5534,-2.5543,-2.5544,-2.5684,-2.5703,-2.5703,-2.5703,-2.5703,-2.5703,-2.5703,-2.5664,-2.559,-2.5511,-2.5447,-2.539,-2.5332,-2.5313,-2.5214,-2.4998,-2.4766,-2.4526,-2.4478,-2.4339,-2.4136,-2.3969,-2.3969,-2.3914,-2.3162,-2.3015,-2.252,-2.2299,-2.1951,-2.1399,-2.1639,-2.2373,-2.3162,-2.3621,-2.3437,-2.3272,-2.6447,-2.7255,-2.6428,-2.5926,-2.5703,-2.5617,-2.5536,-2.5474,-2.6195,-2.6663,-2.6873,-2.6494,-2.5993,-2.5362,-2.4767,-2.4444,-2.4375,-2.4247,-2.419,-2.419,-2.419,-2.419,-2.419,-2.419,-2.419,-2.419,-2.419,-2.419,-2.419,-2.419,-2.419,-2.419,-2.419,-2.419,-2.419,-2.419,-2.419,-2.419,-2.419,-2.419,-2.4228,-2.4393,-2.4591,-2.4804,-2.4911,-2.5088,-2.5274,-2.5313,-2.5313,-2.5313,-2.5313,-2.5313,-2.5313,-2.5351,-2.537,-2.5351,-2.539,-2.5456,-2.5511,-2.5531,-2.5547,-2.5548,-2.5573,-2.5607,-2.5703,-2.5638,-2.5542,-2.5441,-2.5357,-2.5332,-2.5313,-2.5313,-2.5332,-2.5409,-2.5428,-2.5447,-2.5524,-2.5553,-2.5586,-2.564,-2.5684,-2.5703,-2.5703,-2.5703,-2.5703,-2.5703,-2.5684,-2.5644,-2.5566,-2.551,-2.5438,-2.537,-2.5332,-2.5171,-2.4943,-2.4727,-2.4545,-2.4375,-2.4247,-2.419,-2.419,-2.419,-2.4061,-2.3639,-2.3309,-2.3033,-2.2795,-2.2354,-2.1877,-2.2336,-2.3015,-2.3841,-2.4153,-2.3859,-2.3841,-2.6909,-2.7736,-2.7155,-2.6732,-2.654,-2.6441,-2.6382,-2.6446,-2.7153,-2.7684,-2.7995,-2.8007,-2.7599,-2.6778,-2.5793,-2.5185,-2.483,-2.4672,-2.445,-2.4246,-2.419,-2.419,-2.419,-2.419,-2.419,-2.419,-2.419,-2.419,-2.419,-2.419,-2.419,-2.419,-2.419,-2.419,-2.419,-2.419,-2.419,-2.419,-2.419,-2.4228,-2.4303,-2.4478,-2.4642,-2.4798,-2.4936,-2.5099,-2.5284,-2.5313,-2.5313,-2.5313,-2.5313,-2.5313,-2.5313,-2.5313,-2.5313,-2.5313,-2.5351,-2.539,-2.5447,-2.5466,-2.5464,-2.5467,-2.5486,-2.5532,-2.5619,-2.5595,-2.5527,-2.5453,-2.5354,-2.5313,-2.5313,-2.5313,-2.5332,-2.539,-2.5428,-2.5447,-2.5481,-2.5548,-2.558,-2.5589,-2.5659,-2.5703,-2.5703,-2.5703,-2.5703,-2.5703,-2.5703,-2.5684,-2.5625,-2.5554,-2.5495,-2.5418,-2.537,-2.5212,-2.4981,-2.4842,-2.4623,-2.4428,-2.4339,-2.419,-2.419,-2.419,-2.4171,-2.3841,-2.3474,-2.3345,-2.3437,-2.296,-2.2611,-2.3676,-2.4171,-2.4153,-2.419,-2.4171,-2.4171,-2.8544,-2.7887,-2.758,-2.7357,-2.7198,-2.7381,-2.7333,-2.7251,-2.844,-2.9002,-2.9021,-2.9033,-2.8994,-2.8818,-2.7854,-2.6801,-2.5772,-2.5629,-2.5153,-2.4393,-2.4319,-2.4246,-2.419,-2.419,-2.4245,-2.4392,-2.4337,-2.4263,-2.4208,-2.419,-2.419,-2.419,-2.4245,-2.4226,-2.4208,-2.4301,-2.4245,-2.4281,-2.4337,-2.4358,-2.4547,-2.4723,-2.49,-2.4948,-2.4947,-2.513,-2.5312,-2.5313,-2.5313,-2.5313,-2.5313,-2.5313,-2.5313,-2.5313,-2.5313,-2.5313,-2.5313,-2.5313,-2.5332,-2.5428,-2.5476,-2.5457,-2.563,-2.5543,-2.55,-2.549,-2.5462,-2.5322,-2.5332,-2.5313,-2.5313,-2.5313,-2.5313,-2.537,-2.5351,-2.5385,-2.549,-2.5511,-2.5551,-2.5609,-2.5658,-2.5664,-2.5684,-2.5703,-2.5684,-2.5684,-2.5703,-2.5664,-2.5625,-2.5605,-2.5558,-2.5515,-2.5428,-2.536,-2.5273,-2.5041,-2.4904,-2.4712,-2.4426,-2.4228,-2.4209,-2.419,-2.4135,-2.4116,-2.3988,-2.3969,-2.4098,-2.4061,-2.3896,-2.419,-2.419,-2.419,-2.419,-2.419,-2.419,-2.8486,-2.8659,-2.8564,-2.8396,-2.8241,-2.8308,-2.8275,-2.8318,-2.9254,-2.9775,-2.9917,-2.9948,-2.9929,-2.9917,-2.9574,-2.8393,-2.6766,-2.6539,-2.6191,-2.5772,-2.5723,-2.5741,-2.5731,-2.5731,-2.5731,-2.5676,-2.5199,-2.4685,-2.4226,-2.419,-2.419,-2.43,-2.4722,-2.4722,-2.4466,-2.5225,-2.5483,-2.5072,-2.5456,-2.5774,-2.5838,-2.616,-2.6348,-2.629,-2.5569,-2.5503,-2.6121,-2.5582,-2.5543,-2.6102,-2.5601,-2.5313,-2.5313,-2.5313,-2.5313,-2.5313,-2.5313,-2.5313,-2.537,-2.587,-2.6178,-2.6197,-2.6717,-2.6486,-2.562,-2.537,-2.537,-2.5351,-2.5332,-2.5313,-2.5313,-2.5313,-2.5332,-2.537,-2.539,-2.5399,-2.547,-2.5503,-2.5557,-2.5628,-2.561,-2.5579,-2.5574,-2.5567,-2.5583,-2.5625,-2.5644,-2.5625,-2.5644,-2.5625,-2.5582,-2.5567,-2.5507,-2.5437,-2.5447,-2.5179,-2.4949,-2.4776,-2.4554,-2.4392,-2.4339,-2.4228,-2.419,-2.4153,-2.419,-2.419,-2.4171,-2.4171,-2.419,-2.419,-2.419,-2.419,-2.419,-2.419,-2.419,-2.8775,-2.9437,-2.9428,-2.9315,-2.9202,-2.9174,-2.9174,-2.926,-2.9874,-3.0222,-3.0367,-3.0398,-3.0398,-3.0398,-3.0398,-2.9628,-2.8145,-2.7648,-2.7121,-2.6633,-2.6608,-2.6608,-2.6612,-2.6622,-2.6603,-2.6518,-2.6062,-2.5383,-2.4722,-2.485,-2.4832,-2.4667,-2.5383,-2.5364,-2.4945,-2.5929,-2.6224,-2.5656,-2.5962,-2.6337,-2.6648,-2.6761,-2.7005,-2.7141,-2.6538,-2.639,-2.6987,-2.6458,-2.6227,-2.6477,-2.6034,-2.561,-2.5341,-2.5313,-2.5313,-2.5313,-2.5313,-2.5447,-2.5726,-2.6264,-2.6706,-2.7005,-2.7505,-2.7313,-2.6236,-2.5659,-2.5803,-2.6418,-2.5736,-2.5313,-2.5313,-2.5313,-2.5313,-2.5351,-2.537,-2.537,-2.5428,-2.5447,-2.553,-2.5568,-2.5495,-2.5459,-2.5485,-2.5506,-2.5521,-2.5561,-2.5562,-2.5576,-2.5615,-2.5595,-2.5556,-2.5559,-2.5506,-2.5507,-2.5503,-2.533,-2.51,-2.4927,-2.4872,-2.4697,-2.4464,-2.4358,-2.4228,-2.4209,-2.419,-2.419,-2.419,-2.419,-2.419,-2.419,-2.419,-2.419,-2.419,-2.419,-2.419,-2.9621,-3.0328,-3.0103,-2.9966,-2.9913,-2.9913,-2.9956,-2.9999,-3.0248,-3.0367,-3.0398,-3.0398,-3.0398,-3.0398,-3.0494,-3.0271,-2.9787,-2.9099,-2.8147,-2.7101,-2.6854,-2.6909,-2.705,-2.6954,-2.6808,-2.6741,-2.6631,-2.619,-2.5456,-2.6007,-2.6025,-2.5678,-2.6209,-2.619,-2.5421,-2.6297,-2.6368,-2.5826,-2.5841,-2.6176,-2.6749,-2.6624,-2.6868,-2.7553,-2.7788,-2.7918,-2.7948,-2.7775,-2.7323,-2.6814,-2.6601,-2.6168,-2.5505,-2.5351,-2.5313,-2.5303,-2.5322,-2.5764,-2.6437,-2.6706,-2.7225,-2.7755,-2.7967,-2.8102,-2.7775,-2.6697,-2.6937,-2.8802,-2.7475,-2.563,-2.564,-2.5601,-2.5486,-2.5313,-2.5313,-2.5332,-2.5332,-2.5351,-2.5409,-2.5457,-2.539,-2.537,-2.5457,-2.5466,-2.5473,-2.5487,-2.5486,-2.5508,-2.5527,-2.5547,-2.5508,-2.5493,-2.5492,-2.5505,-2.5528,-2.5512,-2.5325,-2.5146,-2.5157,-2.508,-2.4749,-2.4566,-2.4393,-2.4321,-2.4209,-2.4209,-2.4266,-2.4284,-2.4209,-2.419,-2.419,-2.4209,-2.419,-2.419,-2.419,-3.0506,-3.1167,-3.0561,-3.0286,-3.0267,-3.0286,-3.0267,-3.0286,-3.0367,-3.0398,-3.0398,-3.0398,-3.0398,-3.0552,-3.0987,-3.1156,-3.092,-3.1108,-3.0599,-2.9386,-2.8592,-2.8833,-2.9452,-2.8745,-2.7958,-2.7512,-2.7438,-2.7016,-2.641,-2.6502,-2.6447,-2.641,-2.7016,-2.6979,-2.6358,-2.7498,-2.7864,-2.7211,-2.7592,-2.8066,-2.8341,-2.8331,-2.8554,-2.8973,-2.9232,-2.9443,-2.9533,-2.7948,-2.7495,-2.8176,-2.7217,-2.6468,-2.616,-2.563,-2.5313,-2.536,-2.6062,-2.6533,-2.6928,-2.7775,-2.8352,-2.8756,-2.9236,-2.9583,-2.9621,-2.9071,-2.9148,-3.0321,-2.934,-2.8555,-2.7788,-2.7286,-2.6592,-2.5437,-2.5313,-2.539,-2.537,-2.5351,-2.5332,-2.5351,-2.5332,-2.5332,-2.537,-2.539,-2.5505,-2.539,-2.5444,-2.5514,-2.5545,-2.5511,-2.5526,-2.5506,-2.5503,-2.5473,-2.5522,-2.5507,-2.54,-2.5303,-2.5328,-2.5322,-2.5044,-2.4861,-2.4639,-2.4424,-2.4302,-2.4284,-2.4339,-2.4303,-2.4228,-2.4209,-2.4228,-2.4228,-2.4209,-2.419,-2.419,-3.1391,-3.2006,-3.1237,-3.0891,-3.0833,-3.0564,-3.0398,-3.0398,-3.0398,-3.0398,-3.0448,-3.0775,-3.0871,-3.1064,-3.1775,-3.2058,-3.1953,-3.2424,-3.2253,-3.1532,-3.0526,-3.0619,-3.1182,-3.0099,-2.9035,-2.8374,-2.8246,-2.7824,-2.709,-2.7328,-2.7346,-2.7218,-2.786,-2.7842,-2.7218,-2.8301,-2.8614,-2.8011,-2.8256,-2.8714,-2.8915,-2.8934,-2.9137,-2.9532,-2.9829,-3.0013,-3.0028,-2.8579,-2.8203,-2.8733,-2.7785,-2.7035,-2.6754,-2.6436,-2.6263,-2.6408,-2.6888,-2.7445,-2.7802,-2.8582,-2.9275,-2.9602,-3.0102,-3.0359,-3.0379,-3.0398,-3.0398,-3.0398,-3.0283,-2.9863,-2.8596,-2.8114,-2.7439,-2.6727,-2.6447,-2.614,-2.589,-2.5476,-2.5322,-2.5428,-2.589,-2.586,-2.5495,-2.6024,-2.587,-2.5572,-2.561,-2.564,-2.562,-2.5457,-2.5447,-2.5428,-2.5418,-2.5444,-2.5495,-2.5486,-2.5459,-2.5446,-2.5453,-2.5425,-2.529,-2.5244,-2.5101,-2.4747,-2.4532,-2.4556,-2.4604,-2.4339,-2.4209,-2.4209,-2.4284,-2.4228,-2.419,-2.419,-2.419,-3.2237,-3.2833,-3.2102,-3.1775,-3.1641,-3.091,-3.0571,-3.0513,-3.0544,-3.0552,-3.0706,-3.141,-3.1749,-3.1934,-3.2615,-3.2968,-3.2971,-3.2974,-3.3158,-3.3029,-3.2344,-3.1844,-3.1304,-3.0736,-3.0063,-2.9347,-2.9214,-2.8778,-2.8136,-2.865,-2.8668,-2.8026,-2.8521,-2.865,-2.8117,-2.865,-2.865,-2.8117,-2.799,-2.8375,-2.8962,-2.854,-2.8611,-2.9377,-2.9695,-2.9846,-2.9749,-2.9599,-2.9427,-2.9071,-2.842,-2.7887,-2.7397,-2.7685,-2.8007,-2.7857,-2.7972,-2.8483,-2.8986,-2.9217,-2.9563,-3.0198,-3.0321,-3.0398,-3.0398,-3.0398,-3.0398,-3.0398,-3.0398,-2.9802,-2.861,-2.8264,-2.8362,-2.8604,-2.7978,-2.7351,-2.6659,-2.5841,-2.537,-2.562,-2.6659,-2.7544,-2.6245,-2.7159,-2.689,-2.6505,-2.6409,-2.6024,-2.5563,-2.5351,-2.5313,-2.5332,-2.5351,-2.539,-2.5447,-2.5425,-2.5399,-2.5477,-2.5506,-2.5488,-2.5496,-2.5493,-2.5438,-2.5096,-2.4835,-2.4853,-2.4766,-2.4556,-2.4442,-2.4543,-2.4495,-2.4303,-2.4266,-2.4321,-2.4303,-3.3083,-3.3737,-3.2949,-3.2583,-3.2468,-3.1698,-3.1371,-3.1371,-3.1352,-3.1359,-3.1532,-3.2237,-3.2583,-3.2679,-3.3468,-3.3872,-3.3901,-3.4213,-3.4355,-3.4279,-3.3834,-3.2701,-3.1792,-3.1792,-3.1501,-3.0797,-3.0595,-3.0356,-2.9641,-2.9696,-2.942,-2.8741,-2.8851,-2.8902,-2.8755,-2.8865,-2.8883,-2.8718,-2.8682,-2.875,-2.8925,-2.8864,-2.8963,-2.9338,-2.9533,-2.9639,-2.9679,-2.9736,-2.9491,-2.8998,-2.9506,-2.936,-2.8645,-2.9183,-2.9291,-2.8752,-2.9264,-2.9763,-2.9967,-3.0025,-3.0179,-3.034,-3.0398,-3.0398,-3.0398,-3.0398,-3.0398,-3.0398,-3.0379,-3.0225,-2.9802,-2.9667,-2.9794,-2.9737,-2.8813,-2.7775,-2.6995,-2.5976,-2.5313,-2.5582,-2.7918,-2.8948,-2.889,-2.8313,-2.8275,-2.8409,-2.7621,-2.6428,-2.5832,-2.5495,-2.5591,-2.538,-2.5341,-2.5351,-2.5361,-2.5341,-2.5367,-2.547,-2.5518,-2.5537,-2.5566,-2.5604,-2.5546,-2.5369,-2.5254,-2.5226,-2.5069,-2.4853,-2.4891,-2.4893,-2.4762,-2.4644,-2.4636,-2.467,-2.4552,-3.3949,-3.4661,-3.3814,-3.3449,-3.3333,-3.2564,-3.2218,-3.2199,-3.2199,-3.2218,-3.2398,-3.3083,-3.3449,-3.3526,-3.4232,-3.4591,-3.4607,-3.4824,-3.4736,-3.447,-3.4101,-3.3198,-3.2308,-3.2426,-3.2184,-3.1476,-3.1421,-3.0925,-3.0283,-3.021,-2.9751,-2.9108,-2.8975,-2.8975,-2.8998,-2.9108,-2.9108,-2.9053,-2.909,-2.9127,-2.9017,-2.8975,-2.9067,-2.9222,-2.927,-2.9345,-2.9397,-2.9498,-2.9437,-2.9448,-2.9936,-3.011,-2.9571,-3.0044,-3.0071,-2.9456,-3.0071,-3.0379,-3.0398,-3.0398,-3.0398,-3.0398,-3.0398,-3.0398,-3.0398,-3.0398,-3.0398,-3.0398,-3.0398,-3.0398,-3.0398,-3.0398,-3.0398,-3.0244,-2.9506,-2.8648,-2.7975,-2.7072,-2.6505,-2.7024,-2.8591,-3.0398,-3.0398,-2.9467,-2.9563,-2.9737,-2.8736,-2.7448,-2.639,-2.613,-2.5976,-2.5937,-2.5822,-2.589,-2.5601,-2.5438,-2.539,-2.5476,-2.5495,-2.5509,-2.5679,-2.5727,-2.5625,-2.5566,-2.5565,-2.5518,-2.5313,-2.5178,-2.5214,-2.5168,-2.5072,-2.4984,-2.4943,-2.4907,-2.4794,-3.4795,-3.543,-3.4661,-3.4334,-3.4199,-3.341,-3.3045,-3.3045,-3.3045,-3.3045,-3.3237,-3.3949,-3.4314,-3.4359,-3.486,-3.5108,-3.504,-3.483,-3.4489,-3.4232,-3.3949,-3.3448,-3.2944,-3.2837,-3.2559,-3.2053,-3.1753,-3.1372,-3.1015,-3.0715,-3.0203,-2.9828,-2.9566,-2.9429,-2.9714,-2.9724,-2.9485,-2.9361,-2.9471,-2.9315,-2.9072,-2.8975,-2.904,-2.9021,-2.9044,-2.9067,-2.9175,-2.9392,-2.97,-2.9979,-3.0222,-3.0113,-2.9915,-3.0208,-3.034,-3.0283,-3.0321,-3.0398,-3.0398,-3.0398,-3.0398,-3.0398,-3.0398,-3.0398,-3.0398,-3.0398,-3.0475,-3.0698,-3.0456,-3.0398,-3.0436,-3.0456,-3.066,-3.0629,-3.0456,-3.0006,-2.9544,-2.8717,-2.8159,-2.8217,-2.9602,-3.0225,-3.0398,-3.0398,-3.0379,-3.014,-2.9294,-2.8352,-2.7428,-2.7101,-2.6986,-2.6918,-2.6764,-2.6563,-2.6072,-2.5563,-2.5505,-2.5486,-2.5457,-2.5514,-2.5815,-2.5854,-2.5701,-2.5625,-2.5625,-2.5586,-2.5511,-2.5447,-2.5468,-2.5418,-2.5262,-2.5206,-2.5148,-2.5111,-2.501,-3.5334,-3.5488,-3.5315,-3.5238,-3.5084,-3.4295,-3.391,-3.391,-3.393,-3.391,-3.4122,-3.4834,-3.5161,-3.5218,-3.5273,-3.5322,-3.5067,-3.4767,-3.4398,-3.3947,-3.4071,-3.4049,-3.379,-3.3636,-3.3548,-3.3462,-3.3566,-3.312,-3.2553,-3.2297,-3.2275,-3.1505,-3.1182,-3.1486,-3.1371,-3.1114,-3.0917,-3.0368,-3.0124,-2.9711,-2.9127,-2.9127,-2.9145,-2.909,-2.9072,-2.9053,-2.92,-2.9876,-3.0359,-3.0338,-3.0175,-3.0076,-3.0114,-3.0343,-3.0533,-3.0533,-3.0494,-3.0475,-3.0436,-3.0552,-3.0436,-3.0571,-3.0609,-3.0398,-3.0398,-3.0475,-3.0763,-3.1083,-3.0852,-3.0648,-3.0641,-3.1083,-3.1333,-3.1295,-3.091,-3.091,-3.1525,-3.0698,-2.9813,-2.9852,-3.0052,-3.0398,-3.0398,-3.0398,-3.0359,-3.0263,-2.9794,-2.9063,-2.8582,-2.814,-2.7948,-2.7871,-2.7678,-2.7409,-2.6736,-2.6226,-2.6072,-2.6159,-2.612,-2.6169,-2.6448,-2.6246,-2.619,-2.5937,-2.5664,-2.5625,-2.5586,-2.559,-2.559,-2.5532,-2.5547,-2.5544,-2.5546,-2.5418,-2.5269,-3.5507,-3.5507,-3.5507,-3.5432,-3.5277,-3.4946,-3.4721,-3.4678,-3.4768,-3.4814,-3.4891,-3.5339,-3.5488,-3.5474,-3.5247,-3.504,-3.4839,-3.4484,-3.4303,-3.4181,-3.4281,-3.434,-3.4546,-3.4376,-3.431,-3.4433,-3.4405,-3.3977,-3.344,-3.3258,-3.2883,-3.2241,-3.2241,-3.2072,-3.2223,-3.2203,-3.1526,-3.0897,-3.0964,-3.0502,-2.9274,-2.9787,-2.994,-2.9761,-2.9682,-2.9787,-3.0575,-3.0903,-3.1136,-3.1117,-3.0979,-3.0812,-3.0839,-3.1239,-3.1436,-3.1256,-3.1468,-3.1564,-3.1583,-3.1583,-3.1641,-3.1545,-3.1564,-3.1333,-3.1198,-3.1121,-3.1052,-3.1295,-3.1564,-3.1936,-3.1621,-3.159,-3.1955,-3.2102,-3.1641,-3.1744,-3.234,-3.1436,-3.0398,-3.0398,-3.034,-3.0398,-3.0398,-3.0475,-3.0456,-3.0417,-3.0321,-2.9698,-2.9756,-2.9313,-2.8909,-2.8717,-2.8544,-2.8159,-2.7448,-2.7005,-2.6794,-2.7044,-2.7381,-2.7545,-2.7807,-2.7346,-2.6804,-2.6504,-2.6211,-2.5723,-2.5664,-2.5684,-2.5977,-2.6309,-2.6406,-2.6172,-2.5985,-2.5906,-2.5679,-3.5507,-3.5493,-3.5465,-3.5304,-3.5138,-3.5251,-3.5184,-3.5086,-3.532,-3.5302,-3.5446,-3.546,-3.5507,-3.5393,-3.5011,-3.4774,-3.4523,-3.4242,-3.4157,-3.442,-3.4456,-3.4628,-3.4882,-3.4864,-3.4811,-3.4813,-3.4774,-3.432,-3.3923,-3.3677,-3.369,-3.2916,-3.2806,-3.305,-3.2901,-3.2842,-3.2531,-3.1591,-3.1881,-3.1403,-2.9989,-3.065,-3.0919,-3.0701,-3.0509,-3.0838,-3.1612,-3.1971,-3.2075,-3.2121,-3.2467,-3.2483,-3.2464,-3.2763,-3.3141,-3.2679,-3.2891,-3.2737,-3.2602,-3.2718,-3.2737,-3.2891,-3.2833,-3.2545,-3.2083,-3.1698,-3.1564,-3.2071,-3.2628,-3.3545,-3.2987,-3.2744,-3.2737,-3.2852,-3.2583,-3.2609,-3.2885,-3.1975,-3.1552,-3.066,-3.0571,-3.0475,-3.0571,-3.0686,-3.0629,-3.0571,-3.0494,-3.0417,-3.0436,-3.0283,-2.9756,-2.9544,-2.939,-2.8832,-2.8102,-2.7582,-2.7409,-2.764,-2.8189,-2.842,-2.8758,-2.8734,-2.8148,-2.7238,-2.6797,-2.6406,-2.6172,-2.6289,-2.666,-2.7148,-2.7344,-2.7207,-2.6875,-2.6484,-2.6289,-3.5507,-3.5474,-3.5273,-3.5138,-3.5051,-3.4926,-3.4813,-3.4813,-3.5053,-3.5155,-3.5207,-3.5398,-3.5411,-3.5403,-3.519,-3.4766,-3.4367,-3.4213,-3.4241,-3.4476,-3.4643,-3.5021,-3.5085,-3.5243,-3.5302,-3.5315,-3.5174,-3.4901,-3.4876,-3.5009,-3.4772,-3.4836,-3.4764,-3.4726,-3.4634,-3.4699,-3.3916,-3.2787,-3.2832,-3.2189,-3.1274,-3.1115,-3.152,-3.1362,-3.1335,-3.1584,-3.2091,-3.2769,-3.3241,-3.3517,-3.4435,-3.4731,-3.4614,-3.4762,-3.4795,-3.457,-3.4045,-3.3622,-3.3276,-3.3064,-3.2949,-3.2891,-3.3064,-3.3006,-3.2506,-3.1833,-3.2179,-3.3295,-3.4103,-3.4545,-3.3083,-3.3449,-3.3814,-3.3776,-3.3487,-3.343,-3.4436,-3.4378,-3.3372,-3.1987,-3.1256,-3.0725,-3.0994,-3.1263,-3.1398,-3.1314,-3.1064,-3.0852,-3.0698,-3.0533,-3.0225,-3.0179,-3.0206,-2.9506,-2.8756,-2.8275,-2.7967,-2.811,-2.8467,-2.8679,-2.9121,-2.9871,-2.9583,-2.8566,-2.7851,-2.7461,-2.7285,-2.7129,-2.7715,-2.8476,-2.8437,-2.8262,-2.7988,-2.7695,-2.7578,-3.5088,-3.5051,-3.4944,-3.4813,-3.4656,-3.4675,-3.4593,-3.4508,-3.4755,-3.4981,-3.4966,-3.4832,-3.4974,-3.5172,-3.4689,-3.4393,-3.4451,-3.4445,-3.4532,-3.4713,-3.4962,-3.5189,-3.5273,-3.5435,-3.5488,-3.546,-3.5369,-3.5304,-3.5324,-3.5398,-3.5493,-3.5455,-3.5507,-3.5507,-3.5455,-3.5273,-3.4657,-3.3846,-3.3695,-3.3118,-3.1774,-3.1525,-3.1795,-3.2553,-3.2479,-3.2601,-3.3335,-3.3846,-3.4333,-3.4573,-3.5128,-3.5422,-3.5507,-3.5507,-3.5507,-3.5435,-3.4974,-3.4564,-3.4276,-3.4257,-3.4295,-3.4276,-3.4218,-3.3987,-3.3718,-3.343,-3.3506,-3.4391,-3.441,-3.4603,-3.4314,-3.4603,-3.4814,-3.4814,-3.443,-3.4641,-3.5218,-3.5449,-3.4468,-3.3083,-3.2275,-3.1802,-3.1763,-3.2013,-3.2256,-3.2083,-3.1679,-3.1314,-3.0987,-3.066,-3.0398,-3.0379,-3.0379,-3.0071,-2.9467,-2.9159,-2.8775,-2.8841,-2.8937,-2.9148,-2.9448,-3.016,-3.0256,-2.9727,-2.9141,-2.8418,-2.8242,-2.8066,-2.8926,-2.9609,-2.9238,-2.8984,-2.9023,-2.8965,-2.8769,-3.4694,-3.4694,-3.4632,-3.4445,-3.4265,-3.442,-3.4375,-3.4218,-3.4529,-3.4813,-3.4882,-3.4338,-3.4545,-3.5053,-3.4699,-3.4339,-3.4714,-3.4734,-3.4868,-3.5007,-3.5166,-3.531,-3.5441,-3.5507,-3.5507,-3.5493,-3.5474,-3.5507,-3.546,-3.5493,-3.5479,-3.5393,-3.5407,-3.5407,-3.5379,-3.5331,-3.4726,-3.4541,-3.4444,-3.3825,-3.2646,-3.2219,-3.2649,-3.4041,-3.3635,-3.3801,-3.4522,-3.507,-3.5314,-3.54,-3.5488,-3.5507,-3.5507,-3.5507,-3.5661,-3.5878,-3.5718,-3.5526,-3.5449,-3.5391,-3.5218,-3.5199,-3.5411,-3.5064,-3.4814,-3.4795,-3.5276,-3.5334,-3.4911,-3.4622,-3.5141,-3.543,-3.5449,-3.543,-3.5411,-3.5488,-3.5449,-3.5449,-3.5257,-3.416,-3.3263,-3.2929,-3.291,-3.2526,-3.2699,-3.2718,-3.2352,-3.166,-3.1275,-3.0679,-3.0417,-3.0398,-3.0398,-3.0379,-3.0167,-3.009,-2.9833,-2.9763,-2.9802,-2.9898,-3.0102,-3.041,-3.0333,-3.0221,-2.9766,-2.9121,-2.9023,-2.9121,-2.9805,-3.0117,-2.9824,-2.9746,-2.9844,-2.9824,-2.9687,-3.4694,-3.4674,-3.4379,-3.4242,-3.4171,-3.4012,-3.3921,-3.3928,-3.4439,-3.4694,-3.4737,-3.432,-3.4513,-3.5076,-3.5117,-3.4851,-3.4832,-3.4963,-3.507,-3.5122,-3.5296,-3.5426,-3.5493,-3.5507,-3.5507,-3.5507,-3.5507,-3.5507,-3.5493,-3.5493,-3.535,-3.5219,-3.5185,-3.5153,-3.5203,-3.5249,-3.5066,-3.4945,-3.4999,-3.4622,-3.3989,-3.3992,-3.4139,-3.4245,-3.4379,-3.4567,-3.5101,-3.5659,-3.614,-3.6319,-3.5849,-3.5584,-3.5507,-3.5507,-3.6392,-3.6776,-3.6507,-3.5507,-3.5603,-3.5526,-3.5507,-3.5507,-3.5507,-3.5449,-3.5334,-3.5295,-3.5507,-3.5488,-3.5276,-3.5238,-3.543,-3.5488,-3.5507,-3.5507,-3.5507,-3.5507,-3.5507,-3.5488,-3.5295,-3.5238,-3.4353,-3.4141,-3.4064,-3.3526,-3.3083,-3.3103,-3.2968,-3.2295,-3.1756,-3.1314,-3.0948,-3.1044,-3.0956,-3.0917,-3.0737,-3.0698,-3.1275,-3.1044,-3.0833,-3.0794,-3.0775,-3.0833,-3.0525,-3.034,-2.9969,-2.9892,-2.9902,-3.0156,-3.0644,-3.0605,-3.0312,-3.0449,-3.0723,-3.0625,-3.0391,-3.5058,-3.4184,-3.4037,-3.3968,-3.3961,-3.3842,-3.3807,-3.3842,-3.408,-3.4394,-3.4391,-3.3447,-3.341,-3.4164,-3.4821,-3.5176,-3.5016,-3.519,-3.5226,-3.5179,-3.5373,-3.5507,-3.5507,-3.5507,-3.5507,-3.5507,-3.5507,-3.5507,-3.5479,-3.5354,-3.5171,-3.5122,-3.5108,-3.5107,-3.5202,-3.5258,-3.5302,-3.5258,-3.5162,-3.4904,-3.4617,-3.4612,-3.4703,-3.4708,-3.4865,-3.5086,-3.5469,-3.6089,-3.652,-3.6743,-3.6661,-3.6392,-3.5757,-3.5718,-3.6546,-3.9046,-3.7853,-3.6796,-3.6276,-3.5815,-3.5622,-3.5526,-3.5526,-3.5488,-3.5488,-3.5507,-3.5507,-3.5507,-3.5507,-3.5507,-3.5507,-3.5507,-3.5507,-3.5507,-3.5507,-3.5507,-3.5507,-3.5507,-3.5449,-3.5488,-3.5468,-3.5103,-3.4834,-3.4564,-3.418,-3.418,-3.3949,-3.3353,-3.291,-3.2564,-3.2237,-3.2025,-3.1852,-3.166,-3.1391,-3.1256,-3.2877,-3.2897,-3.216,-3.2006,-3.1525,-3.1333,-3.1025,-3.066,-3.0332,-3.0402,-3.0691,-3.0664,-3.0684,-3.0742,-3.0781,-3.0879,-3.0957,-3.0879,-3.0703,-3.5238,-3.4137,-3.41,-3.41,-3.4082,-3.3942,-3.3902,-3.3928,-3.4093,-3.442,-3.4393,-3.3617,-3.3207,-3.3492,-3.4762,-3.5369,-3.5203,-3.5417,-3.5369,-3.5339,-3.5388,-3.5474,-3.5507,-3.5507,-3.5507,-3.5507,-3.5507,-3.5507,-3.5489,-3.5446,-3.5372,-3.5056,-3.5382,-3.5382,-3.5472,-3.5825,-3.6118,-3.5849,-3.5703,-3.5348,-3.4925,-3.4869,-3.4981,-3.5131,-3.5362,-3.5595,-3.5907,-3.6935,-3.7397,-3.7584,-3.8238,-3.8104,-3.7334,-3.7392,-3.8084,-3.9623,-3.8796,-3.795,-3.7257,-3.668,-3.6051,-3.5988,-3.5795,-3.5815,-3.5507,-3.5507,-3.5507,-3.5507,-3.5507,-3.5507,-3.5507,-3.5507,-3.5507,-3.5507,-3.5507,-3.5507,-3.5507,-3.5507,-3.5507,-3.5507,-3.5507,-3.5507,-3.5334,-3.5411,-3.5334,-3.5295,-3.493,-3.4334,-3.3872,-3.3449,-3.3064,-3.2679,-3.2545,-3.2122,-3.1448,-3.1833,-3.357,-3.443,-3.3692,-3.3019,-3.2372,-3.191,-3.1564,-3.1167,-3.0859,-3.1122,-3.1545,-3.1053,-3.0625,-3.0781,-3.0918,-3.1016,-3.1055,-3.1055,-3.1113,-3.5027,-3.4907,-3.4945,-3.4917,-3.4807,-3.4365,-3.4152,-3.4242,-3.4716,-3.4906,-3.492,-3.5055,-3.4553,-3.4468,-3.4911,-3.5479,-3.5465,-3.5493,-3.5417,-3.5417,-3.5493,-3.5474,-3.546,-3.546,-3.5507,-3.5507,-3.5507,-3.5507,-3.5638,-3.5997,-3.553,-3.5,-3.5885,-3.5981,-3.6236,-3.6731,-3.693,-3.669,-3.6449,-3.595,-3.5465,-3.5289,-3.5322,-3.5428,-3.6046,-3.6613,-3.6695,-3.8012,-3.8777,-3.8796,-3.9508,-3.9912,-3.9315,-3.9296,-3.9931,-3.995,-3.958,-3.8931,-3.8584,-3.7603,-3.718,-3.7296,-3.7103,-3.6276,-3.557,-3.5584,-3.5565,-3.5795,-3.5988,-3.5853,-3.5738,-3.5526,-3.568,-3.5507,-3.5507,-3.5507,-3.5507,-3.5507,-3.5507,-3.5507,-3.5507,-3.5507,-3.5507,-3.5507,-3.5507,-3.543,-3.518,-3.4603,-3.4257,-3.3853,-3.3487,-3.3179,-3.3103,-3.2506,-3.1302,-3.2199,-3.4058,-3.4655,-3.4276,-3.3603,-3.2949,-3.2564,-3.2372,-3.2045,-3.1852,-3.2109,-3.2218,-3.1736,-3.1332,-3.1083,-3.11,-3.1424,-3.1816,-3.207,-3.2012,-3.6863,-3.6981,-3.6512,-3.5597,-3.4513,-3.4487,-3.4508,-3.4551,-3.4754,-3.464,-3.4416,-3.5062,-3.5026,-3.4641,-3.5051,-3.5417,-3.5304,-3.5446,-3.5289,-3.5242,-3.5289,-3.5369,-3.5369,-3.5398,-3.5507,-3.5507,-3.5512,-3.5839,-3.6281,-3.65,-3.6659,-3.6616,-3.6958,-3.6963,-3.7242,-3.7568,-3.764,-3.7406,-3.6993,-3.6406,-3.6194,-3.5661,-3.5684,-3.6153,-3.6322,-3.7017,-3.7559,-3.8646,-3.9142,-3.9508,-4.0123,-4.0373,-4.0489,-4.0489,-4.0489,-4.0489,-3.9912,-3.9888,-3.9696,-3.8527,-3.7738,-3.7777,-3.7584,-3.7026,-3.607,-3.6392,-3.6906,-3.706,-3.6964,-3.6815,-3.7002,-3.6565,-3.6161,-3.5718,-3.5507,-3.5507,-3.5507,-3.5507,-3.5507,-3.5507,-3.5507,-3.5507,-3.5507,-3.5507,-3.5507,-3.5468,-3.5199,-3.493,-3.4641,-3.4468,-3.418,-3.4064,-3.4026,-3.4122,-3.3071,-3.3776,-3.4718,-3.4757,-3.4834,-3.4334,-3.3776,-3.368,-3.3449,-3.3083,-3.2833,-3.3013,-3.2917,-3.2449,-3.2122,-3.1968,-3.1984,-3.2124,-3.2539,-3.3066,-3.2949,-3.7627,-3.7546,-3.7068,-3.6179,-3.5098,-3.4883,-3.4813,-3.4832,-3.4907,-3.4712,-3.4378,-3.5163,-3.5199,-3.4911,-3.5147,-3.5412,-3.5304,-3.5304,-3.5141,-3.5108,-3.5181,-3.5248,-3.5242,-3.532,-3.5507,-3.5507,-3.5565,-3.5872,-3.6603,-3.6949,-3.7437,-3.7925,-3.8319,-3.8345,-3.808,-3.8473,-3.8512,-3.7924,-3.7493,-3.6675,-3.6367,-3.6103,-3.6026,-3.6728,-3.7123,-3.7762,-3.8439,-3.9262,-3.9681,-3.9888,-4.0196,-4.045,-4.0489,-4.0489,-4.0489,-4.0489,-4.0489,-4.0489,-4.0142,-3.9604,-3.8757,-3.8931,-3.8527,-3.793,-3.7546,-3.77,-3.781,-3.8671,-3.8368,-3.8007,-3.8003,-3.7219,-3.6589,-3.6166,-3.5603,-3.5507,-3.5507,-3.5507,-3.5507,-3.5507,-3.5507,-3.5507,-3.5507,-3.5507,-3.5545,-3.5526,-3.5391,-3.5257,-3.5199,-3.5103,-3.5141,-3.5084,-3.5103,-3.5257,-3.5391,-3.5315,-3.5199,-3.5122,-3.5161,-3.5084,-3.4737,-3.4622,-3.4507,-3.4199,-3.4026,-3.3968,-3.3891,-3.3776,-3.3372,-3.2923,-3.2987,-3.3063,-3.3769,-3.4219,-3.3906,-3.6725,-3.6007,-3.629,-3.6577,-3.6625,-3.5627,-3.5105,-3.5122,-3.5304,-3.5374,-3.5292,-3.5488,-3.5488,-3.5372,-3.5468,-3.5398,-3.5289,-3.519,-3.5016,-3.4926,-3.5059,-3.5097,-3.5181,-3.5324,-3.5603,-3.5532,-3.5724,-3.6161,-3.6949,-3.7661,-3.8401,-3.9131,-3.9595,-3.9675,-3.9048,-3.989,-3.9554,-3.8293,-3.8093,-3.7199,-3.6411,-3.6488,-3.6771,-3.7098,-3.7945,-3.8666,-3.93,-3.9838,-4.0181,-4.0296,-4.0354,-4.0489,-4.0489,-4.0489,-4.0489,-4.0489,-4.0489,-4.0489,-4.045,-4.0373,-4.02,-4.0008,-3.9469,-3.9238,-3.9585,-3.9296,-3.8738,-3.9638,-3.9104,-3.8373,-3.795,-3.7627,-3.7243,-3.6781,-3.6276,-3.5641,-3.5661,-3.5507,-3.5507,-3.5507,-3.5507,-3.5507,-3.5507,-3.5507,-3.5565,-3.5565,-3.5507,-3.5507,-3.5565,-3.5507,-3.5507,-3.5507,-3.5507,-3.5507,-3.5526,-3.5699,-3.5661,-3.5603,-3.5661,-3.5776,-3.5622,-3.5391,-3.5276,-3.5166,-3.5007,-3.4776,-3.5045,-3.5315,-3.4681,-3.4063,-3.3994,-3.4183,-3.4913,-3.5176,-3.4746,-3.6838,-3.7252,-3.6753,-3.6664,-3.6692,-3.5799,-3.5369,-3.5403,-3.546,-3.5507,-3.5507,-3.5507,-3.5507,-3.5507,-3.546,-3.5354,-3.5053,-3.5122,-3.4944,-3.439,-3.4867,-3.4923,-3.5058,-3.5423,-3.582,-3.618,-3.6392,-3.6969,-3.8488,-3.8584,-3.9219,-4.0027,-4.0258,-4.0284,-4.0098,-4.0377,-4.005,-3.9646,-3.9138,-3.8344,-3.7319,-3.7387,-3.7565,-3.7599,-3.8638,-3.9431,-3.995,-4.0392,-4.0469,-4.0489,-4.0489,-4.0489,-4.0489,-4.0489,-4.0489,-4.0489,-4.0489,-4.0489,-4.0489,-4.045,-4.0469,-4.0373,-4.0277,-4.0142,-4.0315,-4.0065,-4.0123,-4.0258,-3.9892,-3.945,-3.9604,-3.8988,-3.8507,-3.8046,-3.7406,-3.6367,-3.5982,-3.5661,-3.5507,-3.5507,-3.5507,-3.5641,-3.5699,-3.568,-3.5685,-3.6122,-3.6199,-3.5892,-3.5815,-3.5622,-3.5532,-3.5507,-3.5507,-3.5507,-3.5603,-3.6199,-3.6526,-3.6526,-3.668,-3.6892,-3.6642,-3.6276,-3.5834,-3.5641,-3.5584,-3.5565,-3.5559,-3.5579,-3.5507,-3.523,-3.4993,-3.4928,-3.5388,-3.5489,-3.5215,-3.6907,-3.743,-3.6642,-3.6295,-3.6219,-3.5705,-3.5507,-3.5507,-3.5507,-3.5507,-3.5507,-3.5507,-3.5507,-3.5507,-3.546,-3.5383,-3.5,-3.4889,-3.4944,-3.4349,-3.5016,-3.5329,-3.5477,-3.5733,-3.6459,-3.6834,-3.6699,-3.7084,-3.8507,-3.8757,-3.9411,-4.0142,-4.0489,-4.045,-4.045,-4.045,-4.0277,-3.9854,-3.9258,-3.8777,-3.8234,-3.82,-3.8445,-3.8676,-3.9253,-3.9969,-4.0335,-4.0489,-4.0489,-4.0489,-4.0489,-4.0489,-4.0489,-4.0489,-4.0489,-4.0489,-4.0489,-4.0489,-4.0489,-4.0489,-4.0489,-4.0469,-4.0489,-4.0489,-4.0489,-4.0335,-4.0373,-4.0469,-4.0489,-4.0469,-4.0315,-3.9719,-3.9258,-3.8772,-3.8195,-3.7156,-3.6738,-3.6469,-3.6199,-3.6122,-3.6026,-3.6065,-3.6122,-3.5892,-3.5858,-3.6411,-3.693,-3.6622,-3.6353,-3.6199,-3.6122,-3.6122,-3.6007,-3.6026,-3.6469,-3.718,-3.7411,-3.7469,-3.7584,-3.7719,-3.7661,-3.7296,-3.6699,-3.629,-3.6559,-3.6573,-3.5888,-3.5675,-3.5725,-3.5755,-3.5681,-3.5725,-3.5922,-3.5743,-3.5511,-3.6805,-3.6622,-3.5853,-3.5545,-3.5507,-3.5512,-3.5507,-3.5507,-3.5507,-3.5507,-3.5507,-3.5507,-3.5507,-3.5507,-3.5507,-3.5417,-3.5289,-3.4907,-3.4946,-3.517,-3.5585,-3.592,-3.6311,-3.6635,-3.7281,-3.7257,-3.7199,-3.7488,-3.8161,-3.87,-3.9488,-4.0181,-4.0489,-4.0489,-4.0489,-4.0431,-4.02,-3.9858,-3.9646,-3.9108,-3.8574,-3.8954,-3.9138,-3.9388,-3.9831,-4.0258,-4.0489,-4.0489,-4.0489,-4.0489,-4.0489,-4.0489,-4.0489,-4.0489,-4.0489,-4.0489,-4.0489,-4.0489,-4.0489,-4.0489,-4.0489,-4.0489,-4.0489,-4.0489,-4.0489,-4.0489,-4.0489,-4.0489,-4.0489,-4.0489,-4.0392,-3.995,-3.9508,-3.9123,-3.8757,-3.8238,-3.7911,-3.7608,-3.7353,-3.7161,-3.7026,-3.7046,-3.7199,-3.7007,-3.6873,-3.7526,-3.8142,-3.8334,-3.7988,-3.7411,-3.7334,-3.7243,-3.7065,-3.6738,-3.7257,-3.8046,-3.8277,-3.8315,-3.8219,-3.8296,-3.8277,-3.843,-3.8118,-3.7906,-3.7959,-3.7527,-3.6319,-3.5937,-3.6032,-3.6043,-3.5954,-3.5949,-3.5958,-3.5904,-3.5756,-3.6613,-3.745,-3.6103,-3.5507,-3.5507,-3.5507,-3.5507,-3.5507,-3.5507,-3.5507,-3.5507,-3.5507,-3.5474,-3.5507,-3.5474,-3.5273,-3.507,-3.5021,-3.5188,-3.5515,-3.6017,-3.6612,-3.7107,-3.7555,-3.817,-3.8469,-3.8507,-3.8315,-3.945,-3.9662,-3.9681,-4.0431,-4.0489,-4.0489,-4.0489,-4.0489,-4.0296,-4.0162,-4.0031,-3.9588,-3.9285,-3.9665,-3.9715,-3.9749,-4.0119,-4.0431,-4.0489,-4.0489,-4.0489,-4.0489,-4.0489,-4.0489,-4.0489,-4.0489,-4.0489,-4.0489,-4.0489,-4.0489,-4.0489,-4.0489,-4.0489,-4.0489,-4.0489,-4.0489,-4.0489,-4.0489,-4.0489,-4.0489,-4.0489,-4.0489,-4.0489,-4.0181,-3.995,-3.9738,-3.945,-3.9258,-3.895,-3.8642,-3.8334,-3.7834,-3.77,-3.8104,-3.8257,-3.8296,-3.8296,-3.8911,-3.9315,-3.9527,-3.945,-3.8796,-3.8469,-3.8373,-3.8296,-3.7988,-3.8238,-3.8931,-3.9065,-3.9142,-3.9046,-3.9123,-3.9469,-3.9619,-3.9523,-3.9273,-3.8891,-3.7713,-3.6243,-3.6228,-3.6631,-3.6153,-3.6007,-3.6003,-3.6005,-3.5919,-3.5823,-3.6358,-3.7219,-3.6065,-3.5507,-3.5507,-3.5507,-3.5507,-3.5507,-3.5507,-3.5507,-3.5507,-3.5507,-3.5446,-3.5339,-3.5304,-3.5122,-3.4754,-3.4889,-3.5191,-3.595,-3.6512,-3.7395,-3.8034,-3.8492,-3.9016,-3.9373,-3.9238,-3.8796,-3.9892,-4.01,-4.0046,-4.0469,-4.0489,-4.0489,-4.0489,-4.0489,-4.0489,-4.045,-4.0392,-4.0181,-4.0162,-4.0219,-4.0042,-3.9965,-4.035,-4.0431,-4.0489,-4.0489,-4.0489,-4.0489,-4.0489,-4.0489,-4.0489,-4.0489,-4.0489,-4.0489,-4.0489,-4.0489,-4.0489,-4.0489,-4.0489,-4.0489,-4.0489,-4.0489,-4.0489,-4.0489,-4.0489,-4.0489,-4.0489,-4.0489,-4.0489,-4.0489,-4.0469,-4.045,-4.0335,-4.0254,-3.9946,-3.9619,-3.9084,-3.8488,-3.8604,-3.9084,-3.9315,-3.9373,-3.9508,-3.9758,-3.995,-4.0065,-4.0065,-3.9719,-3.9488,-3.9411,-3.9411,-3.935,-3.9585,-3.9604,-3.97,-3.9815,-3.9912,-4.0085,-4.0562,-4.0543,-4.0231,-3.9889,-3.9508,-3.8437,-3.75,-3.7207,-3.7299,-3.6749,-3.6173,-3.6009,-3.597,-3.5873,-3.5757,-3.6045,-3.668,-3.5853,-3.5507,-3.5507,-3.5507,-3.5507,-3.5474,-3.546,-3.546,-3.5446,-3.5479,-3.5285,-3.51,-3.5069,-3.4943,-3.487,-3.4983,-3.5704,-3.6439,-3.7414,-3.8344,-3.9051,-3.9454,-3.9742,-3.9681,-3.9508,-3.9296,-3.9392,-3.9719,-4.0123,-4.0469,-4.0489,-4.0489,-4.0489,-4.0489,-4.0489,-4.0489,-4.0489,-4.0392,-4.0431,-4.0469,-4.0489,-4.045,-4.0489,-4.0489,-4.0489,-4.0489,-4.0489,-4.0489,-4.0489,-4.0489,-4.0489,-4.0489,-4.0489,-4.0489,-4.0489,-4.0489,-4.0489,-4.0489,-4.0489,-4.0489,-4.0489,-4.0489,-4.0489,-4.0489,-4.0489,-4.0489,-4.0489,-4.0489,-4.0489,-4.0489,-4.0489,-4.0489,-4.0431,-4.0392,-4.0258,-4.0027,-3.9815,-3.9373,-3.9469,-3.9912,-3.995,-3.9988,-3.9931,-4.0315,-4.0412,-4.0489,-4.0431,-4.0258,-4.02,-4.0142,-4.0065,-4.0023,-4.0138,-4.0162,-4.0296,-4.0431,-4.0485,-4.0504,-4.0546,-4.0693,-4.0843,-4.0516,-4.0195,-3.9961,-3.9336,-3.875,-3.7937,-3.7159,-3.661,-3.6121,-3.5974,-3.608,-3.5865,-3.6045,-3.6622,-3.5834,-3.5507,-3.5507,-3.5507,-3.5474,-3.5479,-3.5273,-3.519,-3.5207,-3.5171,-3.5045,-3.483,-3.4794,-3.4697,-3.4794,-3.5382,-3.6405,-3.7292,-3.8263,-3.9097,-4.0011,-4.0085,-4.0296,-4.0315,-4.0104,-3.9815,-4.0008,-4.0162,-4.0239,-4.0469,-4.0489,-4.0489,-4.0489,-4.0489,-4.0489,-4.0489,-4.0489,-4.0489,-4.0489,-4.0489,-4.0489,-4.0489,-4.0489,-4.0489,-4.0489,-4.0489,-4.0489,-4.0489,-4.0489,-4.0489,-4.0489,-4.0489,-4.0489,-4.0489,-4.0489,-4.0489,-4.0489,-4.0489,-4.0489,-4.0489,-4.0489,-4.0489,-4.0489,-4.0489,-4.0489,-4.0489,-4.0489,-4.0489,-4.0489,-4.0489,-4.0489,-4.0489,-4.0489,-4.0489,-4.0489,-4.0431,-4.0373,-4.0392,-4.0392,-4.0431,-4.0469,-4.0489,-4.0489,-4.0489,-4.0469,-4.0489,-4.0489,-4.0392,-4.0392,-4.0354,-4.0373,-4.0392,-4.0489,-4.0489,-4.0489,-4.0489,-4.0489,-4.0508,-4.0558,-4.0771,-4.0962,-4.107,-4.0918,-4.0566,-4.0117,-3.9512,-3.8683,-3.7855,-3.739,-3.7065,-3.6841,-3.6867,-3.6431,-3.5795,-3.6103,-3.5685,-3.5432,-3.5339,-3.532,-3.5254,-3.5122,-3.4981,-3.4851,-3.4755,-3.4813,-3.4756,-3.4525,-3.4494,-3.4534,-3.4734,-3.5609,-3.6558,-3.7636,-3.8722,-3.9627,-4.0196,-4.0469,-4.0469,-4.0489,-4.0489,-4.0431,-4.0489,-4.0469,-4.045,-4.0489,-4.0489,-4.0489,-4.0489,-4.0489,-4.0489,-4.0489,-4.0489,-4.0489,-4.0489,-4.0489,-4.0489,-4.0489,-4.0489,-4.0489,-4.0489,-4.0489,-4.0489,-4.0489,-4.0489,-4.0489,-4.0489,-4.0489,-4.0489,-4.0489,-4.0489,-4.0489,-4.0508,-4.0527,-4.0527,-4.0508,-4.0489,-4.0489,-4.0489,-4.0489,-4.0489,-4.0489,-4.0489,-4.0489,-4.0489,-4.0489,-4.0489,-4.0489,-4.0489,-4.0489,-4.0489,-4.0469,-4.045,-4.045,-4.045,-4.0469,-4.0489,-4.0489,-4.0489,-4.0489,-4.0489,-4.0546,-4.0527,-4.0623,-4.0585,-4.0489,-4.0489,-4.0489,-4.0489,-4.0489,-4.0489,-4.0489,-4.0489,-4.0648,-4.0771,-4.0935,-4.1097,-4.1104,-4.1099,-4.0957,-4.0469,-3.9937,-3.948,-3.8755,-3.8392,-3.8108,-3.7868,-3.7661,-3.77,-3.5268,-3.5398,-3.5383,-3.5254,-3.507,-3.5053,-3.4944,-3.4753,-3.4653,-3.4489,-3.4274,-3.4467,-3.4386,-3.4255,-3.4181,-3.4288,-3.4708,-3.5583,-3.6558,-3.7691,-3.8808,-3.9508,-4.0042,-4.0412,-4.0469,-4.0489,-4.0489,-4.0489,-4.0489,-4.0489,-4.0489,-4.0489,-4.0489,-4.0489,-4.0489,-4.0489,-4.0489,-4.0489,-4.0489,-4.0489,-4.0489,-4.0489,-4.0489,-4.0489,-4.0489,-4.0489,-4.0489,-4.0489,-4.0489,-4.0489,-4.0527,-4.0739,-4.1004,-4.112,-4.1008,-4.1062,-4.1197,-4.095,-4.0662,-4.0719,-4.0642,-4.0566,-4.0527,-4.0527,-4.0527,-4.0508,-4.0508,-4.0585,-4.0585,-4.0546,-4.0546,-4.0527,-4.0527,-4.0527,-4.0527,-4.0489,-4.0489,-4.0489,-4.0489,-4.0489,-4.0489,-4.0489,-4.0489,-4.0489,-4.0546,-4.0546,-4.0662,-4.062,-4.0662,-4.0835,-4.0912,-4.0681,-4.0489,-4.0489,-4.0489,-4.0489,-4.0489,-4.0489,-4.053,-4.0762,-4.0953,-4.1037,-4.1072,-4.1051,-4.1019,-4.0935,-4.0777,-4.0334,-3.9893,-3.9282,-3.8912,-3.8484,-3.8277,-3.8277,-3.9104,-3.4207,-3.4851,-3.487,-3.4813,-3.4774,-3.4774,-3.4753,-3.4653,-3.4401,-3.4232,-3.4167,-3.4,-3.391,-3.3865,-3.3876,-3.4235,-3.5071,-3.5711,-3.6728,-3.7947,-3.8843,-3.93,-3.9758,-4.0338,-4.0469,-4.0489,-4.0489,-4.0489,-4.0489,-4.0489,-4.0489,-4.0489,-4.0489,-4.0489,-4.0489,-4.0489,-4.0489,-4.0508,-4.0604,-4.0642,-4.0623,-4.0585,-4.0508,-4.0489,-4.0489,-4.0489,-4.0489,-4.0489,-4.0489,-4.0489,-4.0546,-4.0969,-4.1508,-4.1966,-4.2024,-4.1931,-4.2047,-4.17,-4.1431,-4.1412,-4.1373,-4.0912,-4.0854,-4.07,-4.0662,-4.0546,-4.0662,-4.0893,-4.0873,-4.0758,-4.0719,-4.0681,-4.0662,-4.0642,-4.0623,-4.0546,-4.0489,-4.0489,-4.0489,-4.0489,-4.0489,-4.0489,-4.0489,-4.0585,-4.0777,-4.1043,-4.1813,-4.1678,-4.0854,-4.1008,-4.1219,-4.0873,-4.0527,-4.0489,-4.0489,-4.0489,-4.0489,-4.0489,-4.0519,-4.0648,-4.0807,-4.1039,-4.1069,-4.0992,-4.0932,-4.0881,-4.0676,-4.0537,-3.9777,-3.9182,-3.896,-3.8681,-3.8512,-3.8685,-3.9339]}]]